<?xml version="1.0" encoding="UTF-8" standalone="no" ?>
<gpx xmlns="http://www.topografix.com/GPX/1/1" xmlns:xsi="http://www.w3.org/2001/XMLSchema-instance" xsi:schemaLocation="http://www.topografix.com/GPX/1/1 http://www.topografix.com/GPX/1/1/gpx.xsd" version="1.1" creator="VisuGPX - https://www.visugpx.com">
  <metadata>
    <name>Trois lacs depuis Les Trois Epis</name>
  </metadata>
  <trk>
    <name><![CDATA[3581305-Tour lacs vosgiens]]></name>
    <trkseg>
      <trkpt lat="48.10104" lon="7.23001">
        <ele>652</ele>
        <time>2019-05-06T11:14:15Z</time>
      </trkpt>
      <trkpt lat="48.10099" lon="7.22989">
        <ele>652</ele>
        <time>2019-05-06T11:15:15Z</time>
      </trkpt>
      <trkpt lat="48.10079" lon="7.22988">
        <ele>653</ele>
        <time>2019-05-06T11:16:15Z</time>
      </trkpt>
      <trkpt lat="48.10071" lon="7.22996">
        <ele>654</ele>
        <time>2019-05-06T11:17:15Z</time>
      </trkpt>
      <trkpt lat="48.1007" lon="7.23013">
        <ele>655</ele>
        <time>2019-05-06T11:18:15Z</time>
      </trkpt>
      <trkpt lat="48.10082" lon="7.23055">
        <ele>657</ele>
        <time>2019-05-06T11:19:15Z</time>
      </trkpt>
      <trkpt lat="48.10079" lon="7.23071">
        <ele>658</ele>
        <time>2019-05-06T11:20:15Z</time>
      </trkpt>
      <trkpt lat="48.10063" lon="7.23094">
        <ele>659</ele>
        <time>2019-05-06T11:21:15Z</time>
      </trkpt>
      <trkpt lat="48.10053" lon="7.23104">
        <ele>660</ele>
        <time>2019-05-06T11:22:15Z</time>
      </trkpt>
      <trkpt lat="48.1002" lon="7.23112">
        <ele>659</ele>
        <time>2019-05-06T11:23:15Z</time>
      </trkpt>
      <trkpt lat="48.10009" lon="7.23118">
        <ele>659</ele>
        <time>2019-05-06T11:24:15Z</time>
      </trkpt>
      <trkpt lat="48.09987" lon="7.23122">
        <ele>657</ele>
        <time>2019-05-06T11:25:15Z</time>
      </trkpt>
      <trkpt lat="48.0998" lon="7.23139">
        <ele>655</ele>
        <time>2019-05-06T11:26:15Z</time>
      </trkpt>
      <trkpt lat="48.09983" lon="7.2317">
        <ele>654</ele>
        <time>2019-05-06T11:27:15Z</time>
      </trkpt>
      <trkpt lat="48.09982" lon="7.23221">
        <ele>653</ele>
        <time>2019-05-06T11:28:15Z</time>
      </trkpt>
      <trkpt lat="48.09978" lon="7.2326">
        <ele>652</ele>
        <time>2019-05-06T11:29:15Z</time>
      </trkpt>
      <trkpt lat="48.09972" lon="7.2328">
        <ele>651</ele>
        <time>2019-05-06T11:30:15Z</time>
      </trkpt>
      <trkpt lat="48.09937" lon="7.23354">
        <ele>645</ele>
        <time>2019-05-06T11:31:15Z</time>
      </trkpt>
      <trkpt lat="48.09931" lon="7.23374">
        <ele>644</ele>
        <time>2019-05-06T11:32:15Z</time>
      </trkpt>
      <trkpt lat="48.09929" lon="7.23394">
        <ele>644</ele>
        <time>2019-05-06T11:33:15Z</time>
      </trkpt>
      <trkpt lat="48.0994" lon="7.23443">
        <ele>646</ele>
        <time>2019-05-06T11:34:15Z</time>
      </trkpt>
      <trkpt lat="48.09933" lon="7.23452">
        <ele>644</ele>
        <time>2019-05-06T11:35:15Z</time>
      </trkpt>
      <trkpt lat="48.09925" lon="7.23439">
        <ele>643</ele>
        <time>2019-05-06T11:36:15Z</time>
      </trkpt>
      <trkpt lat="48.0992" lon="7.23421">
        <ele>643</ele>
        <time>2019-05-06T11:37:15Z</time>
      </trkpt>
      <trkpt lat="48.0992" lon="7.23353">
        <ele>640</ele>
        <time>2019-05-06T11:38:15Z</time>
      </trkpt>
      <trkpt lat="48.09922" lon="7.23332">
        <ele>639</ele>
        <time>2019-05-06T11:39:15Z</time>
      </trkpt>
      <trkpt lat="48.09946" lon="7.23269">
        <ele>643</ele>
        <time>2019-05-06T11:40:15Z</time>
      </trkpt>
      <trkpt lat="48.0995" lon="7.23251">
        <ele>644</ele>
        <time>2019-05-06T11:41:15Z</time>
      </trkpt>
      <trkpt lat="48.09949" lon="7.23234">
        <ele>644</ele>
        <time>2019-05-06T11:42:15Z</time>
      </trkpt>
      <trkpt lat="48.09946" lon="7.2322">
        <ele>644</ele>
        <time>2019-05-06T11:43:15Z</time>
      </trkpt>
      <trkpt lat="48.09922" lon="7.23163">
        <ele>643</ele>
        <time>2019-05-06T11:44:15Z</time>
      </trkpt>
      <trkpt lat="48.09911" lon="7.23097">
        <ele>650</ele>
        <time>2019-05-06T11:45:15Z</time>
      </trkpt>
      <trkpt lat="48.09898" lon="7.2307">
        <ele>651</ele>
        <time>2019-05-06T11:46:15Z</time>
      </trkpt>
      <trkpt lat="48.09887" lon="7.23063">
        <ele>649</ele>
        <time>2019-05-06T11:47:15Z</time>
      </trkpt>
      <trkpt lat="48.0986" lon="7.23059">
        <ele>644</ele>
        <time>2019-05-06T11:48:15Z</time>
      </trkpt>
      <trkpt lat="48.09849" lon="7.23055">
        <ele>643</ele>
        <time>2019-05-06T11:49:15Z</time>
      </trkpt>
      <trkpt lat="48.09831" lon="7.23032">
        <ele>646</ele>
        <time>2019-05-06T11:50:15Z</time>
      </trkpt>
      <trkpt lat="48.09812" lon="7.2302">
        <ele>646</ele>
        <time>2019-05-06T11:51:15Z</time>
      </trkpt>
      <trkpt lat="48.09773" lon="7.22976">
        <ele>655</ele>
        <time>2019-05-06T11:52:15Z</time>
      </trkpt>
      <trkpt lat="48.0976" lon="7.22972">
        <ele>655</ele>
        <time>2019-05-06T11:53:15Z</time>
      </trkpt>
      <trkpt lat="48.09705" lon="7.22968">
        <ele>649</ele>
        <time>2019-05-06T11:54:15Z</time>
      </trkpt>
      <trkpt lat="48.09693" lon="7.22964">
        <ele>648</ele>
        <time>2019-05-06T11:55:15Z</time>
      </trkpt>
      <trkpt lat="48.09672" lon="7.22954">
        <ele>648</ele>
        <time>2019-05-06T11:56:15Z</time>
      </trkpt>
      <trkpt lat="48.09659" lon="7.22945">
        <ele>648</ele>
        <time>2019-05-06T11:57:15Z</time>
      </trkpt>
      <trkpt lat="48.09637" lon="7.22927">
        <ele>647</ele>
        <time>2019-05-06T11:58:15Z</time>
      </trkpt>
      <trkpt lat="48.0963" lon="7.22916">
        <ele>647</ele>
        <time>2019-05-06T11:59:15Z</time>
      </trkpt>
      <trkpt lat="48.09626" lon="7.22885">
        <ele>645</ele>
        <time>2019-05-06T12:00:15Z</time>
      </trkpt>
      <trkpt lat="48.09629" lon="7.2287">
        <ele>646</ele>
        <time>2019-05-06T12:01:15Z</time>
      </trkpt>
      <trkpt lat="48.09657" lon="7.22824">
        <ele>650</ele>
        <time>2019-05-06T12:02:15Z</time>
      </trkpt>
      <trkpt lat="48.09695" lon="7.22779">
        <ele>656</ele>
        <time>2019-05-06T12:03:15Z</time>
      </trkpt>
      <trkpt lat="48.09702" lon="7.22767">
        <ele>657</ele>
        <time>2019-05-06T12:04:15Z</time>
      </trkpt>
      <trkpt lat="48.09713" lon="7.22726">
        <ele>655</ele>
        <time>2019-05-06T12:05:15Z</time>
      </trkpt>
      <trkpt lat="48.09736" lon="7.22676">
        <ele>656</ele>
        <time>2019-05-06T12:06:15Z</time>
      </trkpt>
      <trkpt lat="48.09745" lon="7.22644">
        <ele>655</ele>
        <time>2019-05-06T12:07:15Z</time>
      </trkpt>
      <trkpt lat="48.09751" lon="7.2261">
        <ele>654</ele>
        <time>2019-05-06T12:08:15Z</time>
      </trkpt>
      <trkpt lat="48.09752" lon="7.2258">
        <ele>652</ele>
        <time>2019-05-06T12:09:15Z</time>
      </trkpt>
      <trkpt lat="48.09749" lon="7.22542">
        <ele>650</ele>
        <time>2019-05-06T12:10:15Z</time>
      </trkpt>
      <trkpt lat="48.09737" lon="7.22497">
        <ele>644</ele>
        <time>2019-05-06T12:11:15Z</time>
      </trkpt>
      <trkpt lat="48.09736" lon="7.22482">
        <ele>643</ele>
        <time>2019-05-06T12:12:15Z</time>
      </trkpt>
      <trkpt lat="48.09741" lon="7.22432">
        <ele>646</ele>
        <time>2019-05-06T12:13:15Z</time>
      </trkpt>
      <trkpt lat="48.09756" lon="7.22348">
        <ele>648</ele>
        <time>2019-05-06T12:14:15Z</time>
      </trkpt>
      <trkpt lat="48.09762" lon="7.22334">
        <ele>649</ele>
        <time>2019-05-06T12:15:15Z</time>
      </trkpt>
      <trkpt lat="48.09778" lon="7.22314">
        <ele>656</ele>
        <time>2019-05-06T12:16:15Z</time>
      </trkpt>
      <trkpt lat="48.09784" lon="7.22287">
        <ele>659</ele>
        <time>2019-05-06T12:17:15Z</time>
      </trkpt>
      <trkpt lat="48.09772" lon="7.22264">
        <ele>655</ele>
        <time>2019-05-06T12:18:15Z</time>
      </trkpt>
      <trkpt lat="48.09753" lon="7.22185">
        <ele>656</ele>
        <time>2019-05-06T12:19:15Z</time>
      </trkpt>
      <trkpt lat="48.09747" lon="7.22169">
        <ele>657</ele>
        <time>2019-05-06T12:20:15Z</time>
      </trkpt>
      <trkpt lat="48.09732" lon="7.22143">
        <ele>658</ele>
        <time>2019-05-06T12:21:15Z</time>
      </trkpt>
      <trkpt lat="48.09712" lon="7.22124">
        <ele>659</ele>
        <time>2019-05-06T12:22:15Z</time>
      </trkpt>
      <trkpt lat="48.09693" lon="7.22118">
        <ele>656</ele>
        <time>2019-05-06T12:23:15Z</time>
      </trkpt>
      <trkpt lat="48.09687" lon="7.22107">
        <ele>659</ele>
        <time>2019-05-06T12:24:15Z</time>
      </trkpt>
      <trkpt lat="48.09674" lon="7.22025">
        <ele>678</ele>
        <time>2019-05-06T12:25:15Z</time>
      </trkpt>
      <trkpt lat="48.09667" lon="7.22014">
        <ele>680</ele>
        <time>2019-05-06T12:26:15Z</time>
      </trkpt>
      <trkpt lat="48.09642" lon="7.21989">
        <ele>682</ele>
        <time>2019-05-06T12:27:15Z</time>
      </trkpt>
      <trkpt lat="48.09636" lon="7.21932">
        <ele>687</ele>
        <time>2019-05-06T12:28:15Z</time>
      </trkpt>
      <trkpt lat="48.09628" lon="7.21907">
        <ele>688</ele>
        <time>2019-05-06T12:29:15Z</time>
      </trkpt>
      <trkpt lat="48.09616" lon="7.21903">
        <ele>688</ele>
        <time>2019-05-06T12:30:15Z</time>
      </trkpt>
      <trkpt lat="48.09598" lon="7.21871">
        <ele>688</ele>
        <time>2019-05-06T12:31:15Z</time>
      </trkpt>
      <trkpt lat="48.09579" lon="7.21857">
        <ele>688</ele>
        <time>2019-05-06T12:32:15Z</time>
      </trkpt>
      <trkpt lat="48.09554" lon="7.21824">
        <ele>687</ele>
        <time>2019-05-06T12:33:15Z</time>
      </trkpt>
      <trkpt lat="48.09534" lon="7.21808">
        <ele>687</ele>
        <time>2019-05-06T12:34:15Z</time>
      </trkpt>
      <trkpt lat="48.09526" lon="7.21795">
        <ele>687</ele>
        <time>2019-05-06T12:35:15Z</time>
      </trkpt>
      <trkpt lat="48.09521" lon="7.21781">
        <ele>688</ele>
        <time>2019-05-06T12:36:15Z</time>
      </trkpt>
      <trkpt lat="48.0952" lon="7.21764">
        <ele>689</ele>
        <time>2019-05-06T12:37:15Z</time>
      </trkpt>
      <trkpt lat="48.09523" lon="7.21733">
        <ele>691</ele>
        <time>2019-05-06T12:38:15Z</time>
      </trkpt>
      <trkpt lat="48.09515" lon="7.21708">
        <ele>691</ele>
        <time>2019-05-06T12:39:15Z</time>
      </trkpt>
      <trkpt lat="48.09506" lon="7.21696">
        <ele>692</ele>
        <time>2019-05-06T12:40:15Z</time>
      </trkpt>
      <trkpt lat="48.09506" lon="7.2165">
        <ele>693</ele>
        <time>2019-05-06T12:41:15Z</time>
      </trkpt>
      <trkpt lat="48.09497" lon="7.21571">
        <ele>694</ele>
        <time>2019-05-06T12:42:15Z</time>
      </trkpt>
      <trkpt lat="48.09493" lon="7.21557">
        <ele>694</ele>
        <time>2019-05-06T12:43:15Z</time>
      </trkpt>
      <trkpt lat="48.09472" lon="7.21516">
        <ele>693</ele>
        <time>2019-05-06T12:44:15Z</time>
      </trkpt>
      <trkpt lat="48.09452" lon="7.21451">
        <ele>702</ele>
        <time>2019-05-06T12:45:15Z</time>
      </trkpt>
      <trkpt lat="48.09444" lon="7.21439">
        <ele>705</ele>
        <time>2019-05-06T12:46:15Z</time>
      </trkpt>
      <trkpt lat="48.09424" lon="7.21455">
        <ele>698</ele>
        <time>2019-05-06T12:47:15Z</time>
      </trkpt>
      <trkpt lat="48.09401" lon="7.21455">
        <ele>693</ele>
        <time>2019-05-06T12:48:15Z</time>
      </trkpt>
      <trkpt lat="48.09382" lon="7.21449">
        <ele>690</ele>
        <time>2019-05-06T12:49:15Z</time>
      </trkpt>
      <trkpt lat="48.09364" lon="7.21426">
        <ele>693</ele>
        <time>2019-05-06T12:50:15Z</time>
      </trkpt>
      <trkpt lat="48.09354" lon="7.21418">
        <ele>693</ele>
        <time>2019-05-06T12:51:15Z</time>
      </trkpt>
      <trkpt lat="48.09341" lon="7.21412">
        <ele>691</ele>
        <time>2019-05-06T12:52:15Z</time>
      </trkpt>
      <trkpt lat="48.09331" lon="7.21402">
        <ele>691</ele>
        <time>2019-05-06T12:53:15Z</time>
      </trkpt>
      <trkpt lat="48.093" lon="7.21349">
        <ele>693</ele>
        <time>2019-05-06T12:54:15Z</time>
      </trkpt>
      <trkpt lat="48.09291" lon="7.21338">
        <ele>692</ele>
        <time>2019-05-06T12:55:15Z</time>
      </trkpt>
      <trkpt lat="48.09229" lon="7.21282">
        <ele>687</ele>
        <time>2019-05-06T12:56:15Z</time>
      </trkpt>
      <trkpt lat="48.09173" lon="7.21249">
        <ele>681</ele>
        <time>2019-05-06T12:57:15Z</time>
      </trkpt>
      <trkpt lat="48.09186" lon="7.21255">
        <ele>683</ele>
        <time>2019-05-06T12:58:15Z</time>
      </trkpt>
      <trkpt lat="48.09218" lon="7.21264">
        <ele>689</ele>
        <time>2019-05-06T12:59:15Z</time>
      </trkpt>
      <trkpt lat="48.09255" lon="7.21289">
        <ele>692</ele>
        <time>2019-05-06T13:00:15Z</time>
      </trkpt>
      <trkpt lat="48.09276" lon="7.213">
        <ele>697</ele>
        <time>2019-05-06T13:01:15Z</time>
      </trkpt>
      <trkpt lat="48.09292" lon="7.2132">
        <ele>698</ele>
        <time>2019-05-06T13:02:15Z</time>
      </trkpt>
      <trkpt lat="48.09309" lon="7.21336">
        <ele>700</ele>
        <time>2019-05-06T13:03:15Z</time>
      </trkpt>
      <trkpt lat="48.09336" lon="7.21387">
        <ele>697</ele>
        <time>2019-05-06T13:04:15Z</time>
      </trkpt>
      <trkpt lat="48.09362" lon="7.21415">
        <ele>696</ele>
        <time>2019-05-06T13:05:15Z</time>
      </trkpt>
      <trkpt lat="48.09377" lon="7.21435">
        <ele>693</ele>
        <time>2019-05-06T13:06:15Z</time>
      </trkpt>
      <trkpt lat="48.09383" lon="7.21447">
        <ele>691</ele>
        <time>2019-05-06T13:07:15Z</time>
      </trkpt>
      <trkpt lat="48.09399" lon="7.21462">
        <ele>690</ele>
        <time>2019-05-06T13:08:15Z</time>
      </trkpt>
      <trkpt lat="48.09409" lon="7.21465">
        <ele>692</ele>
        <time>2019-05-06T13:09:15Z</time>
      </trkpt>
      <trkpt lat="48.09419" lon="7.2146">
        <ele>696</ele>
        <time>2019-05-06T13:10:15Z</time>
      </trkpt>
      <trkpt lat="48.09437" lon="7.21441">
        <ele>704</ele>
        <time>2019-05-06T13:11:15Z</time>
      </trkpt>
      <trkpt lat="48.09446" lon="7.21441">
        <ele>704</ele>
        <time>2019-05-06T13:12:15Z</time>
      </trkpt>
      <trkpt lat="48.09458" lon="7.21467">
        <ele>699</ele>
        <time>2019-05-06T13:13:15Z</time>
      </trkpt>
      <trkpt lat="48.09469" lon="7.21508">
        <ele>693</ele>
        <time>2019-05-06T13:14:15Z</time>
      </trkpt>
      <trkpt lat="48.09479" lon="7.21535">
        <ele>693</ele>
        <time>2019-05-06T13:15:15Z</time>
      </trkpt>
      <trkpt lat="48.09486" lon="7.21547">
        <ele>694</ele>
        <time>2019-05-06T13:16:15Z</time>
      </trkpt>
      <trkpt lat="48.09496" lon="7.2154">
        <ele>696</ele>
        <time>2019-05-06T13:17:15Z</time>
      </trkpt>
      <trkpt lat="48.095" lon="7.21527">
        <ele>698</ele>
        <time>2019-05-06T13:18:15Z</time>
      </trkpt>
      <trkpt lat="48.09507" lon="7.21517">
        <ele>700</ele>
        <time>2019-05-06T13:19:15Z</time>
      </trkpt>
      <trkpt lat="48.09568" lon="7.2152">
        <ele>707</ele>
        <time>2019-05-06T13:20:15Z</time>
      </trkpt>
      <trkpt lat="48.09563" lon="7.21506">
        <ele>708</ele>
        <time>2019-05-06T13:21:15Z</time>
      </trkpt>
      <trkpt lat="48.09524" lon="7.21458">
        <ele>709</ele>
        <time>2019-05-06T13:22:15Z</time>
      </trkpt>
      <trkpt lat="48.09508" lon="7.21418">
        <ele>714</ele>
        <time>2019-05-06T13:23:15Z</time>
      </trkpt>
      <trkpt lat="48.09507" lon="7.21401">
        <ele>717</ele>
        <time>2019-05-06T13:24:15Z</time>
      </trkpt>
      <trkpt lat="48.09501" lon="7.21372">
        <ele>723</ele>
        <time>2019-05-06T13:25:15Z</time>
      </trkpt>
      <trkpt lat="48.09496" lon="7.21359">
        <ele>725</ele>
        <time>2019-05-06T13:26:15Z</time>
      </trkpt>
      <trkpt lat="48.09491" lon="7.21328">
        <ele>731</ele>
        <time>2019-05-06T13:27:15Z</time>
      </trkpt>
      <trkpt lat="48.09483" lon="7.21302">
        <ele>735</ele>
        <time>2019-05-06T13:28:15Z</time>
      </trkpt>
      <trkpt lat="48.09467" lon="7.21264">
        <ele>739</ele>
        <time>2019-05-06T13:29:15Z</time>
      </trkpt>
      <trkpt lat="48.09446" lon="7.21232">
        <ele>741</ele>
        <time>2019-05-06T13:30:15Z</time>
      </trkpt>
      <trkpt lat="48.09436" lon="7.21228">
        <ele>740</ele>
        <time>2019-05-06T13:31:15Z</time>
      </trkpt>
      <trkpt lat="48.09396" lon="7.21221">
        <ele>739</ele>
        <time>2019-05-06T13:32:15Z</time>
      </trkpt>
      <trkpt lat="48.09376" lon="7.21206">
        <ele>741</ele>
        <time>2019-05-06T13:33:15Z</time>
      </trkpt>
      <trkpt lat="48.09361" lon="7.21188">
        <ele>744</ele>
        <time>2019-05-06T13:34:15Z</time>
      </trkpt>
      <trkpt lat="48.09339" lon="7.21153">
        <ele>750</ele>
        <time>2019-05-06T13:35:15Z</time>
      </trkpt>
      <trkpt lat="48.09304" lon="7.21083">
        <ele>757</ele>
        <time>2019-05-06T13:36:15Z</time>
      </trkpt>
      <trkpt lat="48.09299" lon="7.21071">
        <ele>758</ele>
        <time>2019-05-06T13:37:15Z</time>
      </trkpt>
      <trkpt lat="48.09292" lon="7.21027">
        <ele>763</ele>
        <time>2019-05-06T13:38:15Z</time>
      </trkpt>
      <trkpt lat="48.0928" lon="7.21004">
        <ele>765</ele>
        <time>2019-05-06T13:39:15Z</time>
      </trkpt>
      <trkpt lat="48.09264" lon="7.20985">
        <ele>766</ele>
        <time>2019-05-06T13:40:15Z</time>
      </trkpt>
      <trkpt lat="48.09251" lon="7.20963">
        <ele>767</ele>
        <time>2019-05-06T13:41:15Z</time>
      </trkpt>
      <trkpt lat="48.09246" lon="7.20948">
        <ele>768</ele>
        <time>2019-05-06T13:42:15Z</time>
      </trkpt>
      <trkpt lat="48.09251" lon="7.20905">
        <ele>770</ele>
        <time>2019-05-06T13:43:15Z</time>
      </trkpt>
      <trkpt lat="48.09245" lon="7.20857">
        <ele>771</ele>
        <time>2019-05-06T13:44:15Z</time>
      </trkpt>
      <trkpt lat="48.09237" lon="7.20829">
        <ele>772</ele>
        <time>2019-05-06T13:45:15Z</time>
      </trkpt>
      <trkpt lat="48.0923" lon="7.20782">
        <ele>774</ele>
        <time>2019-05-06T13:46:15Z</time>
      </trkpt>
      <trkpt lat="48.09217" lon="7.20755">
        <ele>775</ele>
        <time>2019-05-06T13:47:15Z</time>
      </trkpt>
      <trkpt lat="48.09223" lon="7.20652">
        <ele>776</ele>
        <time>2019-05-06T13:48:15Z</time>
      </trkpt>
      <trkpt lat="48.09213" lon="7.20647">
        <ele>777</ele>
        <time>2019-05-06T13:49:15Z</time>
      </trkpt>
      <trkpt lat="48.09181" lon="7.20646">
        <ele>776</ele>
        <time>2019-05-06T13:50:15Z</time>
      </trkpt>
      <trkpt lat="48.09171" lon="7.20643">
        <ele>776</ele>
        <time>2019-05-06T13:51:15Z</time>
      </trkpt>
      <trkpt lat="48.09163" lon="7.20634">
        <ele>777</ele>
        <time>2019-05-06T13:52:15Z</time>
      </trkpt>
      <trkpt lat="48.09152" lon="7.20593">
        <ele>778</ele>
        <time>2019-05-06T13:53:15Z</time>
      </trkpt>
      <trkpt lat="48.09177" lon="7.20549">
        <ele>780</ele>
        <time>2019-05-06T13:54:15Z</time>
      </trkpt>
      <trkpt lat="48.09195" lon="7.20493">
        <ele>781</ele>
        <time>2019-05-06T13:55:15Z</time>
      </trkpt>
      <trkpt lat="48.0921" lon="7.20469">
        <ele>781</ele>
        <time>2019-05-06T13:56:15Z</time>
      </trkpt>
      <trkpt lat="48.09223" lon="7.20442">
        <ele>780</ele>
        <time>2019-05-06T13:57:15Z</time>
      </trkpt>
      <trkpt lat="48.09234" lon="7.20397">
        <ele>780</ele>
        <time>2019-05-06T13:58:15Z</time>
      </trkpt>
      <trkpt lat="48.0924" lon="7.20351">
        <ele>781</ele>
        <time>2019-05-06T13:59:15Z</time>
      </trkpt>
      <trkpt lat="48.09258" lon="7.20313">
        <ele>784</ele>
        <time>2019-05-06T14:00:15Z</time>
      </trkpt>
      <trkpt lat="48.09265" lon="7.20286">
        <ele>786</ele>
        <time>2019-05-06T14:01:15Z</time>
      </trkpt>
      <trkpt lat="48.09257" lon="7.20214">
        <ele>793</ele>
        <time>2019-05-06T14:02:15Z</time>
      </trkpt>
      <trkpt lat="48.09244" lon="7.20158">
        <ele>798</ele>
        <time>2019-05-06T14:03:15Z</time>
      </trkpt>
      <trkpt lat="48.09243" lon="7.20144">
        <ele>798</ele>
        <time>2019-05-06T14:04:15Z</time>
      </trkpt>
      <trkpt lat="48.09231" lon="7.20101">
        <ele>798</ele>
        <time>2019-05-06T14:05:15Z</time>
      </trkpt>
      <trkpt lat="48.09224" lon="7.20087">
        <ele>797</ele>
        <time>2019-05-06T14:06:15Z</time>
      </trkpt>
      <trkpt lat="48.09213" lon="7.20027">
        <ele>796</ele>
        <time>2019-05-06T14:07:15Z</time>
      </trkpt>
      <trkpt lat="48.09207" lon="7.20013">
        <ele>795</ele>
        <time>2019-05-06T14:08:15Z</time>
      </trkpt>
      <trkpt lat="48.0919" lon="7.19952">
        <ele>793</ele>
        <time>2019-05-06T14:09:15Z</time>
      </trkpt>
      <trkpt lat="48.09145" lon="7.19868">
        <ele>789</ele>
        <time>2019-05-06T14:10:15Z</time>
      </trkpt>
      <trkpt lat="48.09137" lon="7.19857">
        <ele>789</ele>
        <time>2019-05-06T14:11:15Z</time>
      </trkpt>
      <trkpt lat="48.09114" lon="7.19794">
        <ele>786</ele>
        <time>2019-05-06T14:12:15Z</time>
      </trkpt>
      <trkpt lat="48.09106" lon="7.1976">
        <ele>786</ele>
        <time>2019-05-06T14:13:15Z</time>
      </trkpt>
      <trkpt lat="48.09095" lon="7.19677">
        <ele>790</ele>
        <time>2019-05-06T14:14:15Z</time>
      </trkpt>
      <trkpt lat="48.09063" lon="7.19597">
        <ele>794</ele>
        <time>2019-05-06T14:15:15Z</time>
      </trkpt>
      <trkpt lat="48.09056" lon="7.1957">
        <ele>795</ele>
        <time>2019-05-06T14:16:15Z</time>
      </trkpt>
      <trkpt lat="48.09036" lon="7.19456">
        <ele>805</ele>
        <time>2019-05-06T14:17:15Z</time>
      </trkpt>
      <trkpt lat="48.09035" lon="7.19426">
        <ele>810</ele>
        <time>2019-05-06T14:18:15Z</time>
      </trkpt>
      <trkpt lat="48.09039" lon="7.19398">
        <ele>814</ele>
        <time>2019-05-06T14:19:15Z</time>
      </trkpt>
      <trkpt lat="48.09045" lon="7.19384">
        <ele>816</ele>
        <time>2019-05-06T14:20:15Z</time>
      </trkpt>
      <trkpt lat="48.09087" lon="7.19319">
        <ele>822</ele>
        <time>2019-05-06T14:21:15Z</time>
      </trkpt>
      <trkpt lat="48.09113" lon="7.19258">
        <ele>827</ele>
        <time>2019-05-06T14:22:15Z</time>
      </trkpt>
      <trkpt lat="48.09129" lon="7.19204">
        <ele>829</ele>
        <time>2019-05-06T14:23:15Z</time>
      </trkpt>
      <trkpt lat="48.09151" lon="7.19109">
        <ele>833</ele>
        <time>2019-05-06T14:24:15Z</time>
      </trkpt>
      <trkpt lat="48.09162" lon="7.19034">
        <ele>835</ele>
        <time>2019-05-06T14:25:15Z</time>
      </trkpt>
      <trkpt lat="48.09179" lon="7.18949">
        <ele>838</ele>
        <time>2019-05-06T14:26:15Z</time>
      </trkpt>
      <trkpt lat="48.0919" lon="7.18909">
        <ele>840</ele>
        <time>2019-05-06T14:27:15Z</time>
      </trkpt>
      <trkpt lat="48.09191" lon="7.18895">
        <ele>841</ele>
        <time>2019-05-06T14:28:15Z</time>
      </trkpt>
      <trkpt lat="48.09186" lon="7.18883">
        <ele>842</ele>
        <time>2019-05-06T14:29:15Z</time>
      </trkpt>
      <trkpt lat="48.09171" lon="7.18862">
        <ele>844</ele>
        <time>2019-05-06T14:30:15Z</time>
      </trkpt>
      <trkpt lat="48.09167" lon="7.18847">
        <ele>845</ele>
        <time>2019-05-06T14:31:15Z</time>
      </trkpt>
      <trkpt lat="48.09165" lon="7.18817">
        <ele>846</ele>
        <time>2019-05-06T14:32:15Z</time>
      </trkpt>
      <trkpt lat="48.09153" lon="7.18773">
        <ele>849</ele>
        <time>2019-05-06T14:33:15Z</time>
      </trkpt>
      <trkpt lat="48.09107" lon="7.18656">
        <ele>852</ele>
        <time>2019-05-06T14:34:15Z</time>
      </trkpt>
      <trkpt lat="48.09087" lon="7.18624">
        <ele>853</ele>
        <time>2019-05-06T14:35:15Z</time>
      </trkpt>
      <trkpt lat="48.09082" lon="7.18611">
        <ele>852</ele>
        <time>2019-05-06T14:36:15Z</time>
      </trkpt>
      <trkpt lat="48.09074" lon="7.18602">
        <ele>853</ele>
        <time>2019-05-06T14:37:15Z</time>
      </trkpt>
      <trkpt lat="48.09069" lon="7.18589">
        <ele>853</ele>
        <time>2019-05-06T14:38:15Z</time>
      </trkpt>
      <trkpt lat="48.09062" lon="7.18579">
        <ele>853</ele>
        <time>2019-05-06T14:39:15Z</time>
      </trkpt>
      <trkpt lat="48.09043" lon="7.18561">
        <ele>854</ele>
        <time>2019-05-06T14:40:15Z</time>
      </trkpt>
      <trkpt lat="48.09024" lon="7.1855">
        <ele>855</ele>
        <time>2019-05-06T14:41:15Z</time>
      </trkpt>
      <trkpt lat="48.08954" lon="7.18532">
        <ele>860</ele>
        <time>2019-05-06T14:42:15Z</time>
      </trkpt>
      <trkpt lat="48.08926" lon="7.18533">
        <ele>862</ele>
        <time>2019-05-06T14:43:15Z</time>
      </trkpt>
      <trkpt lat="48.08888" lon="7.18544">
        <ele>865</ele>
        <time>2019-05-06T14:44:15Z</time>
      </trkpt>
      <trkpt lat="48.08851" lon="7.18551">
        <ele>868</ele>
        <time>2019-05-06T14:45:15Z</time>
      </trkpt>
      <trkpt lat="48.08819" lon="7.18552">
        <ele>869</ele>
        <time>2019-05-06T14:46:15Z</time>
      </trkpt>
      <trkpt lat="48.08759" lon="7.18548">
        <ele>871</ele>
        <time>2019-05-06T14:47:15Z</time>
      </trkpt>
      <trkpt lat="48.08728" lon="7.18552">
        <ele>875</ele>
        <time>2019-05-06T14:48:15Z</time>
      </trkpt>
      <trkpt lat="48.08715" lon="7.18551">
        <ele>876</ele>
        <time>2019-05-06T14:49:15Z</time>
      </trkpt>
      <trkpt lat="48.08663" lon="7.18531">
        <ele>880</ele>
        <time>2019-05-06T14:50:15Z</time>
      </trkpt>
      <trkpt lat="48.08623" lon="7.18527">
        <ele>884</ele>
        <time>2019-05-06T14:51:15Z</time>
      </trkpt>
      <trkpt lat="48.08591" lon="7.18534">
        <ele>890</ele>
        <time>2019-05-06T14:52:15Z</time>
      </trkpt>
      <trkpt lat="48.08562" lon="7.18547">
        <ele>894</ele>
        <time>2019-05-06T14:53:15Z</time>
      </trkpt>
      <trkpt lat="48.08532" lon="7.18554">
        <ele>896</ele>
        <time>2019-05-06T14:54:15Z</time>
      </trkpt>
      <trkpt lat="48.08522" lon="7.18559">
        <ele>897</ele>
        <time>2019-05-06T14:55:15Z</time>
      </trkpt>
      <trkpt lat="48.08485" lon="7.1859">
        <ele>897</ele>
        <time>2019-05-06T14:56:15Z</time>
      </trkpt>
      <trkpt lat="48.08476" lon="7.18593">
        <ele>895</ele>
        <time>2019-05-06T14:57:15Z</time>
      </trkpt>
      <trkpt lat="48.08475" lon="7.18609">
        <ele>895</ele>
        <time>2019-05-06T14:58:15Z</time>
      </trkpt>
      <trkpt lat="48.08455" lon="7.18668">
        <ele>889</ele>
        <time>2019-05-06T14:59:15Z</time>
      </trkpt>
      <trkpt lat="48.08435" lon="7.18709">
        <ele>882</ele>
        <time>2019-05-06T15:00:15Z</time>
      </trkpt>
      <trkpt lat="48.08398" lon="7.1877">
        <ele>867</ele>
        <time>2019-05-06T15:01:15Z</time>
      </trkpt>
      <trkpt lat="48.08393" lon="7.18801">
        <ele>866</ele>
        <time>2019-05-06T15:02:15Z</time>
      </trkpt>
      <trkpt lat="48.08393" lon="7.18833">
        <ele>868</ele>
        <time>2019-05-06T15:03:15Z</time>
      </trkpt>
      <trkpt lat="48.08388" lon="7.18901">
        <ele>871</ele>
        <time>2019-05-06T15:04:15Z</time>
      </trkpt>
      <trkpt lat="48.08383" lon="7.18913">
        <ele>870</ele>
        <time>2019-05-06T15:05:15Z</time>
      </trkpt>
      <trkpt lat="48.08366" lon="7.18931">
        <ele>867</ele>
        <time>2019-05-06T15:06:15Z</time>
      </trkpt>
      <trkpt lat="48.08325" lon="7.18954">
        <ele>858</ele>
        <time>2019-05-06T15:07:15Z</time>
      </trkpt>
      <trkpt lat="48.08305" lon="7.18968">
        <ele>854</ele>
        <time>2019-05-06T15:08:15Z</time>
      </trkpt>
      <trkpt lat="48.08278" lon="7.18996">
        <ele>852</ele>
        <time>2019-05-06T15:09:15Z</time>
      </trkpt>
      <trkpt lat="48.08283" lon="7.18983">
        <ele>850</ele>
        <time>2019-05-06T15:10:15Z</time>
      </trkpt>
      <trkpt lat="48.0831" lon="7.1896">
        <ele>854</ele>
        <time>2019-05-06T15:11:15Z</time>
      </trkpt>
      <trkpt lat="48.08344" lon="7.18922">
        <ele>857</ele>
        <time>2019-05-06T15:12:15Z</time>
      </trkpt>
      <trkpt lat="48.08352" lon="7.1891">
        <ele>858</ele>
        <time>2019-05-06T15:13:15Z</time>
      </trkpt>
      <trkpt lat="48.08358" lon="7.18895">
        <ele>859</ele>
        <time>2019-05-06T15:14:15Z</time>
      </trkpt>
      <trkpt lat="48.0837" lon="7.1885">
        <ele>859</ele>
        <time>2019-05-06T15:15:15Z</time>
      </trkpt>
      <trkpt lat="48.08378" lon="7.18769">
        <ele>857</ele>
        <time>2019-05-06T15:16:15Z</time>
      </trkpt>
      <trkpt lat="48.08391" lon="7.18713">
        <ele>864</ele>
        <time>2019-05-06T15:17:15Z</time>
      </trkpt>
      <trkpt lat="48.08391" lon="7.18664">
        <ele>866</ele>
        <time>2019-05-06T15:18:15Z</time>
      </trkpt>
      <trkpt lat="48.08374" lon="7.18588">
        <ele>870</ele>
        <time>2019-05-06T15:19:15Z</time>
      </trkpt>
      <trkpt lat="48.08355" lon="7.1853">
        <ele>871</ele>
        <time>2019-05-06T15:20:15Z</time>
      </trkpt>
      <trkpt lat="48.08334" lon="7.18479">
        <ele>871</ele>
        <time>2019-05-06T15:21:15Z</time>
      </trkpt>
      <trkpt lat="48.08321" lon="7.18457">
        <ele>870</ele>
        <time>2019-05-06T15:22:15Z</time>
      </trkpt>
      <trkpt lat="48.08287" lon="7.18382">
        <ele>868</ele>
        <time>2019-05-06T15:23:15Z</time>
      </trkpt>
      <trkpt lat="48.08263" lon="7.1827">
        <ele>873</ele>
        <time>2019-05-06T15:24:15Z</time>
      </trkpt>
      <trkpt lat="48.08253" lon="7.18211">
        <ele>880</ele>
        <time>2019-05-06T15:25:15Z</time>
      </trkpt>
      <trkpt lat="48.08243" lon="7.18202">
        <ele>878</ele>
        <time>2019-05-06T15:26:15Z</time>
      </trkpt>
      <trkpt lat="48.08236" lon="7.18191">
        <ele>878</ele>
        <time>2019-05-06T15:27:15Z</time>
      </trkpt>
      <trkpt lat="48.08249" lon="7.18211">
        <ele>878</ele>
        <time>2019-05-06T15:28:15Z</time>
      </trkpt>
      <trkpt lat="48.08253" lon="7.18224">
        <ele>877</ele>
        <time>2019-05-06T15:29:15Z</time>
      </trkpt>
      <trkpt lat="48.0825" lon="7.18238">
        <ele>873</ele>
        <time>2019-05-06T15:30:15Z</time>
      </trkpt>
      <trkpt lat="48.08222" lon="7.18184">
        <ele>873</ele>
        <time>2019-05-06T15:31:15Z</time>
      </trkpt>
      <trkpt lat="48.08204" lon="7.1816">
        <ele>871</ele>
        <time>2019-05-06T15:32:15Z</time>
      </trkpt>
      <trkpt lat="48.08175" lon="7.18129">
        <ele>868</ele>
        <time>2019-05-06T15:33:15Z</time>
      </trkpt>
      <trkpt lat="48.08129" lon="7.18092">
        <ele>863</ele>
        <time>2019-05-06T15:34:15Z</time>
      </trkpt>
      <trkpt lat="48.0809" lon="7.18072">
        <ele>858</ele>
        <time>2019-05-06T15:35:15Z</time>
      </trkpt>
      <trkpt lat="48.08037" lon="7.18053">
        <ele>861</ele>
        <time>2019-05-06T15:36:15Z</time>
      </trkpt>
      <trkpt lat="48.08025" lon="7.18051">
        <ele>860</ele>
        <time>2019-05-06T15:37:15Z</time>
      </trkpt>
      <trkpt lat="48.0801" lon="7.18053">
        <ele>858</ele>
        <time>2019-05-06T15:38:15Z</time>
      </trkpt>
      <trkpt lat="48.07939" lon="7.1807">
        <ele>851</ele>
        <time>2019-05-06T15:39:15Z</time>
      </trkpt>
      <trkpt lat="48.07895" lon="7.18069">
        <ele>848</ele>
        <time>2019-05-06T15:40:15Z</time>
      </trkpt>
      <trkpt lat="48.07865" lon="7.18065">
        <ele>846</ele>
        <time>2019-05-06T15:41:15Z</time>
      </trkpt>
      <trkpt lat="48.07837" lon="7.18074">
        <ele>842</ele>
        <time>2019-05-06T15:42:15Z</time>
      </trkpt>
      <trkpt lat="48.07811" lon="7.18089">
        <ele>836</ele>
        <time>2019-05-06T15:43:15Z</time>
      </trkpt>
      <trkpt lat="48.07786" lon="7.18089">
        <ele>833</ele>
        <time>2019-05-06T15:44:15Z</time>
      </trkpt>
      <trkpt lat="48.07763" lon="7.18081">
        <ele>831</ele>
        <time>2019-05-06T15:45:15Z</time>
      </trkpt>
      <trkpt lat="48.07751" lon="7.18073">
        <ele>831</ele>
        <time>2019-05-06T15:46:15Z</time>
      </trkpt>
      <trkpt lat="48.07721" lon="7.18042">
        <ele>830</ele>
        <time>2019-05-06T15:47:15Z</time>
      </trkpt>
      <trkpt lat="48.07693" lon="7.18002">
        <ele>830</ele>
        <time>2019-05-06T15:48:15Z</time>
      </trkpt>
      <trkpt lat="48.07674" lon="7.1798">
        <ele>829</ele>
        <time>2019-05-06T15:49:15Z</time>
      </trkpt>
      <trkpt lat="48.07666" lon="7.17965">
        <ele>830</ele>
        <time>2019-05-06T15:50:15Z</time>
      </trkpt>
      <trkpt lat="48.07633" lon="7.17871">
        <ele>831</ele>
        <time>2019-05-06T15:51:15Z</time>
      </trkpt>
      <trkpt lat="48.0763" lon="7.17856">
        <ele>831</ele>
        <time>2019-05-06T15:52:15Z</time>
      </trkpt>
      <trkpt lat="48.07629" lon="7.1782">
        <ele>831</ele>
        <time>2019-05-06T15:53:15Z</time>
      </trkpt>
      <trkpt lat="48.0765" lon="7.17719">
        <ele>830</ele>
        <time>2019-05-06T15:54:15Z</time>
      </trkpt>
      <trkpt lat="48.07651" lon="7.17644">
        <ele>826</ele>
        <time>2019-05-06T15:55:15Z</time>
      </trkpt>
      <trkpt lat="48.0766" lon="7.17577">
        <ele>825</ele>
        <time>2019-05-06T15:56:15Z</time>
      </trkpt>
      <trkpt lat="48.07675" lon="7.17535">
        <ele>825</ele>
        <time>2019-05-06T15:57:15Z</time>
      </trkpt>
      <trkpt lat="48.07691" lon="7.17506">
        <ele>826</ele>
        <time>2019-05-06T15:58:15Z</time>
      </trkpt>
      <trkpt lat="48.07728" lon="7.17458">
        <ele>833</ele>
        <time>2019-05-06T15:59:15Z</time>
      </trkpt>
      <trkpt lat="48.07739" lon="7.17431">
        <ele>834</ele>
        <time>2019-05-06T16:00:15Z</time>
      </trkpt>
      <trkpt lat="48.07747" lon="7.17403">
        <ele>835</ele>
        <time>2019-05-06T16:01:15Z</time>
      </trkpt>
      <trkpt lat="48.07759" lon="7.17377">
        <ele>840</ele>
        <time>2019-05-06T16:02:15Z</time>
      </trkpt>
      <trkpt lat="48.07763" lon="7.17363">
        <ele>841</ele>
        <time>2019-05-06T16:03:15Z</time>
      </trkpt>
      <trkpt lat="48.07764" lon="7.17348">
        <ele>841</ele>
        <time>2019-05-06T16:04:15Z</time>
      </trkpt>
      <trkpt lat="48.07735" lon="7.17269">
        <ele>837</ele>
        <time>2019-05-06T16:05:15Z</time>
      </trkpt>
      <trkpt lat="48.07711" lon="7.17194">
        <ele>839</ele>
        <time>2019-05-06T16:06:15Z</time>
      </trkpt>
      <trkpt lat="48.07703" lon="7.17179">
        <ele>838</ele>
        <time>2019-05-06T16:07:15Z</time>
      </trkpt>
      <trkpt lat="48.07698" lon="7.17162">
        <ele>839</ele>
        <time>2019-05-06T16:08:15Z</time>
      </trkpt>
      <trkpt lat="48.07696" lon="7.17131">
        <ele>843</ele>
        <time>2019-05-06T16:09:15Z</time>
      </trkpt>
      <trkpt lat="48.0769" lon="7.17115">
        <ele>843</ele>
        <time>2019-05-06T16:10:15Z</time>
      </trkpt>
      <trkpt lat="48.07655" lon="7.1705">
        <ele>840</ele>
        <time>2019-05-06T16:11:15Z</time>
      </trkpt>
      <trkpt lat="48.0765" lon="7.17034">
        <ele>841</ele>
        <time>2019-05-06T16:12:15Z</time>
      </trkpt>
      <trkpt lat="48.07639" lon="7.16983">
        <ele>844</ele>
        <time>2019-05-06T16:13:15Z</time>
      </trkpt>
      <trkpt lat="48.0763" lon="7.16875">
        <ele>847</ele>
        <time>2019-05-06T16:14:15Z</time>
      </trkpt>
      <trkpt lat="48.07623" lon="7.16845">
        <ele>846</ele>
        <time>2019-05-06T16:15:15Z</time>
      </trkpt>
      <trkpt lat="48.07608" lon="7.1675">
        <ele>849</ele>
        <time>2019-05-06T16:16:15Z</time>
      </trkpt>
      <trkpt lat="48.07594" lon="7.16718">
        <ele>849</ele>
        <time>2019-05-06T16:17:15Z</time>
      </trkpt>
      <trkpt lat="48.07577" lon="7.16692">
        <ele>849</ele>
        <time>2019-05-06T16:18:15Z</time>
      </trkpt>
      <trkpt lat="48.07557" lon="7.16654">
        <ele>850</ele>
        <time>2019-05-06T16:19:15Z</time>
      </trkpt>
      <trkpt lat="48.07541" lon="7.16614">
        <ele>851</ele>
        <time>2019-05-06T16:20:15Z</time>
      </trkpt>
      <trkpt lat="48.07533" lon="7.16584">
        <ele>853</ele>
        <time>2019-05-06T16:21:15Z</time>
      </trkpt>
      <trkpt lat="48.07503" lon="7.16518">
        <ele>852</ele>
        <time>2019-05-06T16:22:15Z</time>
      </trkpt>
      <trkpt lat="48.0749" lon="7.16476">
        <ele>853</ele>
        <time>2019-05-06T16:23:15Z</time>
      </trkpt>
      <trkpt lat="48.0748" lon="7.16431">
        <ele>854</ele>
        <time>2019-05-06T16:24:15Z</time>
      </trkpt>
      <trkpt lat="48.07472" lon="7.16388">
        <ele>855</ele>
        <time>2019-05-06T16:25:15Z</time>
      </trkpt>
      <trkpt lat="48.07466" lon="7.16326">
        <ele>856</ele>
        <time>2019-05-06T16:26:15Z</time>
      </trkpt>
      <trkpt lat="48.07471" lon="7.16297">
        <ele>856</ele>
        <time>2019-05-06T16:27:15Z</time>
      </trkpt>
      <trkpt lat="48.07483" lon="7.16266">
        <ele>856</ele>
        <time>2019-05-06T16:28:15Z</time>
      </trkpt>
      <trkpt lat="48.07509" lon="7.16232">
        <ele>856</ele>
        <time>2019-05-06T16:29:15Z</time>
      </trkpt>
      <trkpt lat="48.07527" lon="7.16214">
        <ele>857</ele>
        <time>2019-05-06T16:30:15Z</time>
      </trkpt>
      <trkpt lat="48.07541" lon="7.16193">
        <ele>857</ele>
        <time>2019-05-06T16:31:15Z</time>
      </trkpt>
      <trkpt lat="48.07597" lon="7.16145">
        <ele>860</ele>
        <time>2019-05-06T16:32:15Z</time>
      </trkpt>
      <trkpt lat="48.07617" lon="7.16131">
        <ele>861</ele>
        <time>2019-05-06T16:33:15Z</time>
      </trkpt>
      <trkpt lat="48.07659" lon="7.16113">
        <ele>865</ele>
        <time>2019-05-06T16:34:15Z</time>
      </trkpt>
      <trkpt lat="48.07669" lon="7.16106">
        <ele>866</ele>
        <time>2019-05-06T16:35:15Z</time>
      </trkpt>
      <trkpt lat="48.07686" lon="7.16088">
        <ele>868</ele>
        <time>2019-05-06T16:36:15Z</time>
      </trkpt>
      <trkpt lat="48.077" lon="7.16063">
        <ele>869</ele>
        <time>2019-05-06T16:37:15Z</time>
      </trkpt>
      <trkpt lat="48.07725" lon="7.15977">
        <ele>870</ele>
        <time>2019-05-06T16:38:15Z</time>
      </trkpt>
      <trkpt lat="48.07739" lon="7.15903">
        <ele>876</ele>
        <time>2019-05-06T16:39:15Z</time>
      </trkpt>
      <trkpt lat="48.07739" lon="7.15856">
        <ele>881</ele>
        <time>2019-05-06T16:40:15Z</time>
      </trkpt>
      <trkpt lat="48.07736" lon="7.1584">
        <ele>881</ele>
        <time>2019-05-06T16:41:15Z</time>
      </trkpt>
      <trkpt lat="48.07734" lon="7.15777">
        <ele>883</ele>
        <time>2019-05-06T16:42:15Z</time>
      </trkpt>
      <trkpt lat="48.07735" lon="7.15749">
        <ele>886</ele>
        <time>2019-05-06T16:43:15Z</time>
      </trkpt>
      <trkpt lat="48.0772" lon="7.15667">
        <ele>889</ele>
        <time>2019-05-06T16:44:15Z</time>
      </trkpt>
      <trkpt lat="48.07707" lon="7.15623">
        <ele>890</ele>
        <time>2019-05-06T16:45:15Z</time>
      </trkpt>
      <trkpt lat="48.07684" lon="7.15577">
        <ele>888</ele>
        <time>2019-05-06T16:46:15Z</time>
      </trkpt>
      <trkpt lat="48.07676" lon="7.15569">
        <ele>886</ele>
        <time>2019-05-06T16:47:15Z</time>
      </trkpt>
      <trkpt lat="48.07662" lon="7.15541">
        <ele>884</ele>
        <time>2019-05-06T16:48:15Z</time>
      </trkpt>
      <trkpt lat="48.07647" lon="7.15498">
        <ele>884</ele>
        <time>2019-05-06T16:49:15Z</time>
      </trkpt>
      <trkpt lat="48.07637" lon="7.15452">
        <ele>882</ele>
        <time>2019-05-06T16:50:15Z</time>
      </trkpt>
      <trkpt lat="48.07638" lon="7.15421">
        <ele>883</ele>
        <time>2019-05-06T16:51:15Z</time>
      </trkpt>
      <trkpt lat="48.07643" lon="7.15387">
        <ele>882</ele>
        <time>2019-05-06T16:52:15Z</time>
      </trkpt>
      <trkpt lat="48.07651" lon="7.15357">
        <ele>882</ele>
        <time>2019-05-06T16:53:15Z</time>
      </trkpt>
      <trkpt lat="48.07674" lon="7.15306">
        <ele>886</ele>
        <time>2019-05-06T16:54:15Z</time>
      </trkpt>
      <trkpt lat="48.07694" lon="7.15197">
        <ele>883</ele>
        <time>2019-05-06T16:55:15Z</time>
      </trkpt>
      <trkpt lat="48.07695" lon="7.15184">
        <ele>882</ele>
        <time>2019-05-06T16:56:15Z</time>
      </trkpt>
      <trkpt lat="48.07691" lon="7.15132">
        <ele>880</ele>
        <time>2019-05-06T16:57:15Z</time>
      </trkpt>
      <trkpt lat="48.07684" lon="7.15084">
        <ele>879</ele>
        <time>2019-05-06T16:58:15Z</time>
      </trkpt>
      <trkpt lat="48.07676" lon="7.15069">
        <ele>877</ele>
        <time>2019-05-06T16:59:15Z</time>
      </trkpt>
      <trkpt lat="48.07618" lon="7.14998">
        <ele>869</ele>
        <time>2019-05-06T17:00:15Z</time>
      </trkpt>
      <trkpt lat="48.07588" lon="7.14972">
        <ele>871</ele>
        <time>2019-05-06T17:01:15Z</time>
      </trkpt>
      <trkpt lat="48.07536" lon="7.1492">
        <ele>876</ele>
        <time>2019-05-06T17:02:15Z</time>
      </trkpt>
      <trkpt lat="48.07476" lon="7.14869">
        <ele>869</ele>
        <time>2019-05-06T17:03:15Z</time>
      </trkpt>
      <trkpt lat="48.07465" lon="7.14856">
        <ele>869</ele>
        <time>2019-05-06T17:04:15Z</time>
      </trkpt>
      <trkpt lat="48.07433" lon="7.14812">
        <ele>865</ele>
        <time>2019-05-06T17:05:15Z</time>
      </trkpt>
      <trkpt lat="48.07424" lon="7.14796">
        <ele>863</ele>
        <time>2019-05-06T17:06:15Z</time>
      </trkpt>
      <trkpt lat="48.07408" lon="7.1476">
        <ele>860</ele>
        <time>2019-05-06T17:07:15Z</time>
      </trkpt>
      <trkpt lat="48.07405" lon="7.1474">
        <ele>858</ele>
        <time>2019-05-06T17:08:15Z</time>
      </trkpt>
      <trkpt lat="48.07409" lon="7.14701">
        <ele>858</ele>
        <time>2019-05-06T17:09:15Z</time>
      </trkpt>
      <trkpt lat="48.0744" lon="7.14637">
        <ele>861</ele>
        <time>2019-05-06T17:10:15Z</time>
      </trkpt>
      <trkpt lat="48.07444" lon="7.14618">
        <ele>859</ele>
        <time>2019-05-06T17:11:15Z</time>
      </trkpt>
      <trkpt lat="48.07455" lon="7.14586">
        <ele>857</ele>
        <time>2019-05-06T17:12:15Z</time>
      </trkpt>
      <trkpt lat="48.07473" lon="7.14498">
        <ele>852</ele>
        <time>2019-05-06T17:13:15Z</time>
      </trkpt>
      <trkpt lat="48.07495" lon="7.14454">
        <ele>854</ele>
        <time>2019-05-06T17:14:15Z</time>
      </trkpt>
      <trkpt lat="48.07508" lon="7.14401">
        <ele>851</ele>
        <time>2019-05-06T17:15:15Z</time>
      </trkpt>
      <trkpt lat="48.07566" lon="7.14276">
        <ele>856</ele>
        <time>2019-05-06T17:16:15Z</time>
      </trkpt>
      <trkpt lat="48.07573" lon="7.14238">
        <ele>857</ele>
        <time>2019-05-06T17:17:15Z</time>
      </trkpt>
      <trkpt lat="48.07571" lon="7.1422">
        <ele>858</ele>
        <time>2019-05-06T17:18:15Z</time>
      </trkpt>
      <trkpt lat="48.0756" lon="7.1419">
        <ele>856</ele>
        <time>2019-05-06T17:19:15Z</time>
      </trkpt>
      <trkpt lat="48.0755" lon="7.14175">
        <ele>854</ele>
        <time>2019-05-06T17:20:15Z</time>
      </trkpt>
      <trkpt lat="48.07525" lon="7.14148">
        <ele>852</ele>
        <time>2019-05-06T17:21:15Z</time>
      </trkpt>
      <trkpt lat="48.0751" lon="7.14138">
        <ele>850</ele>
        <time>2019-05-06T17:22:15Z</time>
      </trkpt>
      <trkpt lat="48.07495" lon="7.14133">
        <ele>847</ele>
        <time>2019-05-06T17:23:15Z</time>
      </trkpt>
      <trkpt lat="48.07457" lon="7.14132">
        <ele>840</ele>
        <time>2019-05-06T17:24:15Z</time>
      </trkpt>
      <trkpt lat="48.07416" lon="7.14127">
        <ele>833</ele>
        <time>2019-05-06T17:25:15Z</time>
      </trkpt>
      <trkpt lat="48.07403" lon="7.14121">
        <ele>831</ele>
        <time>2019-05-06T17:26:15Z</time>
      </trkpt>
      <trkpt lat="48.07394" lon="7.14112">
        <ele>830</ele>
        <time>2019-05-06T17:27:15Z</time>
      </trkpt>
      <trkpt lat="48.07389" lon="7.141">
        <ele>830</ele>
        <time>2019-05-06T17:28:15Z</time>
      </trkpt>
      <trkpt lat="48.07391" lon="7.14071">
        <ele>832</ele>
        <time>2019-05-06T17:29:15Z</time>
      </trkpt>
      <trkpt lat="48.07409" lon="7.14024">
        <ele>835</ele>
        <time>2019-05-06T17:30:15Z</time>
      </trkpt>
      <trkpt lat="48.07416" lon="7.13995">
        <ele>836</ele>
        <time>2019-05-06T17:31:15Z</time>
      </trkpt>
      <trkpt lat="48.07424" lon="7.13932">
        <ele>835</ele>
        <time>2019-05-06T17:32:15Z</time>
      </trkpt>
      <trkpt lat="48.07453" lon="7.13823">
        <ele>841</ele>
        <time>2019-05-06T17:33:15Z</time>
      </trkpt>
      <trkpt lat="48.07454" lon="7.13807">
        <ele>842</ele>
        <time>2019-05-06T17:34:15Z</time>
      </trkpt>
      <trkpt lat="48.07448" lon="7.13778">
        <ele>843</ele>
        <time>2019-05-06T17:35:15Z</time>
      </trkpt>
      <trkpt lat="48.07439" lon="7.13768">
        <ele>842</ele>
        <time>2019-05-06T17:36:15Z</time>
      </trkpt>
      <trkpt lat="48.07397" lon="7.13743">
        <ele>838</ele>
        <time>2019-05-06T17:37:15Z</time>
      </trkpt>
      <trkpt lat="48.07365" lon="7.13727">
        <ele>837</ele>
        <time>2019-05-06T17:38:15Z</time>
      </trkpt>
      <trkpt lat="48.07324" lon="7.13691">
        <ele>837</ele>
        <time>2019-05-06T17:39:15Z</time>
      </trkpt>
      <trkpt lat="48.07294" lon="7.13656">
        <ele>836</ele>
        <time>2019-05-06T17:40:15Z</time>
      </trkpt>
      <trkpt lat="48.07286" lon="7.13641">
        <ele>837</ele>
        <time>2019-05-06T17:41:15Z</time>
      </trkpt>
      <trkpt lat="48.07259" lon="7.13604">
        <ele>835</ele>
        <time>2019-05-06T17:42:15Z</time>
      </trkpt>
      <trkpt lat="48.07224" lon="7.13539">
        <ele>840</ele>
        <time>2019-05-06T17:43:15Z</time>
      </trkpt>
      <trkpt lat="48.07213" lon="7.13525">
        <ele>841</ele>
        <time>2019-05-06T17:44:15Z</time>
      </trkpt>
      <trkpt lat="48.07199" lon="7.13516">
        <ele>840</ele>
        <time>2019-05-06T17:45:15Z</time>
      </trkpt>
      <trkpt lat="48.07141" lon="7.13493">
        <ele>837</ele>
        <time>2019-05-06T17:46:15Z</time>
      </trkpt>
      <trkpt lat="48.0711" lon="7.13485">
        <ele>836</ele>
        <time>2019-05-06T17:47:15Z</time>
      </trkpt>
      <trkpt lat="48.0706" lon="7.13488">
        <ele>830</ele>
        <time>2019-05-06T17:48:15Z</time>
      </trkpt>
      <trkpt lat="48.07044" lon="7.13486">
        <ele>829</ele>
        <time>2019-05-06T17:49:15Z</time>
      </trkpt>
      <trkpt lat="48.07016" lon="7.13477">
        <ele>830</ele>
        <time>2019-05-06T17:50:15Z</time>
      </trkpt>
      <trkpt lat="48.06991" lon="7.13463">
        <ele>832</ele>
        <time>2019-05-06T17:51:15Z</time>
      </trkpt>
      <trkpt lat="48.06966" lon="7.13456">
        <ele>834</ele>
        <time>2019-05-06T17:52:15Z</time>
      </trkpt>
      <trkpt lat="48.06943" lon="7.13454">
        <ele>833</ele>
        <time>2019-05-06T17:53:15Z</time>
      </trkpt>
      <trkpt lat="48.06919" lon="7.13455">
        <ele>832</ele>
        <time>2019-05-06T17:54:15Z</time>
      </trkpt>
      <trkpt lat="48.06897" lon="7.13464">
        <ele>830</ele>
        <time>2019-05-06T17:55:15Z</time>
      </trkpt>
      <trkpt lat="48.06871" lon="7.1349">
        <ele>825</ele>
        <time>2019-05-06T17:56:15Z</time>
      </trkpt>
      <trkpt lat="48.06842" lon="7.13509">
        <ele>823</ele>
        <time>2019-05-06T17:57:15Z</time>
      </trkpt>
      <trkpt lat="48.06832" lon="7.13514">
        <ele>823</ele>
        <time>2019-05-06T17:58:15Z</time>
      </trkpt>
      <trkpt lat="48.06799" lon="7.13523">
        <ele>826</ele>
        <time>2019-05-06T17:59:15Z</time>
      </trkpt>
      <trkpt lat="48.06778" lon="7.13534">
        <ele>827</ele>
        <time>2019-05-06T18:00:15Z</time>
      </trkpt>
      <trkpt lat="48.0677" lon="7.13543">
        <ele>827</ele>
        <time>2019-05-06T18:01:15Z</time>
      </trkpt>
      <trkpt lat="48.06757" lon="7.13572">
        <ele>825</ele>
        <time>2019-05-06T18:02:15Z</time>
      </trkpt>
      <trkpt lat="48.06746" lon="7.13634">
        <ele>820</ele>
        <time>2019-05-06T18:03:15Z</time>
      </trkpt>
      <trkpt lat="48.06738" lon="7.13665">
        <ele>818</ele>
        <time>2019-05-06T18:04:15Z</time>
      </trkpt>
      <trkpt lat="48.06726" lon="7.13691">
        <ele>815</ele>
        <time>2019-05-06T18:05:15Z</time>
      </trkpt>
      <trkpt lat="48.06708" lon="7.13716">
        <ele>813</ele>
        <time>2019-05-06T18:06:15Z</time>
      </trkpt>
      <trkpt lat="48.0662" lon="7.13799">
        <ele>804</ele>
        <time>2019-05-06T18:07:15Z</time>
      </trkpt>
      <trkpt lat="48.06625" lon="7.13788">
        <ele>805</ele>
        <time>2019-05-06T18:08:15Z</time>
      </trkpt>
      <trkpt lat="48.0662" lon="7.13761">
        <ele>804</ele>
        <time>2019-05-06T18:09:15Z</time>
      </trkpt>
      <trkpt lat="48.06608" lon="7.13733">
        <ele>804</ele>
        <time>2019-05-06T18:10:15Z</time>
      </trkpt>
      <trkpt lat="48.066" lon="7.13703">
        <ele>805</ele>
        <time>2019-05-06T18:11:15Z</time>
      </trkpt>
      <trkpt lat="48.06596" lon="7.13675">
        <ele>806</ele>
        <time>2019-05-06T18:12:15Z</time>
      </trkpt>
      <trkpt lat="48.06599" lon="7.13643">
        <ele>806</ele>
        <time>2019-05-06T18:13:15Z</time>
      </trkpt>
      <trkpt lat="48.06603" lon="7.13631">
        <ele>807</ele>
        <time>2019-05-06T18:14:15Z</time>
      </trkpt>
      <trkpt lat="48.06618" lon="7.13592">
        <ele>810</ele>
        <time>2019-05-06T18:15:15Z</time>
      </trkpt>
      <trkpt lat="48.06636" lon="7.13559">
        <ele>812</ele>
        <time>2019-05-06T18:16:15Z</time>
      </trkpt>
      <trkpt lat="48.06666" lon="7.1354">
        <ele>821</ele>
        <time>2019-05-06T18:17:15Z</time>
      </trkpt>
      <trkpt lat="48.06685" lon="7.13539">
        <ele>823</ele>
        <time>2019-05-06T18:18:15Z</time>
      </trkpt>
      <trkpt lat="48.06704" lon="7.13527">
        <ele>825</ele>
        <time>2019-05-06T18:19:15Z</time>
      </trkpt>
      <trkpt lat="48.06724" lon="7.13471">
        <ele>833</ele>
        <time>2019-05-06T18:20:15Z</time>
      </trkpt>
      <trkpt lat="48.06721" lon="7.13458">
        <ele>835</ele>
        <time>2019-05-06T18:21:15Z</time>
      </trkpt>
      <trkpt lat="48.06706" lon="7.13436">
        <ele>835</ele>
        <time>2019-05-06T18:22:15Z</time>
      </trkpt>
      <trkpt lat="48.06682" lon="7.13414">
        <ele>831</ele>
        <time>2019-05-06T18:23:15Z</time>
      </trkpt>
      <trkpt lat="48.06665" lon="7.13388">
        <ele>829</ele>
        <time>2019-05-06T18:24:15Z</time>
      </trkpt>
      <trkpt lat="48.06647" lon="7.13368">
        <ele>823</ele>
        <time>2019-05-06T18:25:15Z</time>
      </trkpt>
      <trkpt lat="48.0664" lon="7.13354">
        <ele>821</ele>
        <time>2019-05-06T18:26:15Z</time>
      </trkpt>
      <trkpt lat="48.06634" lon="7.13315">
        <ele>821</ele>
        <time>2019-05-06T18:27:15Z</time>
      </trkpt>
      <trkpt lat="48.06629" lon="7.13249">
        <ele>820</ele>
        <time>2019-05-06T18:28:15Z</time>
      </trkpt>
      <trkpt lat="48.06637" lon="7.13196">
        <ele>823</ele>
        <time>2019-05-06T18:29:15Z</time>
      </trkpt>
      <trkpt lat="48.0665" lon="7.13151">
        <ele>827</ele>
        <time>2019-05-06T18:30:15Z</time>
      </trkpt>
      <trkpt lat="48.06654" lon="7.13121">
        <ele>827</ele>
        <time>2019-05-06T18:31:15Z</time>
      </trkpt>
      <trkpt lat="48.06653" lon="7.13034">
        <ele>823</ele>
        <time>2019-05-06T18:32:15Z</time>
      </trkpt>
      <trkpt lat="48.0666" lon="7.1297">
        <ele>821</ele>
        <time>2019-05-06T18:33:15Z</time>
      </trkpt>
      <trkpt lat="48.06664" lon="7.12952">
        <ele>821</ele>
        <time>2019-05-06T18:34:15Z</time>
      </trkpt>
      <trkpt lat="48.06682" lon="7.12909">
        <ele>822</ele>
        <time>2019-05-06T18:35:15Z</time>
      </trkpt>
      <trkpt lat="48.06704" lon="7.12871">
        <ele>824</ele>
        <time>2019-05-06T18:36:15Z</time>
      </trkpt>
      <trkpt lat="48.06729" lon="7.12812">
        <ele>825</ele>
        <time>2019-05-06T18:37:15Z</time>
      </trkpt>
      <trkpt lat="48.06736" lon="7.12776">
        <ele>824</ele>
        <time>2019-05-06T18:38:15Z</time>
      </trkpt>
      <trkpt lat="48.06736" lon="7.12743">
        <ele>822</ele>
        <time>2019-05-06T18:39:15Z</time>
      </trkpt>
      <trkpt lat="48.06743" lon="7.12734">
        <ele>823</ele>
        <time>2019-05-06T18:40:15Z</time>
      </trkpt>
      <trkpt lat="48.06746" lon="7.1272">
        <ele>824</ele>
        <time>2019-05-06T18:41:15Z</time>
      </trkpt>
      <trkpt lat="48.06745" lon="7.12677">
        <ele>821</ele>
        <time>2019-05-06T18:42:15Z</time>
      </trkpt>
      <trkpt lat="48.06734" lon="7.12632">
        <ele>819</ele>
        <time>2019-05-06T18:43:15Z</time>
      </trkpt>
      <trkpt lat="48.06736" lon="7.12616">
        <ele>819</ele>
        <time>2019-05-06T18:44:15Z</time>
      </trkpt>
      <trkpt lat="48.06777" lon="7.12604">
        <ele>824</ele>
        <time>2019-05-06T18:45:15Z</time>
      </trkpt>
      <trkpt lat="48.06806" lon="7.12586">
        <ele>828</ele>
        <time>2019-05-06T18:46:15Z</time>
      </trkpt>
      <trkpt lat="48.06822" lon="7.12567">
        <ele>829</ele>
        <time>2019-05-06T18:47:15Z</time>
      </trkpt>
      <trkpt lat="48.06835" lon="7.12541">
        <ele>829</ele>
        <time>2019-05-06T18:48:15Z</time>
      </trkpt>
      <trkpt lat="48.06855" lon="7.12539">
        <ele>829</ele>
        <time>2019-05-06T18:49:15Z</time>
      </trkpt>
      <trkpt lat="48.06899" lon="7.12576">
        <ele>833</ele>
        <time>2019-05-06T18:50:15Z</time>
      </trkpt>
      <trkpt lat="48.06915" lon="7.12599">
        <ele>835</ele>
        <time>2019-05-06T18:51:15Z</time>
      </trkpt>
      <trkpt lat="48.06946" lon="7.12636">
        <ele>837</ele>
        <time>2019-05-06T18:52:15Z</time>
      </trkpt>
      <trkpt lat="48.06982" lon="7.12672">
        <ele>840</ele>
        <time>2019-05-06T18:53:15Z</time>
      </trkpt>
      <trkpt lat="48.06999" lon="7.12684">
        <ele>842</ele>
        <time>2019-05-06T18:54:15Z</time>
      </trkpt>
      <trkpt lat="48.07026" lon="7.12692">
        <ele>844</ele>
        <time>2019-05-06T18:55:15Z</time>
      </trkpt>
      <trkpt lat="48.07071" lon="7.12699">
        <ele>846</ele>
        <time>2019-05-06T18:56:15Z</time>
      </trkpt>
      <trkpt lat="48.0709" lon="7.12707">
        <ele>848</ele>
        <time>2019-05-06T18:57:15Z</time>
      </trkpt>
      <trkpt lat="48.07099" lon="7.12715">
        <ele>850</ele>
        <time>2019-05-06T18:58:15Z</time>
      </trkpt>
      <trkpt lat="48.07109" lon="7.12719">
        <ele>850</ele>
        <time>2019-05-06T18:59:15Z</time>
      </trkpt>
      <trkpt lat="48.07154" lon="7.12724">
        <ele>851</ele>
        <time>2019-05-06T19:00:15Z</time>
      </trkpt>
      <trkpt lat="48.07175" lon="7.12734">
        <ele>854</ele>
        <time>2019-05-06T19:01:15Z</time>
      </trkpt>
      <trkpt lat="48.07216" lon="7.12746">
        <ele>859</ele>
        <time>2019-05-06T19:02:15Z</time>
      </trkpt>
      <trkpt lat="48.07237" lon="7.12756">
        <ele>863</ele>
        <time>2019-05-06T19:03:15Z</time>
      </trkpt>
      <trkpt lat="48.07267" lon="7.12761">
        <ele>869</ele>
        <time>2019-05-06T19:04:15Z</time>
      </trkpt>
      <trkpt lat="48.0732" lon="7.1275">
        <ele>876</ele>
        <time>2019-05-06T19:05:15Z</time>
      </trkpt>
      <trkpt lat="48.07349" lon="7.12748">
        <ele>881</ele>
        <time>2019-05-06T19:06:15Z</time>
      </trkpt>
      <trkpt lat="48.07367" lon="7.12741">
        <ele>882</ele>
        <time>2019-05-06T19:07:15Z</time>
      </trkpt>
      <trkpt lat="48.07388" lon="7.1274">
        <ele>884</ele>
        <time>2019-05-06T19:08:15Z</time>
      </trkpt>
      <trkpt lat="48.07399" lon="7.12736">
        <ele>885</ele>
        <time>2019-05-06T19:09:15Z</time>
      </trkpt>
      <trkpt lat="48.07429" lon="7.12739">
        <ele>889</ele>
        <time>2019-05-06T19:10:15Z</time>
      </trkpt>
      <trkpt lat="48.07438" lon="7.12737">
        <ele>888</ele>
        <time>2019-05-06T19:11:15Z</time>
      </trkpt>
      <trkpt lat="48.07469" lon="7.12737">
        <ele>889</ele>
        <time>2019-05-06T19:12:15Z</time>
      </trkpt>
      <trkpt lat="48.07511" lon="7.12756">
        <ele>896</ele>
        <time>2019-05-06T19:13:15Z</time>
      </trkpt>
      <trkpt lat="48.07521" lon="7.12756">
        <ele>896</ele>
        <time>2019-05-06T19:14:15Z</time>
      </trkpt>
      <trkpt lat="48.0754" lon="7.12762">
        <ele>898</ele>
        <time>2019-05-06T19:15:15Z</time>
      </trkpt>
      <trkpt lat="48.07549" lon="7.12761">
        <ele>897</ele>
        <time>2019-05-06T19:16:15Z</time>
      </trkpt>
      <trkpt lat="48.0758" lon="7.12766">
        <ele>899</ele>
        <time>2019-05-06T19:17:15Z</time>
      </trkpt>
      <trkpt lat="48.07597" lon="7.12787">
        <ele>905</ele>
        <time>2019-05-06T19:18:15Z</time>
      </trkpt>
      <trkpt lat="48.07616" lon="7.12797">
        <ele>909</ele>
        <time>2019-05-06T19:19:15Z</time>
      </trkpt>
      <trkpt lat="48.07663" lon="7.12812">
        <ele>915</ele>
        <time>2019-05-06T19:20:15Z</time>
      </trkpt>
      <trkpt lat="48.07681" lon="7.1282">
        <ele>920</ele>
        <time>2019-05-06T19:21:15Z</time>
      </trkpt>
      <trkpt lat="48.07728" lon="7.12849">
        <ele>930</ele>
        <time>2019-05-06T19:22:15Z</time>
      </trkpt>
      <trkpt lat="48.07738" lon="7.1285">
        <ele>931</ele>
        <time>2019-05-06T19:23:15Z</time>
      </trkpt>
      <trkpt lat="48.07756" lon="7.12857">
        <ele>934</ele>
        <time>2019-05-06T19:24:15Z</time>
      </trkpt>
      <trkpt lat="48.07776" lon="7.1286">
        <ele>936</ele>
        <time>2019-05-06T19:25:15Z</time>
      </trkpt>
      <trkpt lat="48.07792" lon="7.12853">
        <ele>938</ele>
        <time>2019-05-06T19:26:15Z</time>
      </trkpt>
      <trkpt lat="48.07797" lon="7.1284">
        <ele>938</ele>
        <time>2019-05-06T19:27:15Z</time>
      </trkpt>
      <trkpt lat="48.07816" lon="7.12839">
        <ele>941</ele>
        <time>2019-05-06T19:28:15Z</time>
      </trkpt>
      <trkpt lat="48.07827" lon="7.12841">
        <ele>942</ele>
        <time>2019-05-06T19:29:15Z</time>
      </trkpt>
      <trkpt lat="48.07843" lon="7.12825">
        <ele>944</ele>
        <time>2019-05-06T19:30:15Z</time>
      </trkpt>
      <trkpt lat="48.07855" lon="7.12802">
        <ele>946</ele>
        <time>2019-05-06T19:31:15Z</time>
      </trkpt>
      <trkpt lat="48.07858" lon="7.12731">
        <ele>947</ele>
        <time>2019-05-06T19:32:15Z</time>
      </trkpt>
      <trkpt lat="48.07893" lon="7.12637">
        <ele>945</ele>
        <time>2019-05-06T19:33:15Z</time>
      </trkpt>
      <trkpt lat="48.07901" lon="7.12628">
        <ele>945</ele>
        <time>2019-05-06T19:34:15Z</time>
      </trkpt>
      <trkpt lat="48.0792" lon="7.1262">
        <ele>944</ele>
        <time>2019-05-06T19:35:15Z</time>
      </trkpt>
      <trkpt lat="48.07943" lon="7.12622">
        <ele>943</ele>
        <time>2019-05-06T19:36:15Z</time>
      </trkpt>
      <trkpt lat="48.07955" lon="7.12619">
        <ele>942</ele>
        <time>2019-05-06T19:37:15Z</time>
      </trkpt>
      <trkpt lat="48.0798" lon="7.1259">
        <ele>938</ele>
        <time>2019-05-06T19:38:15Z</time>
      </trkpt>
      <trkpt lat="48.08006" lon="7.12568">
        <ele>937</ele>
        <time>2019-05-06T19:39:15Z</time>
      </trkpt>
      <trkpt lat="48.08049" lon="7.12486">
        <ele>938</ele>
        <time>2019-05-06T19:40:15Z</time>
      </trkpt>
      <trkpt lat="48.08052" lon="7.12469">
        <ele>939</ele>
        <time>2019-05-06T19:41:15Z</time>
      </trkpt>
      <trkpt lat="48.08045" lon="7.12439">
        <ele>940</ele>
        <time>2019-05-06T19:42:15Z</time>
      </trkpt>
      <trkpt lat="48.08034" lon="7.12319">
        <ele>941</ele>
        <time>2019-05-06T19:43:15Z</time>
      </trkpt>
      <trkpt lat="48.08043" lon="7.12286">
        <ele>941</ele>
        <time>2019-05-06T19:44:15Z</time>
      </trkpt>
      <trkpt lat="48.0805" lon="7.1227">
        <ele>942</ele>
        <time>2019-05-06T19:45:15Z</time>
      </trkpt>
      <trkpt lat="48.08069" lon="7.12243">
        <ele>943</ele>
        <time>2019-05-06T19:46:15Z</time>
      </trkpt>
      <trkpt lat="48.08119" lon="7.12186">
        <ele>944</ele>
        <time>2019-05-06T19:47:15Z</time>
      </trkpt>
      <trkpt lat="48.0813" lon="7.1218">
        <ele>945</ele>
        <time>2019-05-06T19:48:15Z</time>
      </trkpt>
      <trkpt lat="48.08166" lon="7.12143">
        <ele>946</ele>
        <time>2019-05-06T19:49:15Z</time>
      </trkpt>
      <trkpt lat="48.08186" lon="7.1213">
        <ele>947</ele>
        <time>2019-05-06T19:50:15Z</time>
      </trkpt>
      <trkpt lat="48.08213" lon="7.12105">
        <ele>947</ele>
        <time>2019-05-06T19:51:15Z</time>
      </trkpt>
      <trkpt lat="48.08241" lon="7.12086">
        <ele>947</ele>
        <time>2019-05-06T19:52:15Z</time>
      </trkpt>
      <trkpt lat="48.08301" lon="7.12068">
        <ele>946</ele>
        <time>2019-05-06T19:53:15Z</time>
      </trkpt>
      <trkpt lat="48.08335" lon="7.12049">
        <ele>944</ele>
        <time>2019-05-06T19:54:15Z</time>
      </trkpt>
      <trkpt lat="48.08351" lon="7.12033">
        <ele>940</ele>
        <time>2019-05-06T19:55:15Z</time>
      </trkpt>
      <trkpt lat="48.08392" lon="7.11977">
        <ele>933</ele>
        <time>2019-05-06T19:56:15Z</time>
      </trkpt>
      <trkpt lat="48.08455" lon="7.11874">
        <ele>926</ele>
        <time>2019-05-06T19:57:15Z</time>
      </trkpt>
      <trkpt lat="48.08465" lon="7.11866">
        <ele>926</ele>
        <time>2019-05-06T19:58:15Z</time>
      </trkpt>
      <trkpt lat="48.08495" lon="7.11851">
        <ele>926</ele>
        <time>2019-05-06T19:59:15Z</time>
      </trkpt>
      <trkpt lat="48.08506" lon="7.11843">
        <ele>925</ele>
        <time>2019-05-06T20:00:15Z</time>
      </trkpt>
      <trkpt lat="48.08527" lon="7.11836">
        <ele>922</ele>
        <time>2019-05-06T20:01:15Z</time>
      </trkpt>
      <trkpt lat="48.08565" lon="7.11814">
        <ele>916</ele>
        <time>2019-05-06T20:02:15Z</time>
      </trkpt>
      <trkpt lat="48.08616" lon="7.11774">
        <ele>909</ele>
        <time>2019-05-06T20:03:15Z</time>
      </trkpt>
      <trkpt lat="48.0866" lon="7.11731">
        <ele>900</ele>
        <time>2019-05-06T20:04:15Z</time>
      </trkpt>
      <trkpt lat="48.08683" lon="7.11726">
        <ele>898</ele>
        <time>2019-05-06T20:05:15Z</time>
      </trkpt>
      <trkpt lat="48.08703" lon="7.11715">
        <ele>896</ele>
        <time>2019-05-06T20:06:15Z</time>
      </trkpt>
      <trkpt lat="48.08712" lon="7.11708">
        <ele>895</ele>
        <time>2019-05-06T20:07:15Z</time>
      </trkpt>
      <trkpt lat="48.08736" lon="7.11673">
        <ele>891</ele>
        <time>2019-05-06T20:08:15Z</time>
      </trkpt>
      <trkpt lat="48.08771" lon="7.11637">
        <ele>888</ele>
        <time>2019-05-06T20:09:15Z</time>
      </trkpt>
      <trkpt lat="48.0879" lon="7.11621">
        <ele>889</ele>
        <time>2019-05-06T20:10:15Z</time>
      </trkpt>
      <trkpt lat="48.08803" lon="7.11597">
        <ele>890</ele>
        <time>2019-05-06T20:11:15Z</time>
      </trkpt>
      <trkpt lat="48.08812" lon="7.11597">
        <ele>891</ele>
        <time>2019-05-06T20:12:15Z</time>
      </trkpt>
      <trkpt lat="48.08818" lon="7.11569">
        <ele>892</ele>
        <time>2019-05-06T20:13:15Z</time>
      </trkpt>
      <trkpt lat="48.08828" lon="7.11544">
        <ele>894</ele>
        <time>2019-05-06T20:14:15Z</time>
      </trkpt>
      <trkpt lat="48.08831" lon="7.1153">
        <ele>894</ele>
        <time>2019-05-06T20:15:15Z</time>
      </trkpt>
      <trkpt lat="48.08849" lon="7.11492">
        <ele>897</ele>
        <time>2019-05-06T20:16:15Z</time>
      </trkpt>
      <trkpt lat="48.08864" lon="7.11471">
        <ele>899</ele>
        <time>2019-05-06T20:17:15Z</time>
      </trkpt>
      <trkpt lat="48.08882" lon="7.11435">
        <ele>902</ele>
        <time>2019-05-06T20:18:15Z</time>
      </trkpt>
      <trkpt lat="48.08905" lon="7.11368">
        <ele>907</ele>
        <time>2019-05-06T20:19:15Z</time>
      </trkpt>
      <trkpt lat="48.08917" lon="7.11311">
        <ele>912</ele>
        <time>2019-05-06T20:20:15Z</time>
      </trkpt>
      <trkpt lat="48.08913" lon="7.11267">
        <ele>914</ele>
        <time>2019-05-06T20:21:15Z</time>
      </trkpt>
      <trkpt lat="48.08906" lon="7.11237">
        <ele>914</ele>
        <time>2019-05-06T20:22:15Z</time>
      </trkpt>
      <trkpt lat="48.08893" lon="7.11212">
        <ele>913</ele>
        <time>2019-05-06T20:23:15Z</time>
      </trkpt>
      <trkpt lat="48.08861" lon="7.11173">
        <ele>909</ele>
        <time>2019-05-06T20:24:15Z</time>
      </trkpt>
      <trkpt lat="48.08855" lon="7.11161">
        <ele>909</ele>
        <time>2019-05-06T20:25:15Z</time>
      </trkpt>
      <trkpt lat="48.08834" lon="7.11092">
        <ele>915</ele>
        <time>2019-05-06T20:26:15Z</time>
      </trkpt>
      <trkpt lat="48.08835" lon="7.11078">
        <ele>917</ele>
        <time>2019-05-06T20:27:15Z</time>
      </trkpt>
      <trkpt lat="48.08849" lon="7.11038">
        <ele>920</ele>
        <time>2019-05-06T20:28:15Z</time>
      </trkpt>
      <trkpt lat="48.08851" lon="7.11023">
        <ele>921</ele>
        <time>2019-05-06T20:29:15Z</time>
      </trkpt>
      <trkpt lat="48.08847" lon="7.1098">
        <ele>922</ele>
        <time>2019-05-06T20:30:15Z</time>
      </trkpt>
      <trkpt lat="48.08856" lon="7.10922">
        <ele>925</ele>
        <time>2019-05-06T20:31:15Z</time>
      </trkpt>
      <trkpt lat="48.08856" lon="7.10878">
        <ele>926</ele>
        <time>2019-05-06T20:32:15Z</time>
      </trkpt>
      <trkpt lat="48.08843" lon="7.10801">
        <ele>922</ele>
        <time>2019-05-06T20:33:15Z</time>
      </trkpt>
      <trkpt lat="48.08842" lon="7.10773">
        <ele>921</ele>
        <time>2019-05-06T20:34:15Z</time>
      </trkpt>
      <trkpt lat="48.08844" lon="7.10758">
        <ele>920</ele>
        <time>2019-05-06T20:35:15Z</time>
      </trkpt>
      <trkpt lat="48.08858" lon="7.10716">
        <ele>919</ele>
        <time>2019-05-06T20:36:15Z</time>
      </trkpt>
      <trkpt lat="48.08906" lon="7.1065">
        <ele>918</ele>
        <time>2019-05-06T20:37:15Z</time>
      </trkpt>
      <trkpt lat="48.08982" lon="7.10585">
        <ele>917</ele>
        <time>2019-05-06T20:38:15Z</time>
      </trkpt>
      <trkpt lat="48.09003" lon="7.10575">
        <ele>916</ele>
        <time>2019-05-06T20:39:15Z</time>
      </trkpt>
      <trkpt lat="48.08993" lon="7.1057">
        <ele>915</ele>
        <time>2019-05-06T20:40:15Z</time>
      </trkpt>
      <trkpt lat="48.08969" lon="7.10576">
        <ele>915</ele>
        <time>2019-05-06T20:41:15Z</time>
      </trkpt>
      <trkpt lat="48.08888" lon="7.10555">
        <ele>908</ele>
        <time>2019-05-06T20:42:15Z</time>
      </trkpt>
      <trkpt lat="48.0885" lon="7.1055">
        <ele>903</ele>
        <time>2019-05-06T20:43:15Z</time>
      </trkpt>
      <trkpt lat="48.08841" lon="7.10542">
        <ele>901</ele>
        <time>2019-05-06T20:44:15Z</time>
      </trkpt>
      <trkpt lat="48.08846" lon="7.10526">
        <ele>900</ele>
        <time>2019-05-06T20:45:15Z</time>
      </trkpt>
      <trkpt lat="48.08872" lon="7.10503">
        <ele>899</ele>
        <time>2019-05-06T20:46:15Z</time>
      </trkpt>
      <trkpt lat="48.08924" lon="7.10468">
        <ele>896</ele>
        <time>2019-05-06T20:47:15Z</time>
      </trkpt>
      <trkpt lat="48.08942" lon="7.1046">
        <ele>896</ele>
        <time>2019-05-06T20:48:15Z</time>
      </trkpt>
      <trkpt lat="48.08965" lon="7.10456">
        <ele>896</ele>
        <time>2019-05-06T20:49:15Z</time>
      </trkpt>
      <trkpt lat="48.0901" lon="7.10433">
        <ele>895</ele>
        <time>2019-05-06T20:50:15Z</time>
      </trkpt>
      <trkpt lat="48.09084" lon="7.10371">
        <ele>891</ele>
        <time>2019-05-06T20:51:15Z</time>
      </trkpt>
      <trkpt lat="48.09095" lon="7.10368">
        <ele>891</ele>
        <time>2019-05-06T20:52:15Z</time>
      </trkpt>
      <trkpt lat="48.09123" lon="7.10337">
        <ele>887</ele>
        <time>2019-05-06T20:53:15Z</time>
      </trkpt>
      <trkpt lat="48.09157" lon="7.1031">
        <ele>884</ele>
        <time>2019-05-06T20:54:15Z</time>
      </trkpt>
      <trkpt lat="48.09166" lon="7.10299">
        <ele>882</ele>
        <time>2019-05-06T20:55:15Z</time>
      </trkpt>
      <trkpt lat="48.092" lon="7.1027">
        <ele>876</ele>
        <time>2019-05-06T20:56:15Z</time>
      </trkpt>
      <trkpt lat="48.09223" lon="7.10238">
        <ele>869</ele>
        <time>2019-05-06T20:57:15Z</time>
      </trkpt>
      <trkpt lat="48.09235" lon="7.10232">
        <ele>868</ele>
        <time>2019-05-06T20:58:15Z</time>
      </trkpt>
      <trkpt lat="48.09272" lon="7.1017">
        <ele>861</ele>
        <time>2019-05-06T20:59:15Z</time>
      </trkpt>
      <trkpt lat="48.09309" lon="7.10129">
        <ele>865</ele>
        <time>2019-05-06T21:00:15Z</time>
      </trkpt>
      <trkpt lat="48.09314" lon="7.10112">
        <ele>865</ele>
        <time>2019-05-06T21:01:15Z</time>
      </trkpt>
      <trkpt lat="48.09296" lon="7.1007">
        <ele>860</ele>
        <time>2019-05-06T21:02:15Z</time>
      </trkpt>
      <trkpt lat="48.09291" lon="7.10053">
        <ele>859</ele>
        <time>2019-05-06T21:03:15Z</time>
      </trkpt>
      <trkpt lat="48.09284" lon="7.10001">
        <ele>857</ele>
        <time>2019-05-06T21:04:15Z</time>
      </trkpt>
      <trkpt lat="48.09275" lon="7.09966">
        <ele>855</ele>
        <time>2019-05-06T21:05:15Z</time>
      </trkpt>
      <trkpt lat="48.09281" lon="7.09936">
        <ele>857</ele>
        <time>2019-05-06T21:06:15Z</time>
      </trkpt>
      <trkpt lat="48.0928" lon="7.0992">
        <ele>857</ele>
        <time>2019-05-06T21:07:15Z</time>
      </trkpt>
      <trkpt lat="48.09275" lon="7.09906">
        <ele>857</ele>
        <time>2019-05-06T21:08:15Z</time>
      </trkpt>
      <trkpt lat="48.09271" lon="7.09879">
        <ele>858</ele>
        <time>2019-05-06T21:09:15Z</time>
      </trkpt>
      <trkpt lat="48.0927" lon="7.09842">
        <ele>861</ele>
        <time>2019-05-06T21:10:15Z</time>
      </trkpt>
      <trkpt lat="48.09264" lon="7.09827">
        <ele>861</ele>
        <time>2019-05-06T21:11:15Z</time>
      </trkpt>
      <trkpt lat="48.09255" lon="7.09815">
        <ele>860</ele>
        <time>2019-05-06T21:12:15Z</time>
      </trkpt>
      <trkpt lat="48.09235" lon="7.098">
        <ele>858</ele>
        <time>2019-05-06T21:13:15Z</time>
      </trkpt>
      <trkpt lat="48.09211" lon="7.09777">
        <ele>858</ele>
        <time>2019-05-06T21:14:15Z</time>
      </trkpt>
      <trkpt lat="48.09191" lon="7.0975">
        <ele>861</ele>
        <time>2019-05-06T21:15:15Z</time>
      </trkpt>
      <trkpt lat="48.09181" lon="7.09745">
        <ele>860</ele>
        <time>2019-05-06T21:16:15Z</time>
      </trkpt>
      <trkpt lat="48.0916" lon="7.09753">
        <ele>856</ele>
        <time>2019-05-06T21:17:15Z</time>
      </trkpt>
      <trkpt lat="48.09137" lon="7.09756">
        <ele>854</ele>
        <time>2019-05-06T21:18:15Z</time>
      </trkpt>
      <trkpt lat="48.09108" lon="7.09748">
        <ele>854</ele>
        <time>2019-05-06T21:19:15Z</time>
      </trkpt>
      <trkpt lat="48.09096" lon="7.0974">
        <ele>854</ele>
        <time>2019-05-06T21:20:15Z</time>
      </trkpt>
      <trkpt lat="48.09078" lon="7.09718">
        <ele>855</ele>
        <time>2019-05-06T21:21:15Z</time>
      </trkpt>
      <trkpt lat="48.0907" lon="7.09713">
        <ele>855</ele>
        <time>2019-05-06T21:22:15Z</time>
      </trkpt>
      <trkpt lat="48.09061" lon="7.09717">
        <ele>855</ele>
        <time>2019-05-06T21:23:15Z</time>
      </trkpt>
      <trkpt lat="48.09043" lon="7.09731">
        <ele>854</ele>
        <time>2019-05-06T21:24:15Z</time>
      </trkpt>
      <trkpt lat="48.09005" lon="7.09713">
        <ele>857</ele>
        <time>2019-05-06T21:25:15Z</time>
      </trkpt>
      <trkpt lat="48.08998" lon="7.09703">
        <ele>859</ele>
        <time>2019-05-06T21:26:15Z</time>
      </trkpt>
      <trkpt lat="48.08989" lon="7.09697">
        <ele>861</ele>
        <time>2019-05-06T21:27:15Z</time>
      </trkpt>
      <trkpt lat="48.08974" lon="7.09675">
        <ele>866</ele>
        <time>2019-05-06T21:28:15Z</time>
      </trkpt>
      <trkpt lat="48.08969" lon="7.09648">
        <ele>869</ele>
        <time>2019-05-06T21:29:15Z</time>
      </trkpt>
      <trkpt lat="48.08958" lon="7.09623">
        <ele>873</ele>
        <time>2019-05-06T21:30:15Z</time>
      </trkpt>
      <trkpt lat="48.08955" lon="7.0961">
        <ele>875</ele>
        <time>2019-05-06T21:31:15Z</time>
      </trkpt>
      <trkpt lat="48.08947" lon="7.096">
        <ele>877</ele>
        <time>2019-05-06T21:32:15Z</time>
      </trkpt>
      <trkpt lat="48.08942" lon="7.09558">
        <ele>880</ele>
        <time>2019-05-06T21:33:15Z</time>
      </trkpt>
      <trkpt lat="48.08944" lon="7.09529">
        <ele>881</ele>
        <time>2019-05-06T21:34:15Z</time>
      </trkpt>
      <trkpt lat="48.0895" lon="7.09517">
        <ele>881</ele>
        <time>2019-05-06T21:35:15Z</time>
      </trkpt>
      <trkpt lat="48.08949" lon="7.09503">
        <ele>882</ele>
        <time>2019-05-06T21:36:15Z</time>
      </trkpt>
      <trkpt lat="48.08956" lon="7.09442">
        <ele>884</ele>
        <time>2019-05-06T21:37:15Z</time>
      </trkpt>
      <trkpt lat="48.08972" lon="7.09406">
        <ele>887</ele>
        <time>2019-05-06T21:38:15Z</time>
      </trkpt>
      <trkpt lat="48.09003" lon="7.09399">
        <ele>891</ele>
        <time>2019-05-06T21:39:15Z</time>
      </trkpt>
      <trkpt lat="48.09029" lon="7.09374">
        <ele>892</ele>
        <time>2019-05-06T21:40:15Z</time>
      </trkpt>
      <trkpt lat="48.09065" lon="7.09352">
        <ele>897</ele>
        <time>2019-05-06T21:41:15Z</time>
      </trkpt>
      <trkpt lat="48.09094" lon="7.09347">
        <ele>900</ele>
        <time>2019-05-06T21:42:15Z</time>
      </trkpt>
      <trkpt lat="48.09102" lon="7.09339">
        <ele>902</ele>
        <time>2019-05-06T21:43:15Z</time>
      </trkpt>
      <trkpt lat="48.09121" lon="7.09328">
        <ele>904</ele>
        <time>2019-05-06T21:44:15Z</time>
      </trkpt>
      <trkpt lat="48.0913" lon="7.09325">
        <ele>904</ele>
        <time>2019-05-06T21:45:15Z</time>
      </trkpt>
      <trkpt lat="48.0914" lon="7.09326">
        <ele>905</ele>
        <time>2019-05-06T21:46:15Z</time>
      </trkpt>
      <trkpt lat="48.09171" lon="7.09287">
        <ele>904</ele>
        <time>2019-05-06T21:47:15Z</time>
      </trkpt>
      <trkpt lat="48.0919" lon="7.0925">
        <ele>905</ele>
        <time>2019-05-06T21:48:15Z</time>
      </trkpt>
      <trkpt lat="48.09213" lon="7.09214">
        <ele>903</ele>
        <time>2019-05-06T21:49:15Z</time>
      </trkpt>
      <trkpt lat="48.0923" lon="7.09193">
        <ele>904</ele>
        <time>2019-05-06T21:50:15Z</time>
      </trkpt>
      <trkpt lat="48.09247" lon="7.09174">
        <ele>904</ele>
        <time>2019-05-06T21:51:15Z</time>
      </trkpt>
      <trkpt lat="48.09283" lon="7.09149">
        <ele>910</ele>
        <time>2019-05-06T21:52:15Z</time>
      </trkpt>
      <trkpt lat="48.09291" lon="7.0914">
        <ele>910</ele>
        <time>2019-05-06T21:53:15Z</time>
      </trkpt>
      <trkpt lat="48.0932" lon="7.09121">
        <ele>916</ele>
        <time>2019-05-06T21:54:15Z</time>
      </trkpt>
      <trkpt lat="48.09327" lon="7.09111">
        <ele>917</ele>
        <time>2019-05-06T21:55:15Z</time>
      </trkpt>
      <trkpt lat="48.09355" lon="7.09048">
        <ele>914</ele>
        <time>2019-05-06T21:56:15Z</time>
      </trkpt>
      <trkpt lat="48.09373" lon="7.09035">
        <ele>916</ele>
        <time>2019-05-06T21:57:15Z</time>
      </trkpt>
      <trkpt lat="48.09404" lon="7.08995">
        <ele>917</ele>
        <time>2019-05-06T21:58:15Z</time>
      </trkpt>
      <trkpt lat="48.09447" lon="7.0895">
        <ele>920</ele>
        <time>2019-05-06T21:59:15Z</time>
      </trkpt>
      <trkpt lat="48.09455" lon="7.08943">
        <ele>921</ele>
        <time>2019-05-06T22:00:15Z</time>
      </trkpt>
      <trkpt lat="48.09465" lon="7.0894">
        <ele>923</ele>
        <time>2019-05-06T22:01:15Z</time>
      </trkpt>
      <trkpt lat="48.09512" lon="7.08909">
        <ele>931</ele>
        <time>2019-05-06T22:02:15Z</time>
      </trkpt>
      <trkpt lat="48.09541" lon="7.08888">
        <ele>935</ele>
        <time>2019-05-06T22:03:15Z</time>
      </trkpt>
      <trkpt lat="48.09558" lon="7.0887">
        <ele>939</ele>
        <time>2019-05-06T22:04:15Z</time>
      </trkpt>
      <trkpt lat="48.09597" lon="7.08804">
        <ele>948</ele>
        <time>2019-05-06T22:05:15Z</time>
      </trkpt>
      <trkpt lat="48.09612" lon="7.08764">
        <ele>951</ele>
        <time>2019-05-06T22:06:15Z</time>
      </trkpt>
      <trkpt lat="48.09631" lon="7.08729">
        <ele>952</ele>
        <time>2019-05-06T22:07:15Z</time>
      </trkpt>
      <trkpt lat="48.09624" lon="7.08681">
        <ele>947</ele>
        <time>2019-05-06T22:08:15Z</time>
      </trkpt>
      <trkpt lat="48.09616" lon="7.08651">
        <ele>944</ele>
        <time>2019-05-06T22:09:15Z</time>
      </trkpt>
      <trkpt lat="48.09604" lon="7.08639">
        <ele>943</ele>
        <time>2019-05-06T22:10:15Z</time>
      </trkpt>
      <trkpt lat="48.09494" lon="7.08578">
        <ele>932</ele>
        <time>2019-05-06T22:11:15Z</time>
      </trkpt>
      <trkpt lat="48.09483" lon="7.08586">
        <ele>928</ele>
        <time>2019-05-06T22:12:15Z</time>
      </trkpt>
      <trkpt lat="48.09481" lon="7.08603">
        <ele>925</ele>
        <time>2019-05-06T22:13:15Z</time>
      </trkpt>
      <trkpt lat="48.09498" lon="7.08659">
        <ele>922</ele>
        <time>2019-05-06T22:14:15Z</time>
      </trkpt>
      <trkpt lat="48.09489" lon="7.08655">
        <ele>919</ele>
        <time>2019-05-06T22:15:15Z</time>
      </trkpt>
      <trkpt lat="48.09475" lon="7.0863">
        <ele>919</ele>
        <time>2019-05-06T22:16:15Z</time>
      </trkpt>
      <trkpt lat="48.09459" lon="7.08608">
        <ele>918</ele>
        <time>2019-05-06T22:17:15Z</time>
      </trkpt>
      <trkpt lat="48.0942" lon="7.08572">
        <ele>914</ele>
        <time>2019-05-06T22:18:15Z</time>
      </trkpt>
      <trkpt lat="48.09401" lon="7.08551">
        <ele>913</ele>
        <time>2019-05-06T22:19:15Z</time>
      </trkpt>
      <trkpt lat="48.09393" lon="7.08541">
        <ele>912</ele>
        <time>2019-05-06T22:20:15Z</time>
      </trkpt>
      <trkpt lat="48.09382" lon="7.08512">
        <ele>913</ele>
        <time>2019-05-06T22:21:15Z</time>
      </trkpt>
      <trkpt lat="48.09373" lon="7.08465">
        <ele>915</ele>
        <time>2019-05-06T22:22:15Z</time>
      </trkpt>
      <trkpt lat="48.09371" lon="7.08412">
        <ele>921</ele>
        <time>2019-05-06T22:23:15Z</time>
      </trkpt>
      <trkpt lat="48.09358" lon="7.08348">
        <ele>923</ele>
        <time>2019-05-06T22:24:15Z</time>
      </trkpt>
      <trkpt lat="48.09346" lon="7.08322">
        <ele>924</ele>
        <time>2019-05-06T22:25:15Z</time>
      </trkpt>
      <trkpt lat="48.09337" lon="7.08313">
        <ele>924</ele>
        <time>2019-05-06T22:26:15Z</time>
      </trkpt>
      <trkpt lat="48.09317" lon="7.08304">
        <ele>928</ele>
        <time>2019-05-06T22:27:15Z</time>
      </trkpt>
      <trkpt lat="48.09306" lon="7.08304">
        <ele>930</ele>
        <time>2019-05-06T22:28:15Z</time>
      </trkpt>
      <trkpt lat="48.09285" lon="7.0831">
        <ele>932</ele>
        <time>2019-05-06T22:29:15Z</time>
      </trkpt>
      <trkpt lat="48.09259" lon="7.08334">
        <ele>930</ele>
        <time>2019-05-06T22:30:15Z</time>
      </trkpt>
      <trkpt lat="48.09239" lon="7.08347">
        <ele>932</ele>
        <time>2019-05-06T22:31:15Z</time>
      </trkpt>
      <trkpt lat="48.09221" lon="7.08366">
        <ele>933</ele>
        <time>2019-05-06T22:32:15Z</time>
      </trkpt>
      <trkpt lat="48.09158" lon="7.08413">
        <ele>934</ele>
        <time>2019-05-06T22:33:15Z</time>
      </trkpt>
      <trkpt lat="48.09138" lon="7.08421">
        <ele>935</ele>
        <time>2019-05-06T22:34:15Z</time>
      </trkpt>
      <trkpt lat="48.09115" lon="7.08424">
        <ele>938</ele>
        <time>2019-05-06T22:35:15Z</time>
      </trkpt>
      <trkpt lat="48.09043" lon="7.08448">
        <ele>940</ele>
        <time>2019-05-06T22:36:15Z</time>
      </trkpt>
      <trkpt lat="48.08994" lon="7.08479">
        <ele>937</ele>
        <time>2019-05-06T22:37:15Z</time>
      </trkpt>
      <trkpt lat="48.08984" lon="7.08482">
        <ele>936</ele>
        <time>2019-05-06T22:38:15Z</time>
      </trkpt>
      <trkpt lat="48.08973" lon="7.08479">
        <ele>936</ele>
        <time>2019-05-06T22:39:15Z</time>
      </trkpt>
      <trkpt lat="48.08957" lon="7.0846">
        <ele>939</ele>
        <time>2019-05-06T22:40:15Z</time>
      </trkpt>
      <trkpt lat="48.0895" lon="7.08448">
        <ele>941</ele>
        <time>2019-05-06T22:41:15Z</time>
      </trkpt>
      <trkpt lat="48.08877" lon="7.08297">
        <ele>950</ele>
        <time>2019-05-06T22:42:15Z</time>
      </trkpt>
      <trkpt lat="48.0884" lon="7.08234">
        <ele>953</ele>
        <time>2019-05-06T22:43:15Z</time>
      </trkpt>
      <trkpt lat="48.08801" lon="7.08178">
        <ele>957</ele>
        <time>2019-05-06T22:44:15Z</time>
      </trkpt>
      <trkpt lat="48.08782" lon="7.08139">
        <ele>958</ele>
        <time>2019-05-06T22:45:15Z</time>
      </trkpt>
      <trkpt lat="48.08777" lon="7.08124">
        <ele>959</ele>
        <time>2019-05-06T22:46:15Z</time>
      </trkpt>
      <trkpt lat="48.08774" lon="7.08093">
        <ele>961</ele>
        <time>2019-05-06T22:47:15Z</time>
      </trkpt>
      <trkpt lat="48.0879" lon="7.0802">
        <ele>965</ele>
        <time>2019-05-06T22:48:15Z</time>
      </trkpt>
      <trkpt lat="48.08805" lon="7.07967">
        <ele>967</ele>
        <time>2019-05-06T22:49:15Z</time>
      </trkpt>
      <trkpt lat="48.08819" lon="7.07896">
        <ele>969</ele>
        <time>2019-05-06T22:50:15Z</time>
      </trkpt>
      <trkpt lat="48.08829" lon="7.07871">
        <ele>970</ele>
        <time>2019-05-06T22:51:15Z</time>
      </trkpt>
      <trkpt lat="48.08865" lon="7.07793">
        <ele>971</ele>
        <time>2019-05-06T22:52:15Z</time>
      </trkpt>
      <trkpt lat="48.08879" lon="7.07772">
        <ele>972</ele>
        <time>2019-05-06T22:53:15Z</time>
      </trkpt>
      <trkpt lat="48.08897" lon="7.07756">
        <ele>974</ele>
        <time>2019-05-06T22:54:15Z</time>
      </trkpt>
      <trkpt lat="48.08937" lon="7.07745">
        <ele>982</ele>
        <time>2019-05-06T22:55:15Z</time>
      </trkpt>
      <trkpt lat="48.08953" lon="7.07732">
        <ele>984</ele>
        <time>2019-05-06T22:56:15Z</time>
      </trkpt>
      <trkpt lat="48.08961" lon="7.07722">
        <ele>986</ele>
        <time>2019-05-06T22:57:15Z</time>
      </trkpt>
      <trkpt lat="48.08973" lon="7.07676">
        <ele>985</ele>
        <time>2019-05-06T22:58:15Z</time>
      </trkpt>
      <trkpt lat="48.08968" lon="7.0763">
        <ele>981</ele>
        <time>2019-05-06T22:59:15Z</time>
      </trkpt>
      <trkpt lat="48.08969" lon="7.07616">
        <ele>980</ele>
        <time>2019-05-06T23:00:15Z</time>
      </trkpt>
      <trkpt lat="48.08974" lon="7.07604">
        <ele>980</ele>
        <time>2019-05-06T23:01:15Z</time>
      </trkpt>
      <trkpt lat="48.08991" lon="7.07584">
        <ele>979</ele>
        <time>2019-05-06T23:02:15Z</time>
      </trkpt>
      <trkpt lat="48.09039" lon="7.07548">
        <ele>979</ele>
        <time>2019-05-06T23:03:15Z</time>
      </trkpt>
      <trkpt lat="48.09049" lon="7.07535">
        <ele>978</ele>
        <time>2019-05-06T23:04:15Z</time>
      </trkpt>
      <trkpt lat="48.09082" lon="7.0746">
        <ele>974</ele>
        <time>2019-05-06T23:05:15Z</time>
      </trkpt>
      <trkpt lat="48.09087" lon="7.07441">
        <ele>973</ele>
        <time>2019-05-06T23:06:15Z</time>
      </trkpt>
      <trkpt lat="48.09088" lon="7.0742">
        <ele>971</ele>
        <time>2019-05-06T23:07:15Z</time>
      </trkpt>
      <trkpt lat="48.09083" lon="7.07404">
        <ele>973</ele>
        <time>2019-05-06T23:08:15Z</time>
      </trkpt>
      <trkpt lat="48.09055" lon="7.07373">
        <ele>980</ele>
        <time>2019-05-06T23:09:15Z</time>
      </trkpt>
      <trkpt lat="48.09044" lon="7.07367">
        <ele>982</ele>
        <time>2019-05-06T23:10:15Z</time>
      </trkpt>
      <trkpt lat="48.09033" lon="7.07366">
        <ele>982</ele>
        <time>2019-05-06T23:11:15Z</time>
      </trkpt>
      <trkpt lat="48.09024" lon="7.07362">
        <ele>984</ele>
        <time>2019-05-06T23:12:15Z</time>
      </trkpt>
      <trkpt lat="48.08992" lon="7.07361">
        <ele>986</ele>
        <time>2019-05-06T23:13:15Z</time>
      </trkpt>
      <trkpt lat="48.08959" lon="7.07356">
        <ele>989</ele>
        <time>2019-05-06T23:14:15Z</time>
      </trkpt>
      <trkpt lat="48.08928" lon="7.07342">
        <ele>995</ele>
        <time>2019-05-06T23:15:15Z</time>
      </trkpt>
      <trkpt lat="48.08908" lon="7.07339">
        <ele>998</ele>
        <time>2019-05-06T23:16:15Z</time>
      </trkpt>
      <trkpt lat="48.08865" lon="7.07347">
        <ele>1000</ele>
        <time>2019-05-06T23:17:15Z</time>
      </trkpt>
      <trkpt lat="48.08836" lon="7.07356">
        <ele>1000</ele>
        <time>2019-05-06T23:18:15Z</time>
      </trkpt>
      <trkpt lat="48.08795" lon="7.07362">
        <ele>998</ele>
        <time>2019-05-06T23:19:15Z</time>
      </trkpt>
      <trkpt lat="48.08765" lon="7.07356">
        <ele>1001</ele>
        <time>2019-05-06T23:20:15Z</time>
      </trkpt>
      <trkpt lat="48.08745" lon="7.07358">
        <ele>1000</ele>
        <time>2019-05-06T23:21:15Z</time>
      </trkpt>
      <trkpt lat="48.08727" lon="7.07365">
        <ele>993</ele>
        <time>2019-05-06T23:22:15Z</time>
      </trkpt>
      <trkpt lat="48.08693" lon="7.07362">
        <ele>988</ele>
        <time>2019-05-06T23:23:15Z</time>
      </trkpt>
      <trkpt lat="48.08672" lon="7.07351">
        <ele>988</ele>
        <time>2019-05-06T23:24:15Z</time>
      </trkpt>
      <trkpt lat="48.08659" lon="7.07331">
        <ele>990</ele>
        <time>2019-05-06T23:25:15Z</time>
      </trkpt>
      <trkpt lat="48.08653" lon="7.07316">
        <ele>992</ele>
        <time>2019-05-06T23:26:15Z</time>
      </trkpt>
      <trkpt lat="48.08644" lon="7.07287">
        <ele>994</ele>
        <time>2019-05-06T23:27:15Z</time>
      </trkpt>
      <trkpt lat="48.08639" lon="7.07241">
        <ele>1002</ele>
        <time>2019-05-06T23:28:15Z</time>
      </trkpt>
      <trkpt lat="48.08623" lon="7.07171">
        <ele>1005</ele>
        <time>2019-05-06T23:29:15Z</time>
      </trkpt>
      <trkpt lat="48.08624" lon="7.07135">
        <ele>1009</ele>
        <time>2019-05-06T23:30:15Z</time>
      </trkpt>
      <trkpt lat="48.08614" lon="7.07">
        <ele>1018</ele>
        <time>2019-05-06T23:31:15Z</time>
      </trkpt>
      <trkpt lat="48.08618" lon="7.06817">
        <ele>1027</ele>
        <time>2019-05-06T23:32:15Z</time>
      </trkpt>
      <trkpt lat="48.08621" lon="7.06786">
        <ele>1029</ele>
        <time>2019-05-06T23:33:15Z</time>
      </trkpt>
      <trkpt lat="48.08619" lon="7.06772">
        <ele>1029</ele>
        <time>2019-05-06T23:34:15Z</time>
      </trkpt>
      <trkpt lat="48.08628" lon="7.06697">
        <ele>1038</ele>
        <time>2019-05-06T23:35:15Z</time>
      </trkpt>
      <trkpt lat="48.08621" lon="7.06639">
        <ele>1040</ele>
        <time>2019-05-06T23:36:15Z</time>
      </trkpt>
      <trkpt lat="48.08627" lon="7.0661">
        <ele>1044</ele>
        <time>2019-05-06T23:37:15Z</time>
      </trkpt>
      <trkpt lat="48.08633" lon="7.06596">
        <ele>1047</ele>
        <time>2019-05-06T23:38:15Z</time>
      </trkpt>
      <trkpt lat="48.08647" lon="7.06574">
        <ele>1053</ele>
        <time>2019-05-06T23:39:15Z</time>
      </trkpt>
      <trkpt lat="48.08648" lon="7.0656">
        <ele>1054</ele>
        <time>2019-05-06T23:40:15Z</time>
      </trkpt>
      <trkpt lat="48.08643" lon="7.06548">
        <ele>1053</ele>
        <time>2019-05-06T23:41:15Z</time>
      </trkpt>
      <trkpt lat="48.08634" lon="7.0654">
        <ele>1051</ele>
        <time>2019-05-06T23:42:15Z</time>
      </trkpt>
      <trkpt lat="48.08615" lon="7.06538">
        <ele>1047</ele>
        <time>2019-05-06T23:43:15Z</time>
      </trkpt>
      <trkpt lat="48.08606" lon="7.06533">
        <ele>1045</ele>
        <time>2019-05-06T23:44:15Z</time>
      </trkpt>
      <trkpt lat="48.08599" lon="7.06521">
        <ele>1045</ele>
        <time>2019-05-06T23:45:15Z</time>
      </trkpt>
      <trkpt lat="48.08595" lon="7.06506">
        <ele>1046</ele>
        <time>2019-05-06T23:46:15Z</time>
      </trkpt>
      <trkpt lat="48.08595" lon="7.06491">
        <ele>1047</ele>
        <time>2019-05-06T23:47:15Z</time>
      </trkpt>
      <trkpt lat="48.08587" lon="7.06449">
        <ele>1047</ele>
        <time>2019-05-06T23:48:15Z</time>
      </trkpt>
      <trkpt lat="48.08586" lon="7.06432">
        <ele>1048</ele>
        <time>2019-05-06T23:49:15Z</time>
      </trkpt>
      <trkpt lat="48.0859" lon="7.0642">
        <ele>1049</ele>
        <time>2019-05-06T23:50:15Z</time>
      </trkpt>
      <trkpt lat="48.08642" lon="7.06368">
        <ele>1056</ele>
        <time>2019-05-06T23:51:15Z</time>
      </trkpt>
      <trkpt lat="48.08654" lon="7.06347">
        <ele>1057</ele>
        <time>2019-05-06T23:52:15Z</time>
      </trkpt>
      <trkpt lat="48.08664" lon="7.06337">
        <ele>1057</ele>
        <time>2019-05-06T23:53:15Z</time>
      </trkpt>
      <trkpt lat="48.08679" lon="7.06316">
        <ele>1060</ele>
        <time>2019-05-06T23:54:15Z</time>
      </trkpt>
      <trkpt lat="48.0869" lon="7.06313">
        <ele>1060</ele>
        <time>2019-05-06T23:55:15Z</time>
      </trkpt>
      <trkpt lat="48.08701" lon="7.06335">
        <ele>1055</ele>
        <time>2019-05-06T23:56:15Z</time>
      </trkpt>
      <trkpt lat="48.08713" lon="7.06392">
        <ele>1057</ele>
        <time>2019-05-06T23:57:15Z</time>
      </trkpt>
      <trkpt lat="48.08715" lon="7.0642">
        <ele>1059</ele>
        <time>2019-05-06T23:58:15Z</time>
      </trkpt>
      <trkpt lat="48.08724" lon="7.06462">
        <ele>1061</ele>
        <time>2019-05-06T23:59:15Z</time>
      </trkpt>
      <trkpt lat="48.08745" lon="7.06528">
        <ele>1066</ele>
        <time>2019-05-07T00:00:15Z</time>
      </trkpt>
      <trkpt lat="48.08752" lon="7.06542">
        <ele>1067</ele>
        <time>2019-05-07T00:01:15Z</time>
      </trkpt>
      <trkpt lat="48.08766" lon="7.06561">
        <ele>1069</ele>
        <time>2019-05-07T00:02:15Z</time>
      </trkpt>
      <trkpt lat="48.08792" lon="7.0659">
        <ele>1072</ele>
        <time>2019-05-07T00:03:15Z</time>
      </trkpt>
      <trkpt lat="48.08793" lon="7.06606">
        <ele>1074</ele>
        <time>2019-05-07T00:04:15Z</time>
      </trkpt>
      <trkpt lat="48.08765" lon="7.06624">
        <ele>1074</ele>
        <time>2019-05-07T00:05:15Z</time>
      </trkpt>
      <trkpt lat="48.08753" lon="7.06647">
        <ele>1074</ele>
        <time>2019-05-07T00:06:15Z</time>
      </trkpt>
      <trkpt lat="48.08751" lon="7.06675">
        <ele>1075</ele>
        <time>2019-05-07T00:07:15Z</time>
      </trkpt>
      <trkpt lat="48.08763" lon="7.06697">
        <ele>1076</ele>
        <time>2019-05-07T00:08:15Z</time>
      </trkpt>
      <trkpt lat="48.08772" lon="7.067">
        <ele>1077</ele>
        <time>2019-05-07T00:09:15Z</time>
      </trkpt>
      <trkpt lat="48.08769" lon="7.0667">
        <ele>1078</ele>
        <time>2019-05-07T00:10:15Z</time>
      </trkpt>
      <trkpt lat="48.08775" lon="7.0666">
        <ele>1078</ele>
        <time>2019-05-07T00:11:15Z</time>
      </trkpt>
      <trkpt lat="48.08795" lon="7.06651">
        <ele>1080</ele>
        <time>2019-05-07T00:12:15Z</time>
      </trkpt>
      <trkpt lat="48.08817" lon="7.06655">
        <ele>1084</ele>
        <time>2019-05-07T00:13:15Z</time>
      </trkpt>
      <trkpt lat="48.08867" lon="7.06677">
        <ele>1090</ele>
        <time>2019-05-07T00:14:15Z</time>
      </trkpt>
      <trkpt lat="48.08888" lon="7.0668">
        <ele>1092</ele>
        <time>2019-05-07T00:15:15Z</time>
      </trkpt>
      <trkpt lat="48.08898" lon="7.06677">
        <ele>1092</ele>
        <time>2019-05-07T00:16:15Z</time>
      </trkpt>
      <trkpt lat="48.08916" lon="7.06677">
        <ele>1094</ele>
        <time>2019-05-07T00:17:15Z</time>
      </trkpt>
      <trkpt lat="48.08944" lon="7.06684">
        <ele>1099</ele>
        <time>2019-05-07T00:18:15Z</time>
      </trkpt>
      <trkpt lat="48.08976" lon="7.06686">
        <ele>1103</ele>
        <time>2019-05-07T00:19:15Z</time>
      </trkpt>
      <trkpt lat="48.09006" lon="7.06679">
        <ele>1107</ele>
        <time>2019-05-07T00:20:15Z</time>
      </trkpt>
      <trkpt lat="48.08989" lon="7.06695">
        <ele>1107</ele>
        <time>2019-05-07T00:21:15Z</time>
      </trkpt>
      <trkpt lat="48.08958" lon="7.06707">
        <ele>1104</ele>
        <time>2019-05-07T00:22:15Z</time>
      </trkpt>
      <trkpt lat="48.08926" lon="7.06714">
        <ele>1101</ele>
        <time>2019-05-07T00:23:15Z</time>
      </trkpt>
      <trkpt lat="48.08909" lon="7.06731">
        <ele>1101</ele>
        <time>2019-05-07T00:24:15Z</time>
      </trkpt>
      <trkpt lat="48.08903" lon="7.06743">
        <ele>1102</ele>
        <time>2019-05-07T00:25:15Z</time>
      </trkpt>
      <trkpt lat="48.08901" lon="7.06756">
        <ele>1102</ele>
        <time>2019-05-07T00:26:15Z</time>
      </trkpt>
      <trkpt lat="48.08906" lon="7.06789">
        <ele>1104</ele>
        <time>2019-05-07T00:27:15Z</time>
      </trkpt>
      <trkpt lat="48.08904" lon="7.06806">
        <ele>1104</ele>
        <time>2019-05-07T00:28:15Z</time>
      </trkpt>
      <trkpt lat="48.08918" lon="7.06855">
        <ele>1107</ele>
        <time>2019-05-07T00:29:15Z</time>
      </trkpt>
      <trkpt lat="48.08925" lon="7.06866">
        <ele>1109</ele>
        <time>2019-05-07T00:30:15Z</time>
      </trkpt>
      <trkpt lat="48.08973" lon="7.06874">
        <ele>1118</ele>
        <time>2019-05-07T00:31:15Z</time>
      </trkpt>
      <trkpt lat="48.08982" lon="7.06878">
        <ele>1120</ele>
        <time>2019-05-07T00:32:15Z</time>
      </trkpt>
      <trkpt lat="48.0901" lon="7.06883">
        <ele>1126</ele>
        <time>2019-05-07T00:33:15Z</time>
      </trkpt>
      <trkpt lat="48.09038" lon="7.06887">
        <ele>1132</ele>
        <time>2019-05-07T00:34:15Z</time>
      </trkpt>
      <trkpt lat="48.09057" lon="7.06887">
        <ele>1137</ele>
        <time>2019-05-07T00:35:15Z</time>
      </trkpt>
      <trkpt lat="48.09094" lon="7.06903">
        <ele>1145</ele>
        <time>2019-05-07T00:36:15Z</time>
      </trkpt>
      <trkpt lat="48.09122" lon="7.06903">
        <ele>1151</ele>
        <time>2019-05-07T00:37:15Z</time>
      </trkpt>
      <trkpt lat="48.09176" lon="7.06894">
        <ele>1163</ele>
        <time>2019-05-07T00:38:15Z</time>
      </trkpt>
      <trkpt lat="48.09182" lon="7.06906">
        <ele>1163</ele>
        <time>2019-05-07T00:39:15Z</time>
      </trkpt>
      <trkpt lat="48.09197" lon="7.06919">
        <ele>1163</ele>
        <time>2019-05-07T00:40:15Z</time>
      </trkpt>
      <trkpt lat="48.09216" lon="7.06915">
        <ele>1166</ele>
        <time>2019-05-07T00:41:15Z</time>
      </trkpt>
      <trkpt lat="48.09225" lon="7.06919">
        <ele>1166</ele>
        <time>2019-05-07T00:42:15Z</time>
      </trkpt>
      <trkpt lat="48.09249" lon="7.06907">
        <ele>1171</ele>
        <time>2019-05-07T00:43:15Z</time>
      </trkpt>
      <trkpt lat="48.0926" lon="7.06907">
        <ele>1172</ele>
        <time>2019-05-07T00:44:15Z</time>
      </trkpt>
      <trkpt lat="48.09282" lon="7.06915">
        <ele>1171</ele>
        <time>2019-05-07T00:45:15Z</time>
      </trkpt>
      <trkpt lat="48.0932" lon="7.06918">
        <ele>1172</ele>
        <time>2019-05-07T00:46:15Z</time>
      </trkpt>
      <trkpt lat="48.09344" lon="7.06924">
        <ele>1173</ele>
        <time>2019-05-07T00:47:15Z</time>
      </trkpt>
      <trkpt lat="48.09354" lon="7.06937">
        <ele>1171</ele>
        <time>2019-05-07T00:48:15Z</time>
      </trkpt>
      <trkpt lat="48.09371" lon="7.06968">
        <ele>1165</ele>
        <time>2019-05-07T00:49:15Z</time>
      </trkpt>
      <trkpt lat="48.09393" lon="7.06987">
        <ele>1164</ele>
        <time>2019-05-07T00:50:15Z</time>
      </trkpt>
      <trkpt lat="48.09402" lon="7.07002">
        <ele>1161</ele>
        <time>2019-05-07T00:51:15Z</time>
      </trkpt>
      <trkpt lat="48.09407" lon="7.07048">
        <ele>1152</ele>
        <time>2019-05-07T00:52:15Z</time>
      </trkpt>
      <trkpt lat="48.09418" lon="7.07089">
        <ele>1145</ele>
        <time>2019-05-07T00:53:15Z</time>
      </trkpt>
      <trkpt lat="48.09432" lon="7.07113">
        <ele>1145</ele>
        <time>2019-05-07T00:54:15Z</time>
      </trkpt>
      <trkpt lat="48.09441" lon="7.07142">
        <ele>1143</ele>
        <time>2019-05-07T00:55:15Z</time>
      </trkpt>
      <trkpt lat="48.09453" lon="7.07166">
        <ele>1143</ele>
        <time>2019-05-07T00:56:15Z</time>
      </trkpt>
      <trkpt lat="48.09474" lon="7.0722">
        <ele>1139</ele>
        <time>2019-05-07T00:57:15Z</time>
      </trkpt>
      <trkpt lat="48.09513" lon="7.07287">
        <ele>1141</ele>
        <time>2019-05-07T00:58:15Z</time>
      </trkpt>
      <trkpt lat="48.09523" lon="7.07312">
        <ele>1140</ele>
        <time>2019-05-07T00:59:15Z</time>
      </trkpt>
      <trkpt lat="48.09537" lon="7.07359">
        <ele>1138</ele>
        <time>2019-05-07T01:00:15Z</time>
      </trkpt>
      <trkpt lat="48.09543" lon="7.07392">
        <ele>1134</ele>
        <time>2019-05-07T01:01:15Z</time>
      </trkpt>
      <trkpt lat="48.09544" lon="7.07411">
        <ele>1132</ele>
        <time>2019-05-07T01:02:15Z</time>
      </trkpt>
      <trkpt lat="48.09556" lon="7.07457">
        <ele>1130</ele>
        <time>2019-05-07T01:03:15Z</time>
      </trkpt>
      <trkpt lat="48.09578" lon="7.07507">
        <ele>1132</ele>
        <time>2019-05-07T01:04:15Z</time>
      </trkpt>
      <trkpt lat="48.09609" lon="7.07551">
        <ele>1130</ele>
        <time>2019-05-07T01:05:15Z</time>
      </trkpt>
      <trkpt lat="48.09628" lon="7.07571">
        <ele>1130</ele>
        <time>2019-05-07T01:06:15Z</time>
      </trkpt>
      <trkpt lat="48.09679" lon="7.07605">
        <ele>1132</ele>
        <time>2019-05-07T01:07:15Z</time>
      </trkpt>
      <trkpt lat="48.09689" lon="7.07609">
        <ele>1132</ele>
        <time>2019-05-07T01:08:15Z</time>
      </trkpt>
      <trkpt lat="48.09709" lon="7.07609">
        <ele>1134</ele>
        <time>2019-05-07T01:09:15Z</time>
      </trkpt>
      <trkpt lat="48.09748" lon="7.07615">
        <ele>1137</ele>
        <time>2019-05-07T01:10:15Z</time>
      </trkpt>
      <trkpt lat="48.09768" lon="7.07609">
        <ele>1141</ele>
        <time>2019-05-07T01:11:15Z</time>
      </trkpt>
      <trkpt lat="48.09776" lon="7.07604">
        <ele>1143</ele>
        <time>2019-05-07T01:12:15Z</time>
      </trkpt>
      <trkpt lat="48.09796" lon="7.07611">
        <ele>1145</ele>
        <time>2019-05-07T01:13:15Z</time>
      </trkpt>
      <trkpt lat="48.09826" lon="7.07629">
        <ele>1146</ele>
        <time>2019-05-07T01:14:15Z</time>
      </trkpt>
      <trkpt lat="48.09835" lon="7.07637">
        <ele>1145</ele>
        <time>2019-05-07T01:15:15Z</time>
      </trkpt>
      <trkpt lat="48.09882" lon="7.07689">
        <ele>1139</ele>
        <time>2019-05-07T01:16:15Z</time>
      </trkpt>
      <trkpt lat="48.09943" lon="7.07714">
        <ele>1137</ele>
        <time>2019-05-07T01:17:15Z</time>
      </trkpt>
      <trkpt lat="48.09953" lon="7.07714">
        <ele>1137</ele>
        <time>2019-05-07T01:18:15Z</time>
      </trkpt>
      <trkpt lat="48.09969" lon="7.07728">
        <ele>1134</ele>
        <time>2019-05-07T01:19:15Z</time>
      </trkpt>
      <trkpt lat="48.09997" lon="7.07733">
        <ele>1132</ele>
        <time>2019-05-07T01:20:15Z</time>
      </trkpt>
      <trkpt lat="48.10006" lon="7.0773">
        <ele>1131</ele>
        <time>2019-05-07T01:21:15Z</time>
      </trkpt>
      <trkpt lat="48.10034" lon="7.07711">
        <ele>1127</ele>
        <time>2019-05-07T01:22:15Z</time>
      </trkpt>
      <trkpt lat="48.10066" lon="7.07666">
        <ele>1124</ele>
        <time>2019-05-07T01:23:15Z</time>
      </trkpt>
      <trkpt lat="48.10076" lon="7.07658">
        <ele>1122</ele>
        <time>2019-05-07T01:24:15Z</time>
      </trkpt>
      <trkpt lat="48.10087" lon="7.07659">
        <ele>1119</ele>
        <time>2019-05-07T01:25:15Z</time>
      </trkpt>
      <trkpt lat="48.10097" lon="7.07655">
        <ele>1115</ele>
        <time>2019-05-07T01:26:15Z</time>
      </trkpt>
      <trkpt lat="48.10104" lon="7.07645">
        <ele>1112</ele>
        <time>2019-05-07T01:27:15Z</time>
      </trkpt>
      <trkpt lat="48.10116" lon="7.07667">
        <ele>1107</ele>
        <time>2019-05-07T01:28:15Z</time>
      </trkpt>
      <trkpt lat="48.1012" lon="7.07711">
        <ele>1103</ele>
        <time>2019-05-07T01:29:15Z</time>
      </trkpt>
      <trkpt lat="48.1013" lon="7.07706">
        <ele>1099</ele>
        <time>2019-05-07T01:30:15Z</time>
      </trkpt>
      <trkpt lat="48.10142" lon="7.07704">
        <ele>1095</ele>
        <time>2019-05-07T01:31:15Z</time>
      </trkpt>
      <trkpt lat="48.10177" lon="7.07668">
        <ele>1086</ele>
        <time>2019-05-07T01:32:15Z</time>
      </trkpt>
      <trkpt lat="48.10186" lon="7.07663">
        <ele>1084</ele>
        <time>2019-05-07T01:33:15Z</time>
      </trkpt>
      <trkpt lat="48.10177" lon="7.07657">
        <ele>1085</ele>
        <time>2019-05-07T01:34:15Z</time>
      </trkpt>
      <trkpt lat="48.10186" lon="7.07655">
        <ele>1083</ele>
        <time>2019-05-07T01:35:15Z</time>
      </trkpt>
      <trkpt lat="48.10198" lon="7.07631">
        <ele>1080</ele>
        <time>2019-05-07T01:36:15Z</time>
      </trkpt>
      <trkpt lat="48.102" lon="7.07602">
        <ele>1079</ele>
        <time>2019-05-07T01:37:15Z</time>
      </trkpt>
      <trkpt lat="48.10211" lon="7.07574">
        <ele>1078</ele>
        <time>2019-05-07T01:38:15Z</time>
      </trkpt>
      <trkpt lat="48.10213" lon="7.07561">
        <ele>1078</ele>
        <time>2019-05-07T01:39:15Z</time>
      </trkpt>
      <trkpt lat="48.10215" lon="7.07545">
        <ele>1079</ele>
        <time>2019-05-07T01:40:15Z</time>
      </trkpt>
      <trkpt lat="48.10209" lon="7.07494">
        <ele>1084</ele>
        <time>2019-05-07T01:41:15Z</time>
      </trkpt>
      <trkpt lat="48.10212" lon="7.07481">
        <ele>1084</ele>
        <time>2019-05-07T01:42:15Z</time>
      </trkpt>
      <trkpt lat="48.10226" lon="7.07459">
        <ele>1084</ele>
        <time>2019-05-07T01:43:15Z</time>
      </trkpt>
      <trkpt lat="48.10286" lon="7.07463">
        <ele>1085</ele>
        <time>2019-05-07T01:44:15Z</time>
      </trkpt>
      <trkpt lat="48.10257" lon="7.0746">
        <ele>1083</ele>
        <time>2019-05-07T01:45:15Z</time>
      </trkpt>
      <trkpt lat="48.10224" lon="7.07465">
        <ele>1083</ele>
        <time>2019-05-07T01:46:15Z</time>
      </trkpt>
      <trkpt lat="48.10215" lon="7.07471">
        <ele>1084</ele>
        <time>2019-05-07T01:47:15Z</time>
      </trkpt>
      <trkpt lat="48.10211" lon="7.07488">
        <ele>1084</ele>
        <time>2019-05-07T01:48:15Z</time>
      </trkpt>
      <trkpt lat="48.10212" lon="7.07548">
        <ele>1079</ele>
        <time>2019-05-07T01:49:15Z</time>
      </trkpt>
      <trkpt lat="48.10208" lon="7.0758">
        <ele>1078</ele>
        <time>2019-05-07T01:50:15Z</time>
      </trkpt>
      <trkpt lat="48.10213" lon="7.07627">
        <ele>1077</ele>
        <time>2019-05-07T01:51:15Z</time>
      </trkpt>
      <trkpt lat="48.10212" lon="7.07752">
        <ele>1076</ele>
        <time>2019-05-07T01:52:15Z</time>
      </trkpt>
      <trkpt lat="48.10193" lon="7.07805">
        <ele>1076</ele>
        <time>2019-05-07T01:53:15Z</time>
      </trkpt>
      <trkpt lat="48.1019" lon="7.07822">
        <ele>1075</ele>
        <time>2019-05-07T01:54:15Z</time>
      </trkpt>
      <trkpt lat="48.1019" lon="7.07839">
        <ele>1073</ele>
        <time>2019-05-07T01:55:15Z</time>
      </trkpt>
      <trkpt lat="48.10199" lon="7.0785">
        <ele>1071</ele>
        <time>2019-05-07T01:56:15Z</time>
      </trkpt>
      <trkpt lat="48.10208" lon="7.0786">
        <ele>1069</ele>
        <time>2019-05-07T01:57:15Z</time>
      </trkpt>
      <trkpt lat="48.10245" lon="7.07879">
        <ele>1066</ele>
        <time>2019-05-07T01:58:15Z</time>
      </trkpt>
      <trkpt lat="48.10261" lon="7.07896">
        <ele>1068</ele>
        <time>2019-05-07T01:59:15Z</time>
      </trkpt>
      <trkpt lat="48.10275" lon="7.07918">
        <ele>1072</ele>
        <time>2019-05-07T02:00:15Z</time>
      </trkpt>
      <trkpt lat="48.10268" lon="7.07986">
        <ele>1077</ele>
        <time>2019-05-07T02:01:15Z</time>
      </trkpt>
      <trkpt lat="48.1027" lon="7.08001">
        <ele>1079</ele>
        <time>2019-05-07T02:02:15Z</time>
      </trkpt>
      <trkpt lat="48.10283" lon="7.0802">
        <ele>1086</ele>
        <time>2019-05-07T02:03:15Z</time>
      </trkpt>
      <trkpt lat="48.10282" lon="7.08064">
        <ele>1091</ele>
        <time>2019-05-07T02:04:15Z</time>
      </trkpt>
      <trkpt lat="48.10284" lon="7.08078">
        <ele>1094</ele>
        <time>2019-05-07T02:05:15Z</time>
      </trkpt>
      <trkpt lat="48.10277" lon="7.08105">
        <ele>1095</ele>
        <time>2019-05-07T02:06:15Z</time>
      </trkpt>
      <trkpt lat="48.10274" lon="7.08132">
        <ele>1098</ele>
        <time>2019-05-07T02:07:15Z</time>
      </trkpt>
      <trkpt lat="48.10261" lon="7.08172">
        <ele>1098</ele>
        <time>2019-05-07T02:08:15Z</time>
      </trkpt>
      <trkpt lat="48.10259" lon="7.08202">
        <ele>1100</ele>
        <time>2019-05-07T02:09:15Z</time>
      </trkpt>
      <trkpt lat="48.10261" lon="7.08291">
        <ele>1104</ele>
        <time>2019-05-07T02:10:15Z</time>
      </trkpt>
      <trkpt lat="48.10257" lon="7.08307">
        <ele>1101</ele>
        <time>2019-05-07T02:11:15Z</time>
      </trkpt>
      <trkpt lat="48.10257" lon="7.08334">
        <ele>1100</ele>
        <time>2019-05-07T02:12:15Z</time>
      </trkpt>
      <trkpt lat="48.10264" lon="7.08377">
        <ele>1103</ele>
        <time>2019-05-07T02:13:15Z</time>
      </trkpt>
      <trkpt lat="48.10259" lon="7.08479">
        <ele>1104</ele>
        <time>2019-05-07T02:14:15Z</time>
      </trkpt>
      <trkpt lat="48.10254" lon="7.08509">
        <ele>1104</ele>
        <time>2019-05-07T02:15:15Z</time>
      </trkpt>
      <trkpt lat="48.10255" lon="7.08525">
        <ele>1106</ele>
        <time>2019-05-07T02:16:15Z</time>
      </trkpt>
      <trkpt lat="48.10249" lon="7.08556">
        <ele>1106</ele>
        <time>2019-05-07T02:17:15Z</time>
      </trkpt>
      <trkpt lat="48.10251" lon="7.08633">
        <ele>1110</ele>
        <time>2019-05-07T02:18:15Z</time>
      </trkpt>
      <trkpt lat="48.10255" lon="7.08677">
        <ele>1112</ele>
        <time>2019-05-07T02:19:15Z</time>
      </trkpt>
      <trkpt lat="48.10249" lon="7.08692">
        <ele>1111</ele>
        <time>2019-05-07T02:20:15Z</time>
      </trkpt>
      <trkpt lat="48.10243" lon="7.08733">
        <ele>1111</ele>
        <time>2019-05-07T02:21:15Z</time>
      </trkpt>
      <trkpt lat="48.10244" lon="7.0878">
        <ele>1114</ele>
        <time>2019-05-07T02:22:15Z</time>
      </trkpt>
      <trkpt lat="48.10238" lon="7.08824">
        <ele>1115</ele>
        <time>2019-05-07T02:23:15Z</time>
      </trkpt>
      <trkpt lat="48.10237" lon="7.08886">
        <ele>1115</ele>
        <time>2019-05-07T02:24:15Z</time>
      </trkpt>
      <trkpt lat="48.10227" lon="7.08965">
        <ele>1114</ele>
        <time>2019-05-07T02:25:15Z</time>
      </trkpt>
      <trkpt lat="48.10219" lon="7.09009">
        <ele>1112</ele>
        <time>2019-05-07T02:26:15Z</time>
      </trkpt>
      <trkpt lat="48.10214" lon="7.09059">
        <ele>1112</ele>
        <time>2019-05-07T02:27:15Z</time>
      </trkpt>
      <trkpt lat="48.1022" lon="7.09151">
        <ele>1114</ele>
        <time>2019-05-07T02:28:15Z</time>
      </trkpt>
      <trkpt lat="48.10223" lon="7.09181">
        <ele>1114</ele>
        <time>2019-05-07T02:29:15Z</time>
      </trkpt>
      <trkpt lat="48.10227" lon="7.09194">
        <ele>1114</ele>
        <time>2019-05-07T02:30:15Z</time>
      </trkpt>
      <trkpt lat="48.10254" lon="7.0924">
        <ele>1116</ele>
        <time>2019-05-07T02:31:15Z</time>
      </trkpt>
      <trkpt lat="48.10266" lon="7.09265">
        <ele>1116</ele>
        <time>2019-05-07T02:32:15Z</time>
      </trkpt>
      <trkpt lat="48.10294" lon="7.09309">
        <ele>1117</ele>
        <time>2019-05-07T02:33:15Z</time>
      </trkpt>
      <trkpt lat="48.10317" lon="7.09339">
        <ele>1119</ele>
        <time>2019-05-07T02:34:15Z</time>
      </trkpt>
      <trkpt lat="48.1035" lon="7.09375">
        <ele>1122</ele>
        <time>2019-05-07T02:35:15Z</time>
      </trkpt>
      <trkpt lat="48.1036" lon="7.0938">
        <ele>1123</ele>
        <time>2019-05-07T02:36:15Z</time>
      </trkpt>
      <trkpt lat="48.10371" lon="7.09381">
        <ele>1125</ele>
        <time>2019-05-07T02:37:15Z</time>
      </trkpt>
      <trkpt lat="48.10391" lon="7.09373">
        <ele>1128</ele>
        <time>2019-05-07T02:38:15Z</time>
      </trkpt>
      <trkpt lat="48.10412" lon="7.09368">
        <ele>1131</ele>
        <time>2019-05-07T02:39:15Z</time>
      </trkpt>
      <trkpt lat="48.10423" lon="7.09372">
        <ele>1131</ele>
        <time>2019-05-07T02:40:15Z</time>
      </trkpt>
      <trkpt lat="48.10443" lon="7.09373">
        <ele>1131</ele>
        <time>2019-05-07T02:41:15Z</time>
      </trkpt>
      <trkpt lat="48.10464" lon="7.0938">
        <ele>1129</ele>
        <time>2019-05-07T02:42:15Z</time>
      </trkpt>
      <trkpt lat="48.1052" lon="7.09392">
        <ele>1127</ele>
        <time>2019-05-07T02:43:15Z</time>
      </trkpt>
      <trkpt lat="48.10596" lon="7.09428">
        <ele>1120</ele>
        <time>2019-05-07T02:44:15Z</time>
      </trkpt>
      <trkpt lat="48.10615" lon="7.09433">
        <ele>1117</ele>
        <time>2019-05-07T02:45:15Z</time>
      </trkpt>
      <trkpt lat="48.10671" lon="7.09441">
        <ele>1111</ele>
        <time>2019-05-07T02:46:15Z</time>
      </trkpt>
      <trkpt lat="48.10689" lon="7.09447">
        <ele>1109</ele>
        <time>2019-05-07T02:47:15Z</time>
      </trkpt>
      <trkpt lat="48.10728" lon="7.09466">
        <ele>1103</ele>
        <time>2019-05-07T02:48:15Z</time>
      </trkpt>
      <trkpt lat="48.10777" lon="7.09483">
        <ele>1096</ele>
        <time>2019-05-07T02:49:15Z</time>
      </trkpt>
      <trkpt lat="48.1081" lon="7.09489">
        <ele>1091</ele>
        <time>2019-05-07T02:50:15Z</time>
      </trkpt>
      <trkpt lat="48.10851" lon="7.09505">
        <ele>1082</ele>
        <time>2019-05-07T02:51:15Z</time>
      </trkpt>
      <trkpt lat="48.10865" lon="7.09507">
        <ele>1079</ele>
        <time>2019-05-07T02:52:15Z</time>
      </trkpt>
      <trkpt lat="48.10879" lon="7.09504">
        <ele>1077</ele>
        <time>2019-05-07T02:53:15Z</time>
      </trkpt>
      <trkpt lat="48.10914" lon="7.09475">
        <ele>1076</ele>
        <time>2019-05-07T02:54:15Z</time>
      </trkpt>
      <trkpt lat="48.10962" lon="7.09429">
        <ele>1070</ele>
        <time>2019-05-07T02:55:15Z</time>
      </trkpt>
      <trkpt lat="48.10979" lon="7.09407">
        <ele>1067</ele>
        <time>2019-05-07T02:56:15Z</time>
      </trkpt>
      <trkpt lat="48.10995" lon="7.09376">
        <ele>1064</ele>
        <time>2019-05-07T02:57:15Z</time>
      </trkpt>
      <trkpt lat="48.11002" lon="7.09357">
        <ele>1061</ele>
        <time>2019-05-07T02:58:15Z</time>
      </trkpt>
      <trkpt lat="48.11019" lon="7.09292">
        <ele>1057</ele>
        <time>2019-05-07T02:59:15Z</time>
      </trkpt>
      <trkpt lat="48.11032" lon="7.09182">
        <ele>1061</ele>
        <time>2019-05-07T03:00:15Z</time>
      </trkpt>
      <trkpt lat="48.1104" lon="7.09146">
        <ele>1063</ele>
        <time>2019-05-07T03:01:15Z</time>
      </trkpt>
      <trkpt lat="48.1105" lon="7.0914">
        <ele>1060</ele>
        <time>2019-05-07T03:02:15Z</time>
      </trkpt>
      <trkpt lat="48.11062" lon="7.09147">
        <ele>1054</ele>
        <time>2019-05-07T03:03:15Z</time>
      </trkpt>
      <trkpt lat="48.11065" lon="7.09162">
        <ele>1051</ele>
        <time>2019-05-07T03:04:15Z</time>
      </trkpt>
      <trkpt lat="48.1105" lon="7.09229">
        <ele>1049</ele>
        <time>2019-05-07T03:05:15Z</time>
      </trkpt>
      <trkpt lat="48.11048" lon="7.09264">
        <ele>1045</ele>
        <time>2019-05-07T03:06:15Z</time>
      </trkpt>
      <trkpt lat="48.11041" lon="7.09315">
        <ele>1043</ele>
        <time>2019-05-07T03:07:15Z</time>
      </trkpt>
      <trkpt lat="48.11041" lon="7.09386">
        <ele>1036</ele>
        <time>2019-05-07T03:08:15Z</time>
      </trkpt>
      <trkpt lat="48.11039" lon="7.09407">
        <ele>1036</ele>
        <time>2019-05-07T03:09:15Z</time>
      </trkpt>
      <trkpt lat="48.11026" lon="7.0944">
        <ele>1037</ele>
        <time>2019-05-07T03:10:15Z</time>
      </trkpt>
      <trkpt lat="48.11009" lon="7.09472">
        <ele>1039</ele>
        <time>2019-05-07T03:11:15Z</time>
      </trkpt>
      <trkpt lat="48.10976" lon="7.09572">
        <ele>1031</ele>
        <time>2019-05-07T03:12:15Z</time>
      </trkpt>
      <trkpt lat="48.10972" lon="7.09592">
        <ele>1030</ele>
        <time>2019-05-07T03:13:15Z</time>
      </trkpt>
      <trkpt lat="48.10974" lon="7.09624">
        <ele>1028</ele>
        <time>2019-05-07T03:14:15Z</time>
      </trkpt>
      <trkpt lat="48.10986" lon="7.09663">
        <ele>1023</ele>
        <time>2019-05-07T03:15:15Z</time>
      </trkpt>
      <trkpt lat="48.11" lon="7.09683">
        <ele>1020</ele>
        <time>2019-05-07T03:16:15Z</time>
      </trkpt>
      <trkpt lat="48.11004" lon="7.09696">
        <ele>1017</ele>
        <time>2019-05-07T03:17:15Z</time>
      </trkpt>
      <trkpt lat="48.11016" lon="7.097">
        <ele>1012</ele>
        <time>2019-05-07T03:18:15Z</time>
      </trkpt>
      <trkpt lat="48.11025" lon="7.09693">
        <ele>1008</ele>
        <time>2019-05-07T03:19:15Z</time>
      </trkpt>
      <trkpt lat="48.11035" lon="7.09695">
        <ele>1004</ele>
        <time>2019-05-07T03:20:15Z</time>
      </trkpt>
      <trkpt lat="48.11042" lon="7.09705">
        <ele>1000</ele>
        <time>2019-05-07T03:21:15Z</time>
      </trkpt>
      <trkpt lat="48.11043" lon="7.09718">
        <ele>1000</ele>
        <time>2019-05-07T03:22:15Z</time>
      </trkpt>
      <trkpt lat="48.11039" lon="7.09733">
        <ele>1002</ele>
        <time>2019-05-07T03:23:15Z</time>
      </trkpt>
      <trkpt lat="48.11049" lon="7.09738">
        <ele>997</ele>
        <time>2019-05-07T03:24:15Z</time>
      </trkpt>
      <trkpt lat="48.11056" lon="7.0975">
        <ele>994</ele>
        <time>2019-05-07T03:25:15Z</time>
      </trkpt>
      <trkpt lat="48.11066" lon="7.09753">
        <ele>990</ele>
        <time>2019-05-07T03:26:15Z</time>
      </trkpt>
      <trkpt lat="48.1106" lon="7.09764">
        <ele>994</ele>
        <time>2019-05-07T03:27:15Z</time>
      </trkpt>
      <trkpt lat="48.11068" lon="7.09771">
        <ele>991</ele>
        <time>2019-05-07T03:28:15Z</time>
      </trkpt>
      <trkpt lat="48.11084" lon="7.09806">
        <ele>988</ele>
        <time>2019-05-07T03:29:15Z</time>
      </trkpt>
      <trkpt lat="48.11094" lon="7.09813">
        <ele>984</ele>
        <time>2019-05-07T03:30:15Z</time>
      </trkpt>
      <trkpt lat="48.11102" lon="7.09825">
        <ele>982</ele>
        <time>2019-05-07T03:31:15Z</time>
      </trkpt>
      <trkpt lat="48.11103" lon="7.09839">
        <ele>983</ele>
        <time>2019-05-07T03:32:15Z</time>
      </trkpt>
      <trkpt lat="48.11117" lon="7.0986">
        <ele>979</ele>
        <time>2019-05-07T03:33:15Z</time>
      </trkpt>
      <trkpt lat="48.11127" lon="7.09885">
        <ele>978</ele>
        <time>2019-05-07T03:34:15Z</time>
      </trkpt>
      <trkpt lat="48.11136" lon="7.09888">
        <ele>974</ele>
        <time>2019-05-07T03:35:15Z</time>
      </trkpt>
      <trkpt lat="48.11149" lon="7.0991">
        <ele>972</ele>
        <time>2019-05-07T03:36:15Z</time>
      </trkpt>
      <trkpt lat="48.11158" lon="7.09916">
        <ele>969</ele>
        <time>2019-05-07T03:37:15Z</time>
      </trkpt>
      <trkpt lat="48.11191" lon="7.0996">
        <ele>967</ele>
        <time>2019-05-07T03:38:15Z</time>
      </trkpt>
      <trkpt lat="48.1122" lon="7.09981">
        <ele>961</ele>
        <time>2019-05-07T03:39:15Z</time>
      </trkpt>
      <trkpt lat="48.11218" lon="7.09995">
        <ele>964</ele>
        <time>2019-05-07T03:40:15Z</time>
      </trkpt>
      <trkpt lat="48.11237" lon="7.09994">
        <ele>957</ele>
        <time>2019-05-07T03:41:15Z</time>
      </trkpt>
      <trkpt lat="48.11256" lon="7.09997">
        <ele>954</ele>
        <time>2019-05-07T03:42:15Z</time>
      </trkpt>
      <trkpt lat="48.1126" lon="7.1001">
        <ele>957</ele>
        <time>2019-05-07T03:43:15Z</time>
      </trkpt>
      <trkpt lat="48.11261" lon="7.10074">
        <ele>965</ele>
        <time>2019-05-07T03:44:15Z</time>
      </trkpt>
      <trkpt lat="48.11258" lon="7.10119">
        <ele>964</ele>
        <time>2019-05-07T03:45:15Z</time>
      </trkpt>
      <trkpt lat="48.11261" lon="7.1015">
        <ele>964</ele>
        <time>2019-05-07T03:46:15Z</time>
      </trkpt>
      <trkpt lat="48.11266" lon="7.10165">
        <ele>964</ele>
        <time>2019-05-07T03:47:15Z</time>
      </trkpt>
      <trkpt lat="48.11268" lon="7.102">
        <ele>957</ele>
        <time>2019-05-07T03:48:15Z</time>
      </trkpt>
      <trkpt lat="48.11292" lon="7.10266">
        <ele>948</ele>
        <time>2019-05-07T03:49:15Z</time>
      </trkpt>
      <trkpt lat="48.11296" lon="7.10297">
        <ele>942</ele>
        <time>2019-05-07T03:50:15Z</time>
      </trkpt>
      <trkpt lat="48.11307" lon="7.10323">
        <ele>939</ele>
        <time>2019-05-07T03:51:15Z</time>
      </trkpt>
      <trkpt lat="48.11314" lon="7.10332">
        <ele>939</ele>
        <time>2019-05-07T03:52:15Z</time>
      </trkpt>
      <trkpt lat="48.11323" lon="7.10358">
        <ele>935</ele>
        <time>2019-05-07T03:53:15Z</time>
      </trkpt>
      <trkpt lat="48.11332" lon="7.10373">
        <ele>934</ele>
        <time>2019-05-07T03:54:15Z</time>
      </trkpt>
      <trkpt lat="48.11343" lon="7.104">
        <ele>930</ele>
        <time>2019-05-07T03:55:15Z</time>
      </trkpt>
      <trkpt lat="48.11355" lon="7.10409">
        <ele>931</ele>
        <time>2019-05-07T03:56:15Z</time>
      </trkpt>
      <trkpt lat="48.11395" lon="7.10457">
        <ele>929</ele>
        <time>2019-05-07T03:57:15Z</time>
      </trkpt>
      <trkpt lat="48.1144" lon="7.10503">
        <ele>927</ele>
        <time>2019-05-07T03:58:15Z</time>
      </trkpt>
      <trkpt lat="48.11453" lon="7.1051">
        <ele>929</ele>
        <time>2019-05-07T03:59:15Z</time>
      </trkpt>
      <trkpt lat="48.11502" lon="7.10551">
        <ele>933</ele>
        <time>2019-05-07T04:00:15Z</time>
      </trkpt>
      <trkpt lat="48.11557" lon="7.10607">
        <ele>935</ele>
        <time>2019-05-07T04:01:15Z</time>
      </trkpt>
      <trkpt lat="48.11576" lon="7.10631">
        <ele>935</ele>
        <time>2019-05-07T04:02:15Z</time>
      </trkpt>
      <trkpt lat="48.11604" lon="7.10677">
        <ele>934</ele>
        <time>2019-05-07T04:03:15Z</time>
      </trkpt>
      <trkpt lat="48.11629" lon="7.10709">
        <ele>936</ele>
        <time>2019-05-07T04:04:15Z</time>
      </trkpt>
      <trkpt lat="48.1166" lon="7.10765">
        <ele>934</ele>
        <time>2019-05-07T04:05:15Z</time>
      </trkpt>
      <trkpt lat="48.11688" lon="7.10791">
        <ele>932</ele>
        <time>2019-05-07T04:06:15Z</time>
      </trkpt>
      <trkpt lat="48.11705" lon="7.10802">
        <ele>932</ele>
        <time>2019-05-07T04:07:15Z</time>
      </trkpt>
      <trkpt lat="48.11726" lon="7.1081">
        <ele>934</ele>
        <time>2019-05-07T04:08:15Z</time>
      </trkpt>
      <trkpt lat="48.11781" lon="7.10844">
        <ele>934</ele>
        <time>2019-05-07T04:09:15Z</time>
      </trkpt>
      <trkpt lat="48.1182" lon="7.10854">
        <ele>938</ele>
        <time>2019-05-07T04:10:15Z</time>
      </trkpt>
      <trkpt lat="48.11843" lon="7.10866">
        <ele>940</ele>
        <time>2019-05-07T04:11:15Z</time>
      </trkpt>
      <trkpt lat="48.1185" lon="7.10874">
        <ele>940</ele>
        <time>2019-05-07T04:12:15Z</time>
      </trkpt>
      <trkpt lat="48.11882" lon="7.10898">
        <ele>945</ele>
        <time>2019-05-07T04:13:15Z</time>
      </trkpt>
      <trkpt lat="48.11912" lon="7.10947">
        <ele>947</ele>
        <time>2019-05-07T04:14:15Z</time>
      </trkpt>
      <trkpt lat="48.11914" lon="7.10964">
        <ele>946</ele>
        <time>2019-05-07T04:15:15Z</time>
      </trkpt>
      <trkpt lat="48.11927" lon="7.11008">
        <ele>946</ele>
        <time>2019-05-07T04:16:15Z</time>
      </trkpt>
      <trkpt lat="48.11928" lon="7.11037">
        <ele>945</ele>
        <time>2019-05-07T04:17:15Z</time>
      </trkpt>
      <trkpt lat="48.11922" lon="7.11067">
        <ele>941</ele>
        <time>2019-05-07T04:18:15Z</time>
      </trkpt>
      <trkpt lat="48.11914" lon="7.11073">
        <ele>939</ele>
        <time>2019-05-07T04:19:15Z</time>
      </trkpt>
      <trkpt lat="48.119" lon="7.11094">
        <ele>933</ele>
        <time>2019-05-07T04:20:15Z</time>
      </trkpt>
      <trkpt lat="48.1187" lon="7.11146">
        <ele>924</ele>
        <time>2019-05-07T04:21:15Z</time>
      </trkpt>
      <trkpt lat="48.11851" lon="7.1119">
        <ele>921</ele>
        <time>2019-05-07T04:22:15Z</time>
      </trkpt>
      <trkpt lat="48.11845" lon="7.11218">
        <ele>922</ele>
        <time>2019-05-07T04:23:15Z</time>
      </trkpt>
      <trkpt lat="48.11844" lon="7.11233">
        <ele>923</ele>
        <time>2019-05-07T04:24:15Z</time>
      </trkpt>
      <trkpt lat="48.11851" lon="7.11278">
        <ele>927</ele>
        <time>2019-05-07T04:25:15Z</time>
      </trkpt>
      <trkpt lat="48.11867" lon="7.1132">
        <ele>932</ele>
        <time>2019-05-07T04:26:15Z</time>
      </trkpt>
      <trkpt lat="48.11876" lon="7.11351">
        <ele>931</ele>
        <time>2019-05-07T04:27:15Z</time>
      </trkpt>
      <trkpt lat="48.11877" lon="7.11366">
        <ele>929</ele>
        <time>2019-05-07T04:28:15Z</time>
      </trkpt>
      <trkpt lat="48.11894" lon="7.11389">
        <ele>930</ele>
        <time>2019-05-07T04:29:15Z</time>
      </trkpt>
      <trkpt lat="48.11936" lon="7.11417">
        <ele>936</ele>
        <time>2019-05-07T04:30:15Z</time>
      </trkpt>
      <trkpt lat="48.12" lon="7.11444">
        <ele>939</ele>
        <time>2019-05-07T04:31:15Z</time>
      </trkpt>
      <trkpt lat="48.12052" lon="7.11452">
        <ele>943</ele>
        <time>2019-05-07T04:32:15Z</time>
      </trkpt>
      <trkpt lat="48.12074" lon="7.11461">
        <ele>943</ele>
        <time>2019-05-07T04:33:15Z</time>
      </trkpt>
      <trkpt lat="48.12086" lon="7.11468">
        <ele>943</ele>
        <time>2019-05-07T04:34:15Z</time>
      </trkpt>
      <trkpt lat="48.12128" lon="7.11504">
        <ele>939</ele>
        <time>2019-05-07T04:35:15Z</time>
      </trkpt>
      <trkpt lat="48.12145" lon="7.11515">
        <ele>938</ele>
        <time>2019-05-07T04:36:15Z</time>
      </trkpt>
      <trkpt lat="48.12165" lon="7.11522">
        <ele>940</ele>
        <time>2019-05-07T04:37:15Z</time>
      </trkpt>
      <trkpt lat="48.12186" lon="7.11537">
        <ele>939</ele>
        <time>2019-05-07T04:38:15Z</time>
      </trkpt>
      <trkpt lat="48.12209" lon="7.11563">
        <ele>937</ele>
        <time>2019-05-07T04:39:15Z</time>
      </trkpt>
      <trkpt lat="48.12245" lon="7.11616">
        <ele>929</ele>
        <time>2019-05-07T04:40:15Z</time>
      </trkpt>
      <trkpt lat="48.12295" lon="7.11723">
        <ele>911</ele>
        <time>2019-05-07T04:41:15Z</time>
      </trkpt>
      <trkpt lat="48.12316" lon="7.11749">
        <ele>908</ele>
        <time>2019-05-07T04:42:15Z</time>
      </trkpt>
      <trkpt lat="48.12374" lon="7.11803">
        <ele>908</ele>
        <time>2019-05-07T04:43:15Z</time>
      </trkpt>
      <trkpt lat="48.12389" lon="7.1182">
        <ele>907</ele>
        <time>2019-05-07T04:44:15Z</time>
      </trkpt>
      <trkpt lat="48.12408" lon="7.11827">
        <ele>910</ele>
        <time>2019-05-07T04:45:15Z</time>
      </trkpt>
      <trkpt lat="48.12417" lon="7.11827">
        <ele>912</ele>
        <time>2019-05-07T04:46:15Z</time>
      </trkpt>
      <trkpt lat="48.12442" lon="7.11801">
        <ele>916</ele>
        <time>2019-05-07T04:47:15Z</time>
      </trkpt>
      <trkpt lat="48.12471" lon="7.11797">
        <ele>916</ele>
        <time>2019-05-07T04:48:15Z</time>
      </trkpt>
      <trkpt lat="48.12525" lon="7.11816">
        <ele>909</ele>
        <time>2019-05-07T04:49:15Z</time>
      </trkpt>
      <trkpt lat="48.12538" lon="7.11823">
        <ele>906</ele>
        <time>2019-05-07T04:50:15Z</time>
      </trkpt>
      <trkpt lat="48.12565" lon="7.11842">
        <ele>902</ele>
        <time>2019-05-07T04:51:15Z</time>
      </trkpt>
      <trkpt lat="48.12577" lon="7.11857">
        <ele>901</ele>
        <time>2019-05-07T04:52:15Z</time>
      </trkpt>
      <trkpt lat="48.12588" lon="7.11876">
        <ele>900</ele>
        <time>2019-05-07T04:53:15Z</time>
      </trkpt>
      <trkpt lat="48.12597" lon="7.119">
        <ele>898</ele>
        <time>2019-05-07T04:54:15Z</time>
      </trkpt>
      <trkpt lat="48.12603" lon="7.11927">
        <ele>896</ele>
        <time>2019-05-07T04:55:15Z</time>
      </trkpt>
      <trkpt lat="48.12604" lon="7.1197">
        <ele>893</ele>
        <time>2019-05-07T04:56:15Z</time>
      </trkpt>
      <trkpt lat="48.12595" lon="7.12011">
        <ele>894</ele>
        <time>2019-05-07T04:57:15Z</time>
      </trkpt>
      <trkpt lat="48.12572" lon="7.12058">
        <ele>892</ele>
        <time>2019-05-07T04:58:15Z</time>
      </trkpt>
      <trkpt lat="48.12544" lon="7.12102">
        <ele>887</ele>
        <time>2019-05-07T04:59:15Z</time>
      </trkpt>
      <trkpt lat="48.12536" lon="7.12111">
        <ele>886</ele>
        <time>2019-05-07T05:00:15Z</time>
      </trkpt>
      <trkpt lat="48.12518" lon="7.12124">
        <ele>886</ele>
        <time>2019-05-07T05:01:15Z</time>
      </trkpt>
      <trkpt lat="48.12491" lon="7.12132">
        <ele>885</ele>
        <time>2019-05-07T05:02:15Z</time>
      </trkpt>
      <trkpt lat="48.12485" lon="7.12143">
        <ele>882</ele>
        <time>2019-05-07T05:03:15Z</time>
      </trkpt>
      <trkpt lat="48.12519" lon="7.12182">
        <ele>876</ele>
        <time>2019-05-07T05:04:15Z</time>
      </trkpt>
      <trkpt lat="48.12542" lon="7.12233">
        <ele>869</ele>
        <time>2019-05-07T05:05:15Z</time>
      </trkpt>
      <trkpt lat="48.12551" lon="7.12238">
        <ele>869</ele>
        <time>2019-05-07T05:06:15Z</time>
      </trkpt>
      <trkpt lat="48.1256" lon="7.12234">
        <ele>869</ele>
        <time>2019-05-07T05:07:15Z</time>
      </trkpt>
      <trkpt lat="48.12582" lon="7.12193">
        <ele>872</ele>
        <time>2019-05-07T05:08:15Z</time>
      </trkpt>
      <trkpt lat="48.1259" lon="7.12166">
        <ele>872</ele>
        <time>2019-05-07T05:09:15Z</time>
      </trkpt>
      <trkpt lat="48.12603" lon="7.12138">
        <ele>871</ele>
        <time>2019-05-07T05:10:15Z</time>
      </trkpt>
      <trkpt lat="48.12615" lon="7.12095">
        <ele>872</ele>
        <time>2019-05-07T05:11:15Z</time>
      </trkpt>
      <trkpt lat="48.1263" lon="7.12073">
        <ele>869</ele>
        <time>2019-05-07T05:12:15Z</time>
      </trkpt>
      <trkpt lat="48.12642" lon="7.12061">
        <ele>866</ele>
        <time>2019-05-07T05:13:15Z</time>
      </trkpt>
      <trkpt lat="48.12675" lon="7.12019">
        <ele>857</ele>
        <time>2019-05-07T05:14:15Z</time>
      </trkpt>
      <trkpt lat="48.12699" lon="7.1197">
        <ele>852</ele>
        <time>2019-05-07T05:15:15Z</time>
      </trkpt>
      <trkpt lat="48.12714" lon="7.11926">
        <ele>850</ele>
        <time>2019-05-07T05:16:15Z</time>
      </trkpt>
      <trkpt lat="48.12724" lon="7.11879">
        <ele>846</ele>
        <time>2019-05-07T05:17:15Z</time>
      </trkpt>
      <trkpt lat="48.12729" lon="7.11787">
        <ele>846</ele>
        <time>2019-05-07T05:18:15Z</time>
      </trkpt>
      <trkpt lat="48.12735" lon="7.11757">
        <ele>844</ele>
        <time>2019-05-07T05:19:15Z</time>
      </trkpt>
      <trkpt lat="48.12757" lon="7.11702">
        <ele>840</ele>
        <time>2019-05-07T05:20:15Z</time>
      </trkpt>
      <trkpt lat="48.12778" lon="7.11628">
        <ele>839</ele>
        <time>2019-05-07T05:21:15Z</time>
      </trkpt>
      <trkpt lat="48.12792" lon="7.11588">
        <ele>838</ele>
        <time>2019-05-07T05:22:15Z</time>
      </trkpt>
      <trkpt lat="48.12797" lon="7.1157">
        <ele>836</ele>
        <time>2019-05-07T05:23:15Z</time>
      </trkpt>
      <trkpt lat="48.12802" lon="7.11529">
        <ele>833</ele>
        <time>2019-05-07T05:24:15Z</time>
      </trkpt>
      <trkpt lat="48.12802" lon="7.11488">
        <ele>831</ele>
        <time>2019-05-07T05:25:15Z</time>
      </trkpt>
      <trkpt lat="48.12796" lon="7.11456">
        <ele>832</ele>
        <time>2019-05-07T05:26:15Z</time>
      </trkpt>
      <trkpt lat="48.12773" lon="7.11401">
        <ele>837</ele>
        <time>2019-05-07T05:27:15Z</time>
      </trkpt>
      <trkpt lat="48.12753" lon="7.11363">
        <ele>841</ele>
        <time>2019-05-07T05:28:15Z</time>
      </trkpt>
      <trkpt lat="48.12737" lon="7.11319">
        <ele>845</ele>
        <time>2019-05-07T05:29:15Z</time>
      </trkpt>
      <trkpt lat="48.12718" lon="7.11249">
        <ele>853</ele>
        <time>2019-05-07T05:30:15Z</time>
      </trkpt>
      <trkpt lat="48.12709" lon="7.11194">
        <ele>863</ele>
        <time>2019-05-07T05:31:15Z</time>
      </trkpt>
      <trkpt lat="48.12695" lon="7.11155">
        <ele>875</ele>
        <time>2019-05-07T05:32:15Z</time>
      </trkpt>
      <trkpt lat="48.12681" lon="7.11133">
        <ele>882</ele>
        <time>2019-05-07T05:33:15Z</time>
      </trkpt>
      <trkpt lat="48.12678" lon="7.11119">
        <ele>883</ele>
        <time>2019-05-07T05:34:15Z</time>
      </trkpt>
      <trkpt lat="48.1268" lon="7.11105">
        <ele>880</ele>
        <time>2019-05-07T05:35:15Z</time>
      </trkpt>
      <trkpt lat="48.12676" lon="7.1109">
        <ele>881</ele>
        <time>2019-05-07T05:36:15Z</time>
      </trkpt>
      <trkpt lat="48.12677" lon="7.11074">
        <ele>879</ele>
        <time>2019-05-07T05:37:15Z</time>
      </trkpt>
      <trkpt lat="48.12681" lon="7.11062">
        <ele>876</ele>
        <time>2019-05-07T05:38:15Z</time>
      </trkpt>
      <trkpt lat="48.1269" lon="7.11007">
        <ele>868</ele>
        <time>2019-05-07T05:39:15Z</time>
      </trkpt>
      <trkpt lat="48.12681" lon="7.10982">
        <ele>871</ele>
        <time>2019-05-07T05:40:15Z</time>
      </trkpt>
      <trkpt lat="48.1268" lon="7.10967">
        <ele>872</ele>
        <time>2019-05-07T05:41:15Z</time>
      </trkpt>
      <trkpt lat="48.12684" lon="7.10954">
        <ele>871</ele>
        <time>2019-05-07T05:42:15Z</time>
      </trkpt>
      <trkpt lat="48.12674" lon="7.10913">
        <ele>874</ele>
        <time>2019-05-07T05:43:15Z</time>
      </trkpt>
      <trkpt lat="48.12673" lon="7.1087">
        <ele>879</ele>
        <time>2019-05-07T05:44:15Z</time>
      </trkpt>
      <trkpt lat="48.12682" lon="7.10863">
        <ele>880</ele>
        <time>2019-05-07T05:45:15Z</time>
      </trkpt>
      <trkpt lat="48.12697" lon="7.10833">
        <ele>884</ele>
        <time>2019-05-07T05:46:15Z</time>
      </trkpt>
      <trkpt lat="48.12737" lon="7.10838">
        <ele>884</ele>
        <time>2019-05-07T05:47:15Z</time>
      </trkpt>
      <trkpt lat="48.12768" lon="7.10836">
        <ele>887</ele>
        <time>2019-05-07T05:48:15Z</time>
      </trkpt>
      <trkpt lat="48.12788" lon="7.10831">
        <ele>889</ele>
        <time>2019-05-07T05:49:15Z</time>
      </trkpt>
      <trkpt lat="48.12807" lon="7.10831">
        <ele>891</ele>
        <time>2019-05-07T05:50:15Z</time>
      </trkpt>
      <trkpt lat="48.12774" lon="7.10824">
        <ele>890</ele>
        <time>2019-05-07T05:51:15Z</time>
      </trkpt>
      <trkpt lat="48.12763" lon="7.10811">
        <ele>893</ele>
        <time>2019-05-07T05:52:15Z</time>
      </trkpt>
      <trkpt lat="48.12781" lon="7.10812">
        <ele>894</ele>
        <time>2019-05-07T05:53:15Z</time>
      </trkpt>
      <trkpt lat="48.12773" lon="7.108">
        <ele>897</ele>
        <time>2019-05-07T05:54:15Z</time>
      </trkpt>
      <trkpt lat="48.12754" lon="7.10791">
        <ele>898</ele>
        <time>2019-05-07T05:55:15Z</time>
      </trkpt>
      <trkpt lat="48.12745" lon="7.10782">
        <ele>900</ele>
        <time>2019-05-07T05:56:15Z</time>
      </trkpt>
      <trkpt lat="48.12736" lon="7.10778">
        <ele>900</ele>
        <time>2019-05-07T05:57:15Z</time>
      </trkpt>
      <trkpt lat="48.12706" lon="7.10745">
        <ele>905</ele>
        <time>2019-05-07T05:58:15Z</time>
      </trkpt>
      <trkpt lat="48.12699" lon="7.10734">
        <ele>906</ele>
        <time>2019-05-07T05:59:15Z</time>
      </trkpt>
      <trkpt lat="48.12696" lon="7.10719">
        <ele>909</ele>
        <time>2019-05-07T06:00:15Z</time>
      </trkpt>
      <trkpt lat="48.12676" lon="7.10674">
        <ele>916</ele>
        <time>2019-05-07T06:01:15Z</time>
      </trkpt>
      <trkpt lat="48.1267" lon="7.10646">
        <ele>920</ele>
        <time>2019-05-07T06:02:15Z</time>
      </trkpt>
      <trkpt lat="48.1265" lon="7.10599">
        <ele>924</ele>
        <time>2019-05-07T06:03:15Z</time>
      </trkpt>
      <trkpt lat="48.12647" lon="7.10585">
        <ele>926</ele>
        <time>2019-05-07T06:04:15Z</time>
      </trkpt>
      <trkpt lat="48.12648" lon="7.10571">
        <ele>927</ele>
        <time>2019-05-07T06:05:15Z</time>
      </trkpt>
      <trkpt lat="48.12626" lon="7.10539">
        <ele>928</ele>
        <time>2019-05-07T06:06:15Z</time>
      </trkpt>
      <trkpt lat="48.12615" lon="7.10517">
        <ele>929</ele>
        <time>2019-05-07T06:07:15Z</time>
      </trkpt>
      <trkpt lat="48.12612" lon="7.10488">
        <ele>932</ele>
        <time>2019-05-07T06:08:15Z</time>
      </trkpt>
      <trkpt lat="48.12614" lon="7.10472">
        <ele>933</ele>
        <time>2019-05-07T06:09:15Z</time>
      </trkpt>
      <trkpt lat="48.12598" lon="7.10423">
        <ele>934</ele>
        <time>2019-05-07T06:10:15Z</time>
      </trkpt>
      <trkpt lat="48.12548" lon="7.10373">
        <ele>941</ele>
        <time>2019-05-07T06:11:15Z</time>
      </trkpt>
      <trkpt lat="48.12558" lon="7.10371">
        <ele>940</ele>
        <time>2019-05-07T06:12:15Z</time>
      </trkpt>
      <trkpt lat="48.12568" lon="7.10376">
        <ele>939</ele>
        <time>2019-05-07T06:13:15Z</time>
      </trkpt>
      <trkpt lat="48.12607" lon="7.10385">
        <ele>941</ele>
        <time>2019-05-07T06:14:15Z</time>
      </trkpt>
      <trkpt lat="48.12627" lon="7.10385">
        <ele>944</ele>
        <time>2019-05-07T06:15:15Z</time>
      </trkpt>
      <trkpt lat="48.12645" lon="7.10392">
        <ele>945</ele>
        <time>2019-05-07T06:16:15Z</time>
      </trkpt>
      <trkpt lat="48.12661" lon="7.10406">
        <ele>946</ele>
        <time>2019-05-07T06:17:15Z</time>
      </trkpt>
      <trkpt lat="48.1268" lon="7.10443">
        <ele>944</ele>
        <time>2019-05-07T06:18:15Z</time>
      </trkpt>
      <trkpt lat="48.12688" lon="7.10453">
        <ele>944</ele>
        <time>2019-05-07T06:19:15Z</time>
      </trkpt>
      <trkpt lat="48.1273" lon="7.10488">
        <ele>945</ele>
        <time>2019-05-07T06:20:15Z</time>
      </trkpt>
      <trkpt lat="48.12747" lon="7.10498">
        <ele>946</ele>
        <time>2019-05-07T06:21:15Z</time>
      </trkpt>
      <trkpt lat="48.12767" lon="7.10502">
        <ele>948</ele>
        <time>2019-05-07T06:22:15Z</time>
      </trkpt>
      <trkpt lat="48.12844" lon="7.10502">
        <ele>956</ele>
        <time>2019-05-07T06:23:15Z</time>
      </trkpt>
      <trkpt lat="48.12883" lon="7.10506">
        <ele>961</ele>
        <time>2019-05-07T06:24:15Z</time>
      </trkpt>
      <trkpt lat="48.1292" lon="7.1049">
        <ele>966</ele>
        <time>2019-05-07T06:25:15Z</time>
      </trkpt>
      <trkpt lat="48.12936" lon="7.10473">
        <ele>969</ele>
        <time>2019-05-07T06:26:15Z</time>
      </trkpt>
      <trkpt lat="48.1294" lon="7.10461">
        <ele>970</ele>
        <time>2019-05-07T06:27:15Z</time>
      </trkpt>
      <trkpt lat="48.12941" lon="7.10433">
        <ele>975</ele>
        <time>2019-05-07T06:28:15Z</time>
      </trkpt>
      <trkpt lat="48.12921" lon="7.10399">
        <ele>980</ele>
        <time>2019-05-07T06:29:15Z</time>
      </trkpt>
      <trkpt lat="48.12918" lon="7.10386">
        <ele>982</ele>
        <time>2019-05-07T06:30:15Z</time>
      </trkpt>
      <trkpt lat="48.12922" lon="7.10373">
        <ele>984</ele>
        <time>2019-05-07T06:31:15Z</time>
      </trkpt>
      <trkpt lat="48.12933" lon="7.10369">
        <ele>985</ele>
        <time>2019-05-07T06:32:15Z</time>
      </trkpt>
      <trkpt lat="48.12962" lon="7.10369">
        <ele>987</ele>
        <time>2019-05-07T06:33:15Z</time>
      </trkpt>
      <trkpt lat="48.12971" lon="7.10366">
        <ele>988</ele>
        <time>2019-05-07T06:34:15Z</time>
      </trkpt>
      <trkpt lat="48.13004" lon="7.1037">
        <ele>989</ele>
        <time>2019-05-07T06:35:15Z</time>
      </trkpt>
      <trkpt lat="48.13023" lon="7.10361">
        <ele>990</ele>
        <time>2019-05-07T06:36:15Z</time>
      </trkpt>
      <trkpt lat="48.13052" lon="7.10338">
        <ele>995</ele>
        <time>2019-05-07T06:37:15Z</time>
      </trkpt>
      <trkpt lat="48.13072" lon="7.10304">
        <ele>1001</ele>
        <time>2019-05-07T06:38:15Z</time>
      </trkpt>
      <trkpt lat="48.1308" lon="7.10297">
        <ele>1002</ele>
        <time>2019-05-07T06:39:15Z</time>
      </trkpt>
      <trkpt lat="48.13089" lon="7.10296">
        <ele>1003</ele>
        <time>2019-05-07T06:40:15Z</time>
      </trkpt>
      <trkpt lat="48.131" lon="7.10273">
        <ele>1006</ele>
        <time>2019-05-07T06:41:15Z</time>
      </trkpt>
      <trkpt lat="48.13119" lon="7.10265">
        <ele>1008</ele>
        <time>2019-05-07T06:42:15Z</time>
      </trkpt>
      <trkpt lat="48.13129" lon="7.10264">
        <ele>1008</ele>
        <time>2019-05-07T06:43:15Z</time>
      </trkpt>
      <trkpt lat="48.13139" lon="7.10267">
        <ele>1008</ele>
        <time>2019-05-07T06:44:15Z</time>
      </trkpt>
      <trkpt lat="48.13145" lon="7.10295">
        <ele>1005</ele>
        <time>2019-05-07T06:45:15Z</time>
      </trkpt>
      <trkpt lat="48.13157" lon="7.10319">
        <ele>1004</ele>
        <time>2019-05-07T06:46:15Z</time>
      </trkpt>
      <trkpt lat="48.13166" lon="7.10347">
        <ele>1002</ele>
        <time>2019-05-07T06:47:15Z</time>
      </trkpt>
      <trkpt lat="48.13179" lon="7.10371">
        <ele>1002</ele>
        <time>2019-05-07T06:48:15Z</time>
      </trkpt>
      <trkpt lat="48.13196" lon="7.10392">
        <ele>1004</ele>
        <time>2019-05-07T06:49:15Z</time>
      </trkpt>
      <trkpt lat="48.13223" lon="7.10416">
        <ele>1007</ele>
        <time>2019-05-07T06:50:15Z</time>
      </trkpt>
      <trkpt lat="48.13242" lon="7.10426">
        <ele>1010</ele>
        <time>2019-05-07T06:51:15Z</time>
      </trkpt>
      <trkpt lat="48.1328" lon="7.10436">
        <ele>1015</ele>
        <time>2019-05-07T06:52:15Z</time>
      </trkpt>
      <trkpt lat="48.13318" lon="7.10432">
        <ele>1022</ele>
        <time>2019-05-07T06:53:15Z</time>
      </trkpt>
      <trkpt lat="48.13336" lon="7.10424">
        <ele>1026</ele>
        <time>2019-05-07T06:54:15Z</time>
      </trkpt>
      <trkpt lat="48.13363" lon="7.10406">
        <ele>1032</ele>
        <time>2019-05-07T06:55:15Z</time>
      </trkpt>
      <trkpt lat="48.13375" lon="7.10385">
        <ele>1036</ele>
        <time>2019-05-07T06:56:15Z</time>
      </trkpt>
      <trkpt lat="48.13405" lon="7.10346">
        <ele>1043</ele>
        <time>2019-05-07T06:57:15Z</time>
      </trkpt>
      <trkpt lat="48.13408" lon="7.10332">
        <ele>1045</ele>
        <time>2019-05-07T06:58:15Z</time>
      </trkpt>
      <trkpt lat="48.13402" lon="7.10274">
        <ele>1050</ele>
        <time>2019-05-07T06:59:15Z</time>
      </trkpt>
      <trkpt lat="48.13403" lon="7.10244">
        <ele>1053</ele>
        <time>2019-05-07T07:00:15Z</time>
      </trkpt>
      <trkpt lat="48.13399" lon="7.1023">
        <ele>1053</ele>
        <time>2019-05-07T07:01:15Z</time>
      </trkpt>
      <trkpt lat="48.13399" lon="7.10215">
        <ele>1055</ele>
        <time>2019-05-07T07:02:15Z</time>
      </trkpt>
      <trkpt lat="48.134" lon="7.10201">
        <ele>1056</ele>
        <time>2019-05-07T07:03:15Z</time>
      </trkpt>
      <trkpt lat="48.13415" lon="7.10131">
        <ele>1064</ele>
        <time>2019-05-07T07:04:15Z</time>
      </trkpt>
      <trkpt lat="48.13425" lon="7.10049">
        <ele>1074</ele>
        <time>2019-05-07T07:05:15Z</time>
      </trkpt>
      <trkpt lat="48.13424" lon="7.10035">
        <ele>1076</ele>
        <time>2019-05-07T07:06:15Z</time>
      </trkpt>
      <trkpt lat="48.13396" lon="7.0997">
        <ele>1078</ele>
        <time>2019-05-07T07:07:15Z</time>
      </trkpt>
      <trkpt lat="48.13388" lon="7.09944">
        <ele>1079</ele>
        <time>2019-05-07T07:08:15Z</time>
      </trkpt>
      <trkpt lat="48.13385" lon="7.09898">
        <ele>1084</ele>
        <time>2019-05-07T07:09:15Z</time>
      </trkpt>
      <trkpt lat="48.1338" lon="7.09871">
        <ele>1087</ele>
        <time>2019-05-07T07:10:15Z</time>
      </trkpt>
      <trkpt lat="48.1336" lon="7.09821">
        <ele>1090</ele>
        <time>2019-05-07T07:11:15Z</time>
      </trkpt>
      <trkpt lat="48.13351" lon="7.09791">
        <ele>1092</ele>
        <time>2019-05-07T07:12:15Z</time>
      </trkpt>
      <trkpt lat="48.13339" lon="7.09719">
        <ele>1096</ele>
        <time>2019-05-07T07:13:15Z</time>
      </trkpt>
      <trkpt lat="48.13325" lon="7.0966">
        <ele>1096</ele>
        <time>2019-05-07T07:14:15Z</time>
      </trkpt>
      <trkpt lat="48.13336" lon="7.09567">
        <ele>1103</ele>
        <time>2019-05-07T07:15:15Z</time>
      </trkpt>
      <trkpt lat="48.13337" lon="7.09523">
        <ele>1104</ele>
        <time>2019-05-07T07:16:15Z</time>
      </trkpt>
      <trkpt lat="48.13342" lon="7.09492">
        <ele>1105</ele>
        <time>2019-05-07T07:17:15Z</time>
      </trkpt>
      <trkpt lat="48.13363" lon="7.09423">
        <ele>1110</ele>
        <time>2019-05-07T07:18:15Z</time>
      </trkpt>
      <trkpt lat="48.13366" lon="7.09391">
        <ele>1111</ele>
        <time>2019-05-07T07:19:15Z</time>
      </trkpt>
      <trkpt lat="48.13384" lon="7.09341">
        <ele>1113</ele>
        <time>2019-05-07T07:20:15Z</time>
      </trkpt>
      <trkpt lat="48.13404" lon="7.09309">
        <ele>1114</ele>
        <time>2019-05-07T07:21:15Z</time>
      </trkpt>
      <trkpt lat="48.13415" lon="7.09286">
        <ele>1114</ele>
        <time>2019-05-07T07:22:15Z</time>
      </trkpt>
      <trkpt lat="48.13451" lon="7.09258">
        <ele>1119</ele>
        <time>2019-05-07T07:23:15Z</time>
      </trkpt>
      <trkpt lat="48.13475" lon="7.09231">
        <ele>1122</ele>
        <time>2019-05-07T07:24:15Z</time>
      </trkpt>
      <trkpt lat="48.13494" lon="7.09201">
        <ele>1125</ele>
        <time>2019-05-07T07:25:15Z</time>
      </trkpt>
      <trkpt lat="48.13505" lon="7.09172">
        <ele>1126</ele>
        <time>2019-05-07T07:26:15Z</time>
      </trkpt>
      <trkpt lat="48.13508" lon="7.09114">
        <ele>1128</ele>
        <time>2019-05-07T07:27:15Z</time>
      </trkpt>
      <trkpt lat="48.13499" lon="7.09087">
        <ele>1127</ele>
        <time>2019-05-07T07:28:15Z</time>
      </trkpt>
      <trkpt lat="48.13485" lon="7.09008">
        <ele>1126</ele>
        <time>2019-05-07T07:29:15Z</time>
      </trkpt>
      <trkpt lat="48.13476" lon="7.0898">
        <ele>1128</ele>
        <time>2019-05-07T07:30:15Z</time>
      </trkpt>
      <trkpt lat="48.13468" lon="7.08972">
        <ele>1129</ele>
        <time>2019-05-07T07:31:15Z</time>
      </trkpt>
      <trkpt lat="48.13444" lon="7.08963">
        <ele>1128</ele>
        <time>2019-05-07T07:32:15Z</time>
      </trkpt>
      <trkpt lat="48.1341" lon="7.08943">
        <ele>1128</ele>
        <time>2019-05-07T07:33:15Z</time>
      </trkpt>
      <trkpt lat="48.13365" lon="7.08927">
        <ele>1127</ele>
        <time>2019-05-07T07:34:15Z</time>
      </trkpt>
      <trkpt lat="48.13334" lon="7.08919">
        <ele>1126</ele>
        <time>2019-05-07T07:35:15Z</time>
      </trkpt>
      <trkpt lat="48.13324" lon="7.08919">
        <ele>1123</ele>
        <time>2019-05-07T07:36:15Z</time>
      </trkpt>
      <trkpt lat="48.13316" lon="7.08944">
        <ele>1116</ele>
        <time>2019-05-07T07:37:15Z</time>
      </trkpt>
      <trkpt lat="48.13312" lon="7.08989">
        <ele>1106</ele>
        <time>2019-05-07T07:38:15Z</time>
      </trkpt>
      <trkpt lat="48.13312" lon="7.09004">
        <ele>1103</ele>
        <time>2019-05-07T07:39:15Z</time>
      </trkpt>
      <trkpt lat="48.13315" lon="7.09017">
        <ele>1102</ele>
        <time>2019-05-07T07:40:15Z</time>
      </trkpt>
      <trkpt lat="48.13314" lon="7.09035">
        <ele>1100</ele>
        <time>2019-05-07T07:41:15Z</time>
      </trkpt>
      <trkpt lat="48.13302" lon="7.09082">
        <ele>1095</ele>
        <time>2019-05-07T07:42:15Z</time>
      </trkpt>
      <trkpt lat="48.133" lon="7.09111">
        <ele>1096</ele>
        <time>2019-05-07T07:43:15Z</time>
      </trkpt>
      <trkpt lat="48.13306" lon="7.09121">
        <ele>1097</ele>
        <time>2019-05-07T07:44:15Z</time>
      </trkpt>
      <trkpt lat="48.13315" lon="7.09128">
        <ele>1098</ele>
        <time>2019-05-07T07:45:15Z</time>
      </trkpt>
      <trkpt lat="48.13361" lon="7.09182">
        <ele>1104</ele>
        <time>2019-05-07T07:46:15Z</time>
      </trkpt>
      <trkpt lat="48.13374" lon="7.09206">
        <ele>1107</ele>
        <time>2019-05-07T07:47:15Z</time>
      </trkpt>
      <trkpt lat="48.13384" lon="7.09233">
        <ele>1109</ele>
        <time>2019-05-07T07:48:15Z</time>
      </trkpt>
      <trkpt lat="48.13381" lon="7.09246">
        <ele>1109</ele>
        <time>2019-05-07T07:49:15Z</time>
      </trkpt>
      <trkpt lat="48.13372" lon="7.09253">
        <ele>1109</ele>
        <time>2019-05-07T07:50:15Z</time>
      </trkpt>
      <trkpt lat="48.13362" lon="7.09257">
        <ele>1108</ele>
        <time>2019-05-07T07:51:15Z</time>
      </trkpt>
      <trkpt lat="48.13344" lon="7.09248">
        <ele>1106</ele>
        <time>2019-05-07T07:52:15Z</time>
      </trkpt>
      <trkpt lat="48.13316" lon="7.09228">
        <ele>1104</ele>
        <time>2019-05-07T07:53:15Z</time>
      </trkpt>
      <trkpt lat="48.13297" lon="7.09221">
        <ele>1103</ele>
        <time>2019-05-07T07:54:15Z</time>
      </trkpt>
      <trkpt lat="48.13212" lon="7.09209">
        <ele>1104</ele>
        <time>2019-05-07T07:55:15Z</time>
      </trkpt>
      <trkpt lat="48.13193" lon="7.09203">
        <ele>1104</ele>
        <time>2019-05-07T07:56:15Z</time>
      </trkpt>
      <trkpt lat="48.13008" lon="7.09169">
        <ele>1097</ele>
        <time>2019-05-07T07:57:15Z</time>
      </trkpt>
      <trkpt lat="48.12984" lon="7.09169">
        <ele>1094</ele>
        <time>2019-05-07T07:58:15Z</time>
      </trkpt>
      <trkpt lat="48.12946" lon="7.09178">
        <ele>1091</ele>
        <time>2019-05-07T07:59:15Z</time>
      </trkpt>
      <trkpt lat="48.12909" lon="7.09208">
        <ele>1092</ele>
        <time>2019-05-07T08:00:15Z</time>
      </trkpt>
      <trkpt lat="48.12882" lon="7.09237">
        <ele>1091</ele>
        <time>2019-05-07T08:01:15Z</time>
      </trkpt>
      <trkpt lat="48.12804" lon="7.09341">
        <ele>1090</ele>
        <time>2019-05-07T08:02:15Z</time>
      </trkpt>
      <trkpt lat="48.12715" lon="7.09439">
        <ele>1083</ele>
        <time>2019-05-07T08:03:15Z</time>
      </trkpt>
      <trkpt lat="48.12642" lon="7.09499">
        <ele>1075</ele>
        <time>2019-05-07T08:04:15Z</time>
      </trkpt>
      <trkpt lat="48.12574" lon="7.09581">
        <ele>1067</ele>
        <time>2019-05-07T08:05:15Z</time>
      </trkpt>
      <trkpt lat="48.12551" lon="7.09603">
        <ele>1065</ele>
        <time>2019-05-07T08:06:15Z</time>
      </trkpt>
      <trkpt lat="48.12528" lon="7.09619">
        <ele>1062</ele>
        <time>2019-05-07T08:07:15Z</time>
      </trkpt>
      <trkpt lat="48.12509" lon="7.09624">
        <ele>1059</ele>
        <time>2019-05-07T08:08:15Z</time>
      </trkpt>
      <trkpt lat="48.12499" lon="7.09622">
        <ele>1058</ele>
        <time>2019-05-07T08:09:15Z</time>
      </trkpt>
      <trkpt lat="48.12491" lon="7.09615">
        <ele>1061</ele>
        <time>2019-05-07T08:10:15Z</time>
      </trkpt>
      <trkpt lat="48.12471" lon="7.0958">
        <ele>1068</ele>
        <time>2019-05-07T08:11:15Z</time>
      </trkpt>
      <trkpt lat="48.12469" lon="7.09567">
        <ele>1068</ele>
        <time>2019-05-07T08:12:15Z</time>
      </trkpt>
      <trkpt lat="48.12462" lon="7.09553">
        <ele>1070</ele>
        <time>2019-05-07T08:13:15Z</time>
      </trkpt>
      <trkpt lat="48.12457" lon="7.09535">
        <ele>1071</ele>
        <time>2019-05-07T08:14:15Z</time>
      </trkpt>
      <trkpt lat="48.12444" lon="7.09472">
        <ele>1071</ele>
        <time>2019-05-07T08:15:15Z</time>
      </trkpt>
      <trkpt lat="48.12428" lon="7.09433">
        <ele>1072</ele>
        <time>2019-05-07T08:16:15Z</time>
      </trkpt>
      <trkpt lat="48.12408" lon="7.09337">
        <ele>1064</ele>
        <time>2019-05-07T08:17:15Z</time>
      </trkpt>
      <trkpt lat="48.12392" lon="7.09299">
        <ele>1071</ele>
        <time>2019-05-07T08:18:15Z</time>
      </trkpt>
      <trkpt lat="48.12417" lon="7.09427">
        <ele>1074</ele>
        <time>2019-05-07T08:19:15Z</time>
      </trkpt>
      <trkpt lat="48.12434" lon="7.09477">
        <ele>1075</ele>
        <time>2019-05-07T08:20:15Z</time>
      </trkpt>
      <trkpt lat="48.12445" lon="7.09532">
        <ele>1075</ele>
        <time>2019-05-07T08:21:15Z</time>
      </trkpt>
      <trkpt lat="48.12458" lon="7.09566">
        <ele>1073</ele>
        <time>2019-05-07T08:22:15Z</time>
      </trkpt>
      <trkpt lat="48.12477" lon="7.09603">
        <ele>1066</ele>
        <time>2019-05-07T08:23:15Z</time>
      </trkpt>
      <trkpt lat="48.12485" lon="7.0961">
        <ele>1063</ele>
        <time>2019-05-07T08:24:15Z</time>
      </trkpt>
      <trkpt lat="48.12512" lon="7.09625">
        <ele>1060</ele>
        <time>2019-05-07T08:25:15Z</time>
      </trkpt>
      <trkpt lat="48.12546" lon="7.09636">
        <ele>1065</ele>
        <time>2019-05-07T08:26:15Z</time>
      </trkpt>
      <trkpt lat="48.12567" lon="7.09697">
        <ele>1066</ele>
        <time>2019-05-07T08:27:15Z</time>
      </trkpt>
      <trkpt lat="48.12601" lon="7.0976">
        <ele>1064</ele>
        <time>2019-05-07T08:28:15Z</time>
      </trkpt>
      <trkpt lat="48.12608" lon="7.09775">
        <ele>1063</ele>
        <time>2019-05-07T08:29:15Z</time>
      </trkpt>
      <trkpt lat="48.12611" lon="7.09788">
        <ele>1061</ele>
        <time>2019-05-07T08:30:15Z</time>
      </trkpt>
      <trkpt lat="48.12601" lon="7.0979">
        <ele>1058</ele>
        <time>2019-05-07T08:31:15Z</time>
      </trkpt>
      <trkpt lat="48.12594" lon="7.09797">
        <ele>1055</ele>
        <time>2019-05-07T08:32:15Z</time>
      </trkpt>
      <trkpt lat="48.12584" lon="7.09802">
        <ele>1052</ele>
        <time>2019-05-07T08:33:15Z</time>
      </trkpt>
      <trkpt lat="48.12571" lon="7.098">
        <ele>1051</ele>
        <time>2019-05-07T08:34:15Z</time>
      </trkpt>
      <trkpt lat="48.12558" lon="7.09794">
        <ele>1052</ele>
        <time>2019-05-07T08:35:15Z</time>
      </trkpt>
      <trkpt lat="48.12532" lon="7.09807">
        <ele>1048</ele>
        <time>2019-05-07T08:36:15Z</time>
      </trkpt>
      <trkpt lat="48.12527" lon="7.09778">
        <ele>1054</ele>
        <time>2019-05-07T08:37:15Z</time>
      </trkpt>
      <trkpt lat="48.12525" lon="7.09748">
        <ele>1059</ele>
        <time>2019-05-07T08:38:15Z</time>
      </trkpt>
      <trkpt lat="48.12517" lon="7.09736">
        <ele>1059</ele>
        <time>2019-05-07T08:39:15Z</time>
      </trkpt>
      <trkpt lat="48.12509" lon="7.0973">
        <ele>1059</ele>
        <time>2019-05-07T08:40:15Z</time>
      </trkpt>
      <trkpt lat="48.12501" lon="7.09737">
        <ele>1058</ele>
        <time>2019-05-07T08:41:15Z</time>
      </trkpt>
      <trkpt lat="48.12487" lon="7.09756">
        <ele>1058</ele>
        <time>2019-05-07T08:42:15Z</time>
      </trkpt>
      <trkpt lat="48.12456" lon="7.09784">
        <ele>1054</ele>
        <time>2019-05-07T08:43:15Z</time>
      </trkpt>
      <trkpt lat="48.12444" lon="7.0981">
        <ele>1048</ele>
        <time>2019-05-07T08:44:15Z</time>
      </trkpt>
      <trkpt lat="48.12439" lon="7.09837">
        <ele>1042</ele>
        <time>2019-05-07T08:45:15Z</time>
      </trkpt>
      <trkpt lat="48.12429" lon="7.09838">
        <ele>1041</ele>
        <time>2019-05-07T08:46:15Z</time>
      </trkpt>
      <trkpt lat="48.12409" lon="7.09828">
        <ele>1045</ele>
        <time>2019-05-07T08:47:15Z</time>
      </trkpt>
      <trkpt lat="48.12397" lon="7.09831">
        <ele>1045</ele>
        <time>2019-05-07T08:48:15Z</time>
      </trkpt>
      <trkpt lat="48.12386" lon="7.09844">
        <ele>1043</ele>
        <time>2019-05-07T08:49:15Z</time>
      </trkpt>
      <trkpt lat="48.12381" lon="7.09858">
        <ele>1039</ele>
        <time>2019-05-07T08:50:15Z</time>
      </trkpt>
      <trkpt lat="48.12369" lon="7.09932">
        <ele>1025</ele>
        <time>2019-05-07T08:51:15Z</time>
      </trkpt>
      <trkpt lat="48.12359" lon="7.09972">
        <ele>1021</ele>
        <time>2019-05-07T08:52:15Z</time>
      </trkpt>
      <trkpt lat="48.1235" lon="7.09987">
        <ele>1021</ele>
        <time>2019-05-07T08:53:15Z</time>
      </trkpt>
      <trkpt lat="48.12341" lon="7.09996">
        <ele>1023</ele>
        <time>2019-05-07T08:54:15Z</time>
      </trkpt>
      <trkpt lat="48.12331" lon="7.10001">
        <ele>1025</ele>
        <time>2019-05-07T08:55:15Z</time>
      </trkpt>
      <trkpt lat="48.12321" lon="7.09997">
        <ele>1025</ele>
        <time>2019-05-07T08:56:15Z</time>
      </trkpt>
      <trkpt lat="48.12306" lon="7.09978">
        <ele>1026</ele>
        <time>2019-05-07T08:57:15Z</time>
      </trkpt>
      <trkpt lat="48.12291" lon="7.09936">
        <ele>1030</ele>
        <time>2019-05-07T08:58:15Z</time>
      </trkpt>
      <trkpt lat="48.12276" lon="7.09868">
        <ele>1041</ele>
        <time>2019-05-07T08:59:15Z</time>
      </trkpt>
      <trkpt lat="48.12251" lon="7.09813">
        <ele>1054</ele>
        <time>2019-05-07T09:00:15Z</time>
      </trkpt>
      <trkpt lat="48.12242" lon="7.098">
        <ele>1058</ele>
        <time>2019-05-07T09:01:15Z</time>
      </trkpt>
      <trkpt lat="48.12222" lon="7.09788">
        <ele>1064</ele>
        <time>2019-05-07T09:02:15Z</time>
      </trkpt>
      <trkpt lat="48.1221" lon="7.09786">
        <ele>1065</ele>
        <time>2019-05-07T09:03:15Z</time>
      </trkpt>
      <trkpt lat="48.12197" lon="7.09789">
        <ele>1065</ele>
        <time>2019-05-07T09:04:15Z</time>
      </trkpt>
      <trkpt lat="48.12177" lon="7.09803">
        <ele>1062</ele>
        <time>2019-05-07T09:05:15Z</time>
      </trkpt>
      <trkpt lat="48.12161" lon="7.0982">
        <ele>1060</ele>
        <time>2019-05-07T09:06:15Z</time>
      </trkpt>
      <trkpt lat="48.12141" lon="7.09874">
        <ele>1056</ele>
        <time>2019-05-07T09:07:15Z</time>
      </trkpt>
      <trkpt lat="48.12128" lon="7.09901">
        <ele>1056</ele>
        <time>2019-05-07T09:08:15Z</time>
      </trkpt>
      <trkpt lat="48.1212" lon="7.09934">
        <ele>1056</ele>
        <time>2019-05-07T09:09:15Z</time>
      </trkpt>
      <trkpt lat="48.12121" lon="7.09968">
        <ele>1053</ele>
        <time>2019-05-07T09:10:15Z</time>
      </trkpt>
      <trkpt lat="48.12127" lon="7.10015">
        <ele>1048</ele>
        <time>2019-05-07T09:11:15Z</time>
      </trkpt>
      <trkpt lat="48.12129" lon="7.10069">
        <ele>1044</ele>
        <time>2019-05-07T09:12:15Z</time>
      </trkpt>
      <trkpt lat="48.12127" lon="7.10117">
        <ele>1039</ele>
        <time>2019-05-07T09:13:15Z</time>
      </trkpt>
      <trkpt lat="48.12124" lon="7.10135">
        <ele>1038</ele>
        <time>2019-05-07T09:14:15Z</time>
      </trkpt>
      <trkpt lat="48.12118" lon="7.10148">
        <ele>1038</ele>
        <time>2019-05-07T09:15:15Z</time>
      </trkpt>
      <trkpt lat="48.12091" lon="7.10174">
        <ele>1042</ele>
        <time>2019-05-07T09:16:15Z</time>
      </trkpt>
      <trkpt lat="48.12081" lon="7.10198">
        <ele>1043</ele>
        <time>2019-05-07T09:17:15Z</time>
      </trkpt>
      <trkpt lat="48.12078" lon="7.10216">
        <ele>1042</ele>
        <time>2019-05-07T09:18:15Z</time>
      </trkpt>
      <trkpt lat="48.12078" lon="7.10236">
        <ele>1039</ele>
        <time>2019-05-07T09:19:15Z</time>
      </trkpt>
      <trkpt lat="48.12097" lon="7.10293">
        <ele>1035</ele>
        <time>2019-05-07T09:20:15Z</time>
      </trkpt>
      <trkpt lat="48.12117" lon="7.10378">
        <ele>1038</ele>
        <time>2019-05-07T09:21:15Z</time>
      </trkpt>
      <trkpt lat="48.12126" lon="7.10407">
        <ele>1038</ele>
        <time>2019-05-07T09:22:15Z</time>
      </trkpt>
      <trkpt lat="48.12128" lon="7.10422">
        <ele>1038</ele>
        <time>2019-05-07T09:23:15Z</time>
      </trkpt>
      <trkpt lat="48.12143" lon="7.10464">
        <ele>1034</ele>
        <time>2019-05-07T09:24:15Z</time>
      </trkpt>
      <trkpt lat="48.1215" lon="7.10496">
        <ele>1033</ele>
        <time>2019-05-07T09:25:15Z</time>
      </trkpt>
      <trkpt lat="48.12153" lon="7.10555">
        <ele>1030</ele>
        <time>2019-05-07T09:26:15Z</time>
      </trkpt>
      <trkpt lat="48.12148" lon="7.10592">
        <ele>1029</ele>
        <time>2019-05-07T09:27:15Z</time>
      </trkpt>
      <trkpt lat="48.12133" lon="7.10643">
        <ele>1026</ele>
        <time>2019-05-07T09:28:15Z</time>
      </trkpt>
      <trkpt lat="48.12124" lon="7.10656">
        <ele>1025</ele>
        <time>2019-05-07T09:29:15Z</time>
      </trkpt>
      <trkpt lat="48.12079" lon="7.10695">
        <ele>1025</ele>
        <time>2019-05-07T09:30:15Z</time>
      </trkpt>
      <trkpt lat="48.12068" lon="7.10698">
        <ele>1024</ele>
        <time>2019-05-07T09:31:15Z</time>
      </trkpt>
      <trkpt lat="48.12056" lon="7.10697">
        <ele>1025</ele>
        <time>2019-05-07T09:32:15Z</time>
      </trkpt>
      <trkpt lat="48.12033" lon="7.10685">
        <ele>1028</ele>
        <time>2019-05-07T09:33:15Z</time>
      </trkpt>
      <trkpt lat="48.12019" lon="7.10676">
        <ele>1031</ele>
        <time>2019-05-07T09:34:15Z</time>
      </trkpt>
      <trkpt lat="48.11978" lon="7.10642">
        <ele>1036</ele>
        <time>2019-05-07T09:35:15Z</time>
      </trkpt>
      <trkpt lat="48.11959" lon="7.10634">
        <ele>1034</ele>
        <time>2019-05-07T09:36:15Z</time>
      </trkpt>
      <trkpt lat="48.11907" lon="7.10602">
        <ele>1030</ele>
        <time>2019-05-07T09:37:15Z</time>
      </trkpt>
      <trkpt lat="48.11881" lon="7.10572">
        <ele>1028</ele>
        <time>2019-05-07T09:38:15Z</time>
      </trkpt>
      <trkpt lat="48.11843" lon="7.10498">
        <ele>1031</ele>
        <time>2019-05-07T09:39:15Z</time>
      </trkpt>
      <trkpt lat="48.11816" lon="7.1043">
        <ele>1035</ele>
        <time>2019-05-07T09:40:15Z</time>
      </trkpt>
      <trkpt lat="48.11809" lon="7.10404">
        <ele>1037</ele>
        <time>2019-05-07T09:41:15Z</time>
      </trkpt>
      <trkpt lat="48.11797" lon="7.10373">
        <ele>1036</ele>
        <time>2019-05-07T09:42:15Z</time>
      </trkpt>
      <trkpt lat="48.1177" lon="7.10278">
        <ele>1042</ele>
        <time>2019-05-07T09:43:15Z</time>
      </trkpt>
      <trkpt lat="48.11748" lon="7.1022">
        <ele>1049</ele>
        <time>2019-05-07T09:44:15Z</time>
      </trkpt>
      <trkpt lat="48.11729" lon="7.10153">
        <ele>1058</ele>
        <time>2019-05-07T09:45:15Z</time>
      </trkpt>
      <trkpt lat="48.11708" lon="7.10042">
        <ele>1061</ele>
        <time>2019-05-07T09:46:15Z</time>
      </trkpt>
      <trkpt lat="48.11689" lon="7.09965">
        <ele>1064</ele>
        <time>2019-05-07T09:47:15Z</time>
      </trkpt>
      <trkpt lat="48.11681" lon="7.09941">
        <ele>1066</ele>
        <time>2019-05-07T09:48:15Z</time>
      </trkpt>
      <trkpt lat="48.11675" lon="7.09929">
        <ele>1066</ele>
        <time>2019-05-07T09:49:15Z</time>
      </trkpt>
      <trkpt lat="48.11665" lon="7.0993">
        <ele>1065</ele>
        <time>2019-05-07T09:50:15Z</time>
      </trkpt>
      <trkpt lat="48.11621" lon="7.09912">
        <ele>1057</ele>
        <time>2019-05-07T09:51:15Z</time>
      </trkpt>
      <trkpt lat="48.11612" lon="7.09913">
        <ele>1055</ele>
        <time>2019-05-07T09:52:15Z</time>
      </trkpt>
      <trkpt lat="48.11577" lon="7.09926">
        <ele>1047</ele>
        <time>2019-05-07T09:53:15Z</time>
      </trkpt>
      <trkpt lat="48.11565" lon="7.09928">
        <ele>1043</ele>
        <time>2019-05-07T09:54:15Z</time>
      </trkpt>
      <trkpt lat="48.11553" lon="7.09933">
        <ele>1040</ele>
        <time>2019-05-07T09:55:15Z</time>
      </trkpt>
      <trkpt lat="48.11525" lon="7.09955">
        <ele>1035</ele>
        <time>2019-05-07T09:56:15Z</time>
      </trkpt>
      <trkpt lat="48.11516" lon="7.09953">
        <ele>1033</ele>
        <time>2019-05-07T09:57:15Z</time>
      </trkpt>
      <trkpt lat="48.11506" lon="7.09963">
        <ele>1032</ele>
        <time>2019-05-07T09:58:15Z</time>
      </trkpt>
      <trkpt lat="48.115" lon="7.09988">
        <ele>1034</ele>
        <time>2019-05-07T09:59:15Z</time>
      </trkpt>
      <trkpt lat="48.11493" lon="7.10003">
        <ele>1034</ele>
        <time>2019-05-07T10:00:15Z</time>
      </trkpt>
      <trkpt lat="48.11493" lon="7.10036">
        <ele>1033</ele>
        <time>2019-05-07T10:01:15Z</time>
      </trkpt>
      <trkpt lat="48.11501" lon="7.10067">
        <ele>1034</ele>
        <time>2019-05-07T10:02:15Z</time>
      </trkpt>
      <trkpt lat="48.11524" lon="7.10121">
        <ele>1027</ele>
        <time>2019-05-07T10:03:15Z</time>
      </trkpt>
      <trkpt lat="48.11548" lon="7.10153">
        <ele>1022</ele>
        <time>2019-05-07T10:04:15Z</time>
      </trkpt>
      <trkpt lat="48.11546" lon="7.10171">
        <ele>1020</ele>
        <time>2019-05-07T10:05:15Z</time>
      </trkpt>
      <trkpt lat="48.11536" lon="7.10175">
        <ele>1019</ele>
        <time>2019-05-07T10:06:15Z</time>
      </trkpt>
      <trkpt lat="48.11523" lon="7.10173">
        <ele>1018</ele>
        <time>2019-05-07T10:07:15Z</time>
      </trkpt>
      <trkpt lat="48.1151" lon="7.10175">
        <ele>1017</ele>
        <time>2019-05-07T10:08:15Z</time>
      </trkpt>
      <trkpt lat="48.11478" lon="7.10188">
        <ele>1013</ele>
        <time>2019-05-07T10:09:15Z</time>
      </trkpt>
      <trkpt lat="48.11444" lon="7.10191">
        <ele>1009</ele>
        <time>2019-05-07T10:10:15Z</time>
      </trkpt>
      <trkpt lat="48.11416" lon="7.10205">
        <ele>1003</ele>
        <time>2019-05-07T10:11:15Z</time>
      </trkpt>
      <trkpt lat="48.11405" lon="7.10203">
        <ele>1000</ele>
        <time>2019-05-07T10:12:15Z</time>
      </trkpt>
      <trkpt lat="48.11386" lon="7.10208">
        <ele>992</ele>
        <time>2019-05-07T10:13:15Z</time>
      </trkpt>
      <trkpt lat="48.11376" lon="7.10203">
        <ele>990</ele>
        <time>2019-05-07T10:14:15Z</time>
      </trkpt>
      <trkpt lat="48.11316" lon="7.10155">
        <ele>979</ele>
        <time>2019-05-07T10:15:15Z</time>
      </trkpt>
      <trkpt lat="48.1131" lon="7.10143">
        <ele>978</ele>
        <time>2019-05-07T10:16:15Z</time>
      </trkpt>
      <trkpt lat="48.11287" lon="7.10113">
        <ele>973</ele>
        <time>2019-05-07T10:17:15Z</time>
      </trkpt>
      <trkpt lat="48.11272" lon="7.1007">
        <ele>968</ele>
        <time>2019-05-07T10:18:15Z</time>
      </trkpt>
      <trkpt lat="48.11268" lon="7.10037">
        <ele>962</ele>
        <time>2019-05-07T10:19:15Z</time>
      </trkpt>
      <trkpt lat="48.11276" lon="7.1001">
        <ele>962</ele>
        <time>2019-05-07T10:20:15Z</time>
      </trkpt>
      <trkpt lat="48.11288" lon="7.09988">
        <ele>962</ele>
        <time>2019-05-07T10:21:15Z</time>
      </trkpt>
      <trkpt lat="48.1128" lon="7.09993">
        <ele>961</ele>
        <time>2019-05-07T10:22:15Z</time>
      </trkpt>
      <trkpt lat="48.11272" lon="7.10003">
        <ele>960</ele>
        <time>2019-05-07T10:23:15Z</time>
      </trkpt>
      <trkpt lat="48.11261" lon="7.1">
        <ele>956</ele>
        <time>2019-05-07T10:24:15Z</time>
      </trkpt>
      <trkpt lat="48.11236" lon="7.10004">
        <ele>959</ele>
        <time>2019-05-07T10:25:15Z</time>
      </trkpt>
      <trkpt lat="48.1123" lon="7.10016">
        <ele>962</ele>
        <time>2019-05-07T10:26:15Z</time>
      </trkpt>
      <trkpt lat="48.11228" lon="7.10066">
        <ele>967</ele>
        <time>2019-05-07T10:27:15Z</time>
      </trkpt>
      <trkpt lat="48.11223" lon="7.101">
        <ele>970</ele>
        <time>2019-05-07T10:28:15Z</time>
      </trkpt>
      <trkpt lat="48.11219" lon="7.10117">
        <ele>970</ele>
        <time>2019-05-07T10:29:15Z</time>
      </trkpt>
      <trkpt lat="48.11213" lon="7.10129">
        <ele>971</ele>
        <time>2019-05-07T10:30:15Z</time>
      </trkpt>
      <trkpt lat="48.11198" lon="7.10152">
        <ele>974</ele>
        <time>2019-05-07T10:31:15Z</time>
      </trkpt>
      <trkpt lat="48.11154" lon="7.10199">
        <ele>978</ele>
        <time>2019-05-07T10:32:15Z</time>
      </trkpt>
      <trkpt lat="48.11131" lon="7.10227">
        <ele>979</ele>
        <time>2019-05-07T10:33:15Z</time>
      </trkpt>
      <trkpt lat="48.11088" lon="7.1027">
        <ele>980</ele>
        <time>2019-05-07T10:34:15Z</time>
      </trkpt>
      <trkpt lat="48.11069" lon="7.10284">
        <ele>978</ele>
        <time>2019-05-07T10:35:15Z</time>
      </trkpt>
      <trkpt lat="48.11029" lon="7.10299">
        <ele>976</ele>
        <time>2019-05-07T10:36:15Z</time>
      </trkpt>
      <trkpt lat="48.10995" lon="7.10317">
        <ele>973</ele>
        <time>2019-05-07T10:37:15Z</time>
      </trkpt>
      <trkpt lat="48.10983" lon="7.1032">
        <ele>972</ele>
        <time>2019-05-07T10:38:15Z</time>
      </trkpt>
      <trkpt lat="48.10912" lon="7.10325">
        <ele>973</ele>
        <time>2019-05-07T10:39:15Z</time>
      </trkpt>
      <trkpt lat="48.10889" lon="7.10332">
        <ele>973</ele>
        <time>2019-05-07T10:40:15Z</time>
      </trkpt>
      <trkpt lat="48.10822" lon="7.10345">
        <ele>974</ele>
        <time>2019-05-07T10:41:15Z</time>
      </trkpt>
      <trkpt lat="48.10796" lon="7.10343">
        <ele>973</ele>
        <time>2019-05-07T10:42:15Z</time>
      </trkpt>
      <trkpt lat="48.10762" lon="7.10325">
        <ele>976</ele>
        <time>2019-05-07T10:43:15Z</time>
      </trkpt>
      <trkpt lat="48.10738" lon="7.10328">
        <ele>976</ele>
        <time>2019-05-07T10:44:15Z</time>
      </trkpt>
      <trkpt lat="48.10703" lon="7.10338">
        <ele>974</ele>
        <time>2019-05-07T10:45:15Z</time>
      </trkpt>
      <trkpt lat="48.10666" lon="7.10344">
        <ele>973</ele>
        <time>2019-05-07T10:46:15Z</time>
      </trkpt>
      <trkpt lat="48.10619" lon="7.10324">
        <ele>980</ele>
        <time>2019-05-07T10:47:15Z</time>
      </trkpt>
      <trkpt lat="48.10606" lon="7.10322">
        <ele>981</ele>
        <time>2019-05-07T10:48:15Z</time>
      </trkpt>
      <trkpt lat="48.10593" lon="7.10325">
        <ele>980</ele>
        <time>2019-05-07T10:49:15Z</time>
      </trkpt>
      <trkpt lat="48.10581" lon="7.10332">
        <ele>978</ele>
        <time>2019-05-07T10:50:15Z</time>
      </trkpt>
      <trkpt lat="48.10571" lon="7.10344">
        <ele>976</ele>
        <time>2019-05-07T10:51:15Z</time>
      </trkpt>
      <trkpt lat="48.1052" lon="7.10386">
        <ele>970</ele>
        <time>2019-05-07T10:52:15Z</time>
      </trkpt>
      <trkpt lat="48.10493" lon="7.10413">
        <ele>965</ele>
        <time>2019-05-07T10:53:15Z</time>
      </trkpt>
      <trkpt lat="48.1045" lon="7.10431">
        <ele>965</ele>
        <time>2019-05-07T10:54:15Z</time>
      </trkpt>
      <trkpt lat="48.10405" lon="7.10466">
        <ele>963</ele>
        <time>2019-05-07T10:55:15Z</time>
      </trkpt>
      <trkpt lat="48.1035" lon="7.10526">
        <ele>959</ele>
        <time>2019-05-07T10:56:15Z</time>
      </trkpt>
      <trkpt lat="48.10304" lon="7.10571">
        <ele>957</ele>
        <time>2019-05-07T10:57:15Z</time>
      </trkpt>
      <trkpt lat="48.10291" lon="7.1058">
        <ele>958</ele>
        <time>2019-05-07T10:58:15Z</time>
      </trkpt>
      <trkpt lat="48.10259" lon="7.10601">
        <ele>962</ele>
        <time>2019-05-07T10:59:15Z</time>
      </trkpt>
      <trkpt lat="48.10195" lon="7.10618">
        <ele>968</ele>
        <time>2019-05-07T11:00:15Z</time>
      </trkpt>
      <trkpt lat="48.1017" lon="7.10631">
        <ele>970</ele>
        <time>2019-05-07T11:01:15Z</time>
      </trkpt>
      <trkpt lat="48.10125" lon="7.10646">
        <ele>972</ele>
        <time>2019-05-07T11:02:15Z</time>
      </trkpt>
      <trkpt lat="48.10082" lon="7.10669">
        <ele>974</ele>
        <time>2019-05-07T11:03:15Z</time>
      </trkpt>
      <trkpt lat="48.10072" lon="7.10672">
        <ele>973</ele>
        <time>2019-05-07T11:04:15Z</time>
      </trkpt>
      <trkpt lat="48.10061" lon="7.10672">
        <ele>973</ele>
        <time>2019-05-07T11:05:15Z</time>
      </trkpt>
      <trkpt lat="48.10038" lon="7.1067">
        <ele>973</ele>
        <time>2019-05-07T11:06:15Z</time>
      </trkpt>
      <trkpt lat="48.10025" lon="7.10666">
        <ele>973</ele>
        <time>2019-05-07T11:07:15Z</time>
      </trkpt>
      <trkpt lat="48.09984" lon="7.1065">
        <ele>973</ele>
        <time>2019-05-07T11:08:15Z</time>
      </trkpt>
      <trkpt lat="48.09957" lon="7.10633">
        <ele>973</ele>
        <time>2019-05-07T11:09:15Z</time>
      </trkpt>
      <trkpt lat="48.09909" lon="7.10614">
        <ele>970</ele>
        <time>2019-05-07T11:10:15Z</time>
      </trkpt>
      <trkpt lat="48.09899" lon="7.10614">
        <ele>969</ele>
        <time>2019-05-07T11:11:15Z</time>
      </trkpt>
      <trkpt lat="48.098" lon="7.1057">
        <ele>967</ele>
        <time>2019-05-07T11:12:15Z</time>
      </trkpt>
      <trkpt lat="48.09741" lon="7.10549">
        <ele>965</ele>
        <time>2019-05-07T11:13:15Z</time>
      </trkpt>
      <trkpt lat="48.09704" lon="7.10533">
        <ele>964</ele>
        <time>2019-05-07T11:14:15Z</time>
      </trkpt>
      <trkpt lat="48.09664" lon="7.10526">
        <ele>962</ele>
        <time>2019-05-07T11:15:15Z</time>
      </trkpt>
      <trkpt lat="48.09653" lon="7.10526">
        <ele>961</ele>
        <time>2019-05-07T11:16:15Z</time>
      </trkpt>
      <trkpt lat="48.0964" lon="7.1053">
        <ele>960</ele>
        <time>2019-05-07T11:17:15Z</time>
      </trkpt>
      <trkpt lat="48.09628" lon="7.10539">
        <ele>960</ele>
        <time>2019-05-07T11:18:15Z</time>
      </trkpt>
      <trkpt lat="48.09513" lon="7.10658">
        <ele>957</ele>
        <time>2019-05-07T11:19:15Z</time>
      </trkpt>
      <trkpt lat="48.09447" lon="7.10715">
        <ele>956</ele>
        <time>2019-05-07T11:20:15Z</time>
      </trkpt>
      <trkpt lat="48.09421" lon="7.10744">
        <ele>958</ele>
        <time>2019-05-07T11:21:15Z</time>
      </trkpt>
      <trkpt lat="48.09357" lon="7.10794">
        <ele>956</ele>
        <time>2019-05-07T11:22:15Z</time>
      </trkpt>
      <trkpt lat="48.09336" lon="7.10813">
        <ele>956</ele>
        <time>2019-05-07T11:23:15Z</time>
      </trkpt>
      <trkpt lat="48.09316" lon="7.10833">
        <ele>957</ele>
        <time>2019-05-07T11:24:15Z</time>
      </trkpt>
      <trkpt lat="48.09282" lon="7.10878">
        <ele>957</ele>
        <time>2019-05-07T11:25:15Z</time>
      </trkpt>
      <trkpt lat="48.09253" lon="7.10907">
        <ele>959</ele>
        <time>2019-05-07T11:26:15Z</time>
      </trkpt>
      <trkpt lat="48.09245" lon="7.10919">
        <ele>959</ele>
        <time>2019-05-07T11:27:15Z</time>
      </trkpt>
      <trkpt lat="48.0921" lon="7.10954">
        <ele>960</ele>
        <time>2019-05-07T11:28:15Z</time>
      </trkpt>
      <trkpt lat="48.0919" lon="7.10969">
        <ele>961</ele>
        <time>2019-05-07T11:29:15Z</time>
      </trkpt>
      <trkpt lat="48.09163" lon="7.10994">
        <ele>962</ele>
        <time>2019-05-07T11:30:15Z</time>
      </trkpt>
      <trkpt lat="48.09142" lon="7.11024">
        <ele>960</ele>
        <time>2019-05-07T11:31:15Z</time>
      </trkpt>
      <trkpt lat="48.09132" lon="7.11034">
        <ele>959</ele>
        <time>2019-05-07T11:32:15Z</time>
      </trkpt>
      <trkpt lat="48.09112" lon="7.11077">
        <ele>957</ele>
        <time>2019-05-07T11:33:15Z</time>
      </trkpt>
      <trkpt lat="48.09109" lon="7.11107">
        <ele>955</ele>
        <time>2019-05-07T11:34:15Z</time>
      </trkpt>
      <trkpt lat="48.09102" lon="7.11138">
        <ele>954</ele>
        <time>2019-05-07T11:35:15Z</time>
      </trkpt>
      <trkpt lat="48.09105" lon="7.11184">
        <ele>952</ele>
        <time>2019-05-07T11:36:15Z</time>
      </trkpt>
      <trkpt lat="48.09101" lon="7.112">
        <ele>952</ele>
        <time>2019-05-07T11:37:15Z</time>
      </trkpt>
      <trkpt lat="48.0909" lon="7.11225">
        <ele>952</ele>
        <time>2019-05-07T11:38:15Z</time>
      </trkpt>
      <trkpt lat="48.0909" lon="7.1124">
        <ele>952</ele>
        <time>2019-05-07T11:39:15Z</time>
      </trkpt>
      <trkpt lat="48.09096" lon="7.1127">
        <ele>952</ele>
        <time>2019-05-07T11:40:15Z</time>
      </trkpt>
      <trkpt lat="48.0909" lon="7.11297">
        <ele>954</ele>
        <time>2019-05-07T11:41:15Z</time>
      </trkpt>
      <trkpt lat="48.09089" lon="7.11344">
        <ele>957</ele>
        <time>2019-05-07T11:42:15Z</time>
      </trkpt>
      <trkpt lat="48.09086" lon="7.11358">
        <ele>957</ele>
        <time>2019-05-07T11:43:15Z</time>
      </trkpt>
      <trkpt lat="48.09081" lon="7.11422">
        <ele>956</ele>
        <time>2019-05-07T11:44:15Z</time>
      </trkpt>
      <trkpt lat="48.09076" lon="7.11441">
        <ele>954</ele>
        <time>2019-05-07T11:45:15Z</time>
      </trkpt>
      <trkpt lat="48.09062" lon="7.11466">
        <ele>951</ele>
        <time>2019-05-07T11:46:15Z</time>
      </trkpt>
      <trkpt lat="48.09061" lon="7.11482">
        <ele>950</ele>
        <time>2019-05-07T11:47:15Z</time>
      </trkpt>
      <trkpt lat="48.09064" lon="7.11497">
        <ele>950</ele>
        <time>2019-05-07T11:48:15Z</time>
      </trkpt>
      <trkpt lat="48.0908" lon="7.11516">
        <ele>952</ele>
        <time>2019-05-07T11:49:15Z</time>
      </trkpt>
      <trkpt lat="48.09093" lon="7.11559">
        <ele>947</ele>
        <time>2019-05-07T11:50:15Z</time>
      </trkpt>
      <trkpt lat="48.09085" lon="7.11572">
        <ele>946</ele>
        <time>2019-05-07T11:51:15Z</time>
      </trkpt>
      <trkpt lat="48.09082" lon="7.11599">
        <ele>942</ele>
        <time>2019-05-07T11:52:15Z</time>
      </trkpt>
      <trkpt lat="48.09075" lon="7.11609">
        <ele>939</ele>
        <time>2019-05-07T11:53:15Z</time>
      </trkpt>
      <trkpt lat="48.09066" lon="7.11614">
        <ele>937</ele>
        <time>2019-05-07T11:54:15Z</time>
      </trkpt>
      <trkpt lat="48.09045" lon="7.11609">
        <ele>933</ele>
        <time>2019-05-07T11:55:15Z</time>
      </trkpt>
      <trkpt lat="48.09026" lon="7.11598">
        <ele>931</ele>
        <time>2019-05-07T11:56:15Z</time>
      </trkpt>
      <trkpt lat="48.08982" lon="7.11591">
        <ele>922</ele>
        <time>2019-05-07T11:57:15Z</time>
      </trkpt>
      <trkpt lat="48.0896" lon="7.1158">
        <ele>918</ele>
        <time>2019-05-07T11:58:15Z</time>
      </trkpt>
      <trkpt lat="48.0895" lon="7.11572">
        <ele>916</ele>
        <time>2019-05-07T11:59:15Z</time>
      </trkpt>
      <trkpt lat="48.08936" lon="7.11553">
        <ele>913</ele>
        <time>2019-05-07T12:00:15Z</time>
      </trkpt>
      <trkpt lat="48.08927" lon="7.11548">
        <ele>911</ele>
        <time>2019-05-07T12:01:15Z</time>
      </trkpt>
      <trkpt lat="48.08917" lon="7.11544">
        <ele>908</ele>
        <time>2019-05-07T12:02:15Z</time>
      </trkpt>
      <trkpt lat="48.08908" lon="7.11545">
        <ele>907</ele>
        <time>2019-05-07T12:03:15Z</time>
      </trkpt>
      <trkpt lat="48.08888" lon="7.11539">
        <ele>904</ele>
        <time>2019-05-07T12:04:15Z</time>
      </trkpt>
      <trkpt lat="48.08865" lon="7.11539">
        <ele>900</ele>
        <time>2019-05-07T12:05:15Z</time>
      </trkpt>
      <trkpt lat="48.0883" lon="7.11578">
        <ele>894</ele>
        <time>2019-05-07T12:06:15Z</time>
      </trkpt>
      <trkpt lat="48.08791" lon="7.11607">
        <ele>889</ele>
        <time>2019-05-07T12:07:15Z</time>
      </trkpt>
      <trkpt lat="48.08781" lon="7.11631">
        <ele>889</ele>
        <time>2019-05-07T12:08:15Z</time>
      </trkpt>
      <trkpt lat="48.08735" lon="7.11672">
        <ele>891</ele>
        <time>2019-05-07T12:09:15Z</time>
      </trkpt>
      <trkpt lat="48.08705" lon="7.11714">
        <ele>895</ele>
        <time>2019-05-07T12:10:15Z</time>
      </trkpt>
      <trkpt lat="48.08696" lon="7.11723">
        <ele>896</ele>
        <time>2019-05-07T12:11:15Z</time>
      </trkpt>
      <trkpt lat="48.08685" lon="7.11729">
        <ele>897</ele>
        <time>2019-05-07T12:12:15Z</time>
      </trkpt>
      <trkpt lat="48.08655" lon="7.11734">
        <ele>901</ele>
        <time>2019-05-07T12:13:15Z</time>
      </trkpt>
      <trkpt lat="48.08646" lon="7.11739">
        <ele>903</ele>
        <time>2019-05-07T12:14:15Z</time>
      </trkpt>
      <trkpt lat="48.08594" lon="7.11791">
        <ele>912</ele>
        <time>2019-05-07T12:15:15Z</time>
      </trkpt>
      <trkpt lat="48.08559" lon="7.1182">
        <ele>917</ele>
        <time>2019-05-07T12:16:15Z</time>
      </trkpt>
      <trkpt lat="48.08532" lon="7.11836">
        <ele>921</ele>
        <time>2019-05-07T12:17:15Z</time>
      </trkpt>
      <trkpt lat="48.08523" lon="7.11835">
        <ele>922</ele>
        <time>2019-05-07T12:18:15Z</time>
      </trkpt>
      <trkpt lat="48.08479" lon="7.11866">
        <ele>926</ele>
        <time>2019-05-07T12:19:15Z</time>
      </trkpt>
      <trkpt lat="48.08472" lon="7.11874">
        <ele>926</ele>
        <time>2019-05-07T12:20:15Z</time>
      </trkpt>
      <trkpt lat="48.08462" lon="7.11875">
        <ele>926</ele>
        <time>2019-05-07T12:21:15Z</time>
      </trkpt>
      <trkpt lat="48.08429" lon="7.11908">
        <ele>927</ele>
        <time>2019-05-07T12:22:15Z</time>
      </trkpt>
      <trkpt lat="48.08409" lon="7.11944">
        <ele>930</ele>
        <time>2019-05-07T12:23:15Z</time>
      </trkpt>
      <trkpt lat="48.0839" lon="7.11953">
        <ele>928</ele>
        <time>2019-05-07T12:24:15Z</time>
      </trkpt>
      <trkpt lat="48.08383" lon="7.11964">
        <ele>929</ele>
        <time>2019-05-07T12:25:15Z</time>
      </trkpt>
      <trkpt lat="48.08344" lon="7.11984">
        <ele>929</ele>
        <time>2019-05-07T12:26:15Z</time>
      </trkpt>
      <trkpt lat="48.08325" lon="7.12002">
        <ele>932</ele>
        <time>2019-05-07T12:27:15Z</time>
      </trkpt>
      <trkpt lat="48.08313" lon="7.12008">
        <ele>932</ele>
        <time>2019-05-07T12:28:15Z</time>
      </trkpt>
      <trkpt lat="48.08251" lon="7.12016">
        <ele>929</ele>
        <time>2019-05-07T12:29:15Z</time>
      </trkpt>
      <trkpt lat="48.08233" lon="7.12022">
        <ele>928</ele>
        <time>2019-05-07T12:30:15Z</time>
      </trkpt>
      <trkpt lat="48.08215" lon="7.12038">
        <ele>930</ele>
        <time>2019-05-07T12:31:15Z</time>
      </trkpt>
      <trkpt lat="48.08185" lon="7.12047">
        <ele>928</ele>
        <time>2019-05-07T12:32:15Z</time>
      </trkpt>
      <trkpt lat="48.0814" lon="7.12081">
        <ele>927</ele>
        <time>2019-05-07T12:33:15Z</time>
      </trkpt>
      <trkpt lat="48.08109" lon="7.12109">
        <ele>926</ele>
        <time>2019-05-07T12:34:15Z</time>
      </trkpt>
      <trkpt lat="48.0807" lon="7.1215">
        <ele>928</ele>
        <time>2019-05-07T12:35:15Z</time>
      </trkpt>
      <trkpt lat="48.08061" lon="7.12155">
        <ele>929</ele>
        <time>2019-05-07T12:36:15Z</time>
      </trkpt>
      <trkpt lat="48.08027" lon="7.12164">
        <ele>927</ele>
        <time>2019-05-07T12:37:15Z</time>
      </trkpt>
      <trkpt lat="48.07997" lon="7.12151">
        <ele>921</ele>
        <time>2019-05-07T12:38:15Z</time>
      </trkpt>
      <trkpt lat="48.07979" lon="7.12156">
        <ele>923</ele>
        <time>2019-05-07T12:39:15Z</time>
      </trkpt>
      <trkpt lat="48.07972" lon="7.12167">
        <ele>925</ele>
        <time>2019-05-07T12:40:15Z</time>
      </trkpt>
      <trkpt lat="48.07978" lon="7.12178">
        <ele>925</ele>
        <time>2019-05-07T12:41:15Z</time>
      </trkpt>
      <trkpt lat="48.07957" lon="7.12211">
        <ele>925</ele>
        <time>2019-05-07T12:42:15Z</time>
      </trkpt>
      <trkpt lat="48.07966" lon="7.12218">
        <ele>926</ele>
        <time>2019-05-07T12:43:15Z</time>
      </trkpt>
      <trkpt lat="48.07982" lon="7.12272">
        <ele>930</ele>
        <time>2019-05-07T12:44:15Z</time>
      </trkpt>
      <trkpt lat="48.0799" lon="7.12281">
        <ele>932</ele>
        <time>2019-05-07T12:45:15Z</time>
      </trkpt>
      <trkpt lat="48.08" lon="7.12284">
        <ele>934</ele>
        <time>2019-05-07T12:46:15Z</time>
      </trkpt>
      <trkpt lat="48.08017" lon="7.12298">
        <ele>937</ele>
        <time>2019-05-07T12:47:15Z</time>
      </trkpt>
      <trkpt lat="48.08026" lon="7.12298">
        <ele>939</ele>
        <time>2019-05-07T12:48:15Z</time>
      </trkpt>
      <trkpt lat="48.08034" lon="7.12306">
        <ele>941</ele>
        <time>2019-05-07T12:49:15Z</time>
      </trkpt>
      <trkpt lat="48.08032" lon="7.12338">
        <ele>941</ele>
        <time>2019-05-07T12:50:15Z</time>
      </trkpt>
      <trkpt lat="48.08041" lon="7.12428">
        <ele>941</ele>
        <time>2019-05-07T12:51:15Z</time>
      </trkpt>
      <trkpt lat="48.08049" lon="7.12472">
        <ele>939</ele>
        <time>2019-05-07T12:52:15Z</time>
      </trkpt>
      <trkpt lat="48.08047" lon="7.12489">
        <ele>937</ele>
        <time>2019-05-07T12:53:15Z</time>
      </trkpt>
      <trkpt lat="48.08041" lon="7.12506">
        <ele>936</ele>
        <time>2019-05-07T12:54:15Z</time>
      </trkpt>
      <trkpt lat="48.08019" lon="7.12544">
        <ele>936</ele>
        <time>2019-05-07T12:55:15Z</time>
      </trkpt>
      <trkpt lat="48.08002" lon="7.1258">
        <ele>937</ele>
        <time>2019-05-07T12:56:15Z</time>
      </trkpt>
      <trkpt lat="48.07986" lon="7.12603">
        <ele>939</ele>
        <time>2019-05-07T12:57:15Z</time>
      </trkpt>
      <trkpt lat="48.07967" lon="7.12605">
        <ele>940</ele>
        <time>2019-05-07T12:58:15Z</time>
      </trkpt>
      <trkpt lat="48.07961" lon="7.12617">
        <ele>942</ele>
        <time>2019-05-07T12:59:15Z</time>
      </trkpt>
      <trkpt lat="48.07943" lon="7.12623">
        <ele>943</ele>
        <time>2019-05-07T13:00:15Z</time>
      </trkpt>
      <trkpt lat="48.07924" lon="7.12622">
        <ele>944</ele>
        <time>2019-05-07T13:01:15Z</time>
      </trkpt>
      <trkpt lat="48.07913" lon="7.12625">
        <ele>945</ele>
        <time>2019-05-07T13:02:15Z</time>
      </trkpt>
      <trkpt lat="48.07903" lon="7.12632">
        <ele>945</ele>
        <time>2019-05-07T13:03:15Z</time>
      </trkpt>
      <trkpt lat="48.07894" lon="7.12635">
        <ele>945</ele>
        <time>2019-05-07T13:04:15Z</time>
      </trkpt>
      <trkpt lat="48.07887" lon="7.12646">
        <ele>946</ele>
        <time>2019-05-07T13:05:15Z</time>
      </trkpt>
      <trkpt lat="48.07874" lon="7.1269">
        <ele>948</ele>
        <time>2019-05-07T13:06:15Z</time>
      </trkpt>
      <trkpt lat="48.07868" lon="7.12702">
        <ele>948</ele>
        <time>2019-05-07T13:07:15Z</time>
      </trkpt>
      <trkpt lat="48.07854" lon="7.1275">
        <ele>946</ele>
        <time>2019-05-07T13:08:15Z</time>
      </trkpt>
      <trkpt lat="48.07854" lon="7.12802">
        <ele>946</ele>
        <time>2019-05-07T13:09:15Z</time>
      </trkpt>
      <trkpt lat="48.07845" lon="7.12849">
        <ele>945</ele>
        <time>2019-05-07T13:10:15Z</time>
      </trkpt>
      <trkpt lat="48.07839" lon="7.12861">
        <ele>944</ele>
        <time>2019-05-07T13:11:15Z</time>
      </trkpt>
      <trkpt lat="48.07814" lon="7.12889">
        <ele>942</ele>
        <time>2019-05-07T13:12:15Z</time>
      </trkpt>
      <trkpt lat="48.07813" lon="7.12907">
        <ele>943</ele>
        <time>2019-05-07T13:13:15Z</time>
      </trkpt>
      <trkpt lat="48.07818" lon="7.12952">
        <ele>946</ele>
        <time>2019-05-07T13:14:15Z</time>
      </trkpt>
      <trkpt lat="48.07813" lon="7.12981">
        <ele>948</ele>
        <time>2019-05-07T13:15:15Z</time>
      </trkpt>
      <trkpt lat="48.07788" lon="7.13024">
        <ele>950</ele>
        <time>2019-05-07T13:16:15Z</time>
      </trkpt>
      <trkpt lat="48.07781" lon="7.13051">
        <ele>952</ele>
        <time>2019-05-07T13:17:15Z</time>
      </trkpt>
      <trkpt lat="48.07776" lon="7.13112">
        <ele>957</ele>
        <time>2019-05-07T13:18:15Z</time>
      </trkpt>
      <trkpt lat="48.07778" lon="7.13155">
        <ele>960</ele>
        <time>2019-05-07T13:19:15Z</time>
      </trkpt>
      <trkpt lat="48.07777" lon="7.13226">
        <ele>964</ele>
        <time>2019-05-07T13:20:15Z</time>
      </trkpt>
      <trkpt lat="48.07781" lon="7.13271">
        <ele>968</ele>
        <time>2019-05-07T13:21:15Z</time>
      </trkpt>
      <trkpt lat="48.07778" lon="7.13303">
        <ele>972</ele>
        <time>2019-05-07T13:22:15Z</time>
      </trkpt>
      <trkpt lat="48.07779" lon="7.13317">
        <ele>974</ele>
        <time>2019-05-07T13:23:15Z</time>
      </trkpt>
      <trkpt lat="48.07766" lon="7.13343">
        <ele>976</ele>
        <time>2019-05-07T13:24:15Z</time>
      </trkpt>
      <trkpt lat="48.07751" lon="7.1335">
        <ele>975</ele>
        <time>2019-05-07T13:25:15Z</time>
      </trkpt>
      <trkpt lat="48.07735" lon="7.13333">
        <ele>974</ele>
        <time>2019-05-07T13:26:15Z</time>
      </trkpt>
      <trkpt lat="48.07696" lon="7.1331">
        <ele>974</ele>
        <time>2019-05-07T13:27:15Z</time>
      </trkpt>
      <trkpt lat="48.07691" lon="7.13298">
        <ele>974</ele>
        <time>2019-05-07T13:28:15Z</time>
      </trkpt>
      <trkpt lat="48.07681" lon="7.13296">
        <ele>974</ele>
        <time>2019-05-07T13:29:15Z</time>
      </trkpt>
      <trkpt lat="48.07673" lon="7.13286">
        <ele>975</ele>
        <time>2019-05-07T13:30:15Z</time>
      </trkpt>
      <trkpt lat="48.07661" lon="7.13258">
        <ele>976</ele>
        <time>2019-05-07T13:31:15Z</time>
      </trkpt>
      <trkpt lat="48.07642" lon="7.13245">
        <ele>978</ele>
        <time>2019-05-07T13:32:15Z</time>
      </trkpt>
      <trkpt lat="48.07619" lon="7.13219">
        <ele>979</ele>
        <time>2019-05-07T13:33:15Z</time>
      </trkpt>
      <trkpt lat="48.07608" lon="7.13212">
        <ele>980</ele>
        <time>2019-05-07T13:34:15Z</time>
      </trkpt>
      <trkpt lat="48.07597" lon="7.13218">
        <ele>981</ele>
        <time>2019-05-07T13:35:15Z</time>
      </trkpt>
      <trkpt lat="48.07578" lon="7.13238">
        <ele>982</ele>
        <time>2019-05-07T13:36:15Z</time>
      </trkpt>
      <trkpt lat="48.07566" lon="7.13242">
        <ele>983</ele>
        <time>2019-05-07T13:37:15Z</time>
      </trkpt>
      <trkpt lat="48.07545" lon="7.13231">
        <ele>983</ele>
        <time>2019-05-07T13:38:15Z</time>
      </trkpt>
      <trkpt lat="48.07542" lon="7.13216">
        <ele>984</ele>
        <time>2019-05-07T13:39:15Z</time>
      </trkpt>
      <trkpt lat="48.07532" lon="7.13214">
        <ele>984</ele>
        <time>2019-05-07T13:40:15Z</time>
      </trkpt>
      <trkpt lat="48.07521" lon="7.13207">
        <ele>984</ele>
        <time>2019-05-07T13:41:15Z</time>
      </trkpt>
      <trkpt lat="48.07514" lon="7.13199">
        <ele>985</ele>
        <time>2019-05-07T13:42:15Z</time>
      </trkpt>
      <trkpt lat="48.07505" lon="7.13199">
        <ele>985</ele>
        <time>2019-05-07T13:43:15Z</time>
      </trkpt>
      <trkpt lat="48.07496" lon="7.13195">
        <ele>985</ele>
        <time>2019-05-07T13:44:15Z</time>
      </trkpt>
      <trkpt lat="48.07494" lon="7.13182">
        <ele>985</ele>
        <time>2019-05-07T13:45:15Z</time>
      </trkpt>
      <trkpt lat="48.07497" lon="7.13167">
        <ele>986</ele>
        <time>2019-05-07T13:46:15Z</time>
      </trkpt>
      <trkpt lat="48.07511" lon="7.13149">
        <ele>985</ele>
        <time>2019-05-07T13:47:15Z</time>
      </trkpt>
      <trkpt lat="48.07519" lon="7.13156">
        <ele>985</ele>
        <time>2019-05-07T13:48:15Z</time>
      </trkpt>
      <trkpt lat="48.07531" lon="7.13173">
        <ele>985</ele>
        <time>2019-05-07T13:49:15Z</time>
      </trkpt>
      <trkpt lat="48.07539" lon="7.13201">
        <ele>984</ele>
        <time>2019-05-07T13:50:15Z</time>
      </trkpt>
      <trkpt lat="48.0754" lon="7.13214">
        <ele>984</ele>
        <time>2019-05-07T13:51:15Z</time>
      </trkpt>
      <trkpt lat="48.07554" lon="7.13235">
        <ele>983</ele>
        <time>2019-05-07T13:52:15Z</time>
      </trkpt>
      <trkpt lat="48.07565" lon="7.13239">
        <ele>983</ele>
        <time>2019-05-07T13:53:15Z</time>
      </trkpt>
      <trkpt lat="48.07574" lon="7.13237">
        <ele>982</ele>
        <time>2019-05-07T13:54:15Z</time>
      </trkpt>
      <trkpt lat="48.076" lon="7.1322">
        <ele>981</ele>
        <time>2019-05-07T13:55:15Z</time>
      </trkpt>
      <trkpt lat="48.0761" lon="7.1322">
        <ele>980</ele>
        <time>2019-05-07T13:56:15Z</time>
      </trkpt>
      <trkpt lat="48.07628" lon="7.13235">
        <ele>979</ele>
        <time>2019-05-07T13:57:15Z</time>
      </trkpt>
      <trkpt lat="48.07657" lon="7.13254">
        <ele>977</ele>
        <time>2019-05-07T13:58:15Z</time>
      </trkpt>
      <trkpt lat="48.07676" lon="7.13293">
        <ele>974</ele>
        <time>2019-05-07T13:59:15Z</time>
      </trkpt>
      <trkpt lat="48.07685" lon="7.13293">
        <ele>974</ele>
        <time>2019-05-07T14:00:15Z</time>
      </trkpt>
      <trkpt lat="48.07693" lon="7.13303">
        <ele>974</ele>
        <time>2019-05-07T14:01:15Z</time>
      </trkpt>
      <trkpt lat="48.07722" lon="7.13322">
        <ele>973</ele>
        <time>2019-05-07T14:02:15Z</time>
      </trkpt>
      <trkpt lat="48.07732" lon="7.13326">
        <ele>974</ele>
        <time>2019-05-07T14:03:15Z</time>
      </trkpt>
      <trkpt lat="48.07779" lon="7.13377">
        <ele>980</ele>
        <time>2019-05-07T14:04:15Z</time>
      </trkpt>
      <trkpt lat="48.07778" lon="7.13424">
        <ele>984</ele>
        <time>2019-05-07T14:05:15Z</time>
      </trkpt>
      <trkpt lat="48.07785" lon="7.13465">
        <ele>989</ele>
        <time>2019-05-07T14:06:15Z</time>
      </trkpt>
      <trkpt lat="48.07795" lon="7.13517">
        <ele>994</ele>
        <time>2019-05-07T14:07:15Z</time>
      </trkpt>
      <trkpt lat="48.07827" lon="7.13639">
        <ele>1004</ele>
        <time>2019-05-07T14:08:15Z</time>
      </trkpt>
      <trkpt lat="48.07842" lon="7.13714">
        <ele>1008</ele>
        <time>2019-05-07T14:09:15Z</time>
      </trkpt>
      <trkpt lat="48.07836" lon="7.13807">
        <ele>1006</ele>
        <time>2019-05-07T14:10:15Z</time>
      </trkpt>
      <trkpt lat="48.07827" lon="7.13865">
        <ele>1004</ele>
        <time>2019-05-07T14:11:15Z</time>
      </trkpt>
      <trkpt lat="48.07832" lon="7.13957">
        <ele>1005</ele>
        <time>2019-05-07T14:12:15Z</time>
      </trkpt>
      <trkpt lat="48.0785" lon="7.14019">
        <ele>1004</ele>
        <time>2019-05-07T14:13:15Z</time>
      </trkpt>
      <trkpt lat="48.07857" lon="7.14033">
        <ele>1004</ele>
        <time>2019-05-07T14:14:15Z</time>
      </trkpt>
      <trkpt lat="48.07876" lon="7.14057">
        <ele>1005</ele>
        <time>2019-05-07T14:15:15Z</time>
      </trkpt>
      <trkpt lat="48.07901" lon="7.14107">
        <ele>1005</ele>
        <time>2019-05-07T14:16:15Z</time>
      </trkpt>
      <trkpt lat="48.07911" lon="7.14134">
        <ele>1004</ele>
        <time>2019-05-07T14:17:15Z</time>
      </trkpt>
      <trkpt lat="48.07927" lon="7.14156">
        <ele>1003</ele>
        <time>2019-05-07T14:18:15Z</time>
      </trkpt>
      <trkpt lat="48.07928" lon="7.14209">
        <ele>997</ele>
        <time>2019-05-07T14:19:15Z</time>
      </trkpt>
      <trkpt lat="48.07922" lon="7.14256">
        <ele>991</ele>
        <time>2019-05-07T14:20:15Z</time>
      </trkpt>
      <trkpt lat="48.07904" lon="7.14334">
        <ele>980</ele>
        <time>2019-05-07T14:21:15Z</time>
      </trkpt>
      <trkpt lat="48.07897" lon="7.14348">
        <ele>979</ele>
        <time>2019-05-07T14:22:15Z</time>
      </trkpt>
      <trkpt lat="48.07894" lon="7.14361">
        <ele>979</ele>
        <time>2019-05-07T14:23:15Z</time>
      </trkpt>
      <trkpt lat="48.079" lon="7.14376">
        <ele>979</ele>
        <time>2019-05-07T14:24:15Z</time>
      </trkpt>
      <trkpt lat="48.07919" lon="7.14398">
        <ele>980</ele>
        <time>2019-05-07T14:25:15Z</time>
      </trkpt>
      <trkpt lat="48.07925" lon="7.1441">
        <ele>979</ele>
        <time>2019-05-07T14:26:15Z</time>
      </trkpt>
      <trkpt lat="48.07941" lon="7.14447">
        <ele>980</ele>
        <time>2019-05-07T14:27:15Z</time>
      </trkpt>
      <trkpt lat="48.07948" lon="7.14477">
        <ele>982</ele>
        <time>2019-05-07T14:28:15Z</time>
      </trkpt>
      <trkpt lat="48.07941" lon="7.14521">
        <ele>985</ele>
        <time>2019-05-07T14:29:15Z</time>
      </trkpt>
      <trkpt lat="48.0794" lon="7.14552">
        <ele>988</ele>
        <time>2019-05-07T14:30:15Z</time>
      </trkpt>
      <trkpt lat="48.07944" lon="7.1461">
        <ele>991</ele>
        <time>2019-05-07T14:31:15Z</time>
      </trkpt>
      <trkpt lat="48.0795" lon="7.14656">
        <ele>993</ele>
        <time>2019-05-07T14:32:15Z</time>
      </trkpt>
      <trkpt lat="48.07966" lon="7.14717">
        <ele>996</ele>
        <time>2019-05-07T14:33:15Z</time>
      </trkpt>
      <trkpt lat="48.07967" lon="7.14732">
        <ele>997</ele>
        <time>2019-05-07T14:34:15Z</time>
      </trkpt>
      <trkpt lat="48.07963" lon="7.14765">
        <ele>999</ele>
        <time>2019-05-07T14:35:15Z</time>
      </trkpt>
      <trkpt lat="48.07946" lon="7.14804">
        <ele>1000</ele>
        <time>2019-05-07T14:36:15Z</time>
      </trkpt>
      <trkpt lat="48.07944" lon="7.14818">
        <ele>1000</ele>
        <time>2019-05-07T14:37:15Z</time>
      </trkpt>
      <trkpt lat="48.07954" lon="7.14879">
        <ele>997</ele>
        <time>2019-05-07T14:38:15Z</time>
      </trkpt>
      <trkpt lat="48.07958" lon="7.14931">
        <ele>994</ele>
        <time>2019-05-07T14:39:15Z</time>
      </trkpt>
      <trkpt lat="48.07952" lon="7.14962">
        <ele>993</ele>
        <time>2019-05-07T14:40:15Z</time>
      </trkpt>
      <trkpt lat="48.07933" lon="7.1501">
        <ele>990</ele>
        <time>2019-05-07T14:41:15Z</time>
      </trkpt>
      <trkpt lat="48.0793" lon="7.15044">
        <ele>987</ele>
        <time>2019-05-07T14:42:15Z</time>
      </trkpt>
      <trkpt lat="48.07943" lon="7.15119">
        <ele>986</ele>
        <time>2019-05-07T14:43:15Z</time>
      </trkpt>
      <trkpt lat="48.07961" lon="7.15187">
        <ele>987</ele>
        <time>2019-05-07T14:44:15Z</time>
      </trkpt>
      <trkpt lat="48.07976" lon="7.15278">
        <ele>986</ele>
        <time>2019-05-07T14:45:15Z</time>
      </trkpt>
      <trkpt lat="48.07986" lon="7.15317">
        <ele>985</ele>
        <time>2019-05-07T14:46:15Z</time>
      </trkpt>
      <trkpt lat="48.07988" lon="7.15338">
        <ele>984</ele>
        <time>2019-05-07T14:47:15Z</time>
      </trkpt>
      <trkpt lat="48.07981" lon="7.15376">
        <ele>981</ele>
        <time>2019-05-07T14:48:15Z</time>
      </trkpt>
      <trkpt lat="48.07952" lon="7.15425">
        <ele>975</ele>
        <time>2019-05-07T14:49:15Z</time>
      </trkpt>
      <trkpt lat="48.07943" lon="7.15445">
        <ele>973</ele>
        <time>2019-05-07T14:50:15Z</time>
      </trkpt>
      <trkpt lat="48.07935" lon="7.15467">
        <ele>972</ele>
        <time>2019-05-07T14:51:15Z</time>
      </trkpt>
      <trkpt lat="48.07932" lon="7.1549">
        <ele>971</ele>
        <time>2019-05-07T14:52:15Z</time>
      </trkpt>
      <trkpt lat="48.07934" lon="7.15514">
        <ele>970</ele>
        <time>2019-05-07T14:53:15Z</time>
      </trkpt>
      <trkpt lat="48.07955" lon="7.15608">
        <ele>964</ele>
        <time>2019-05-07T14:54:15Z</time>
      </trkpt>
      <trkpt lat="48.07972" lon="7.15643">
        <ele>963</ele>
        <time>2019-05-07T14:55:15Z</time>
      </trkpt>
      <trkpt lat="48.07999" lon="7.15713">
        <ele>965</ele>
        <time>2019-05-07T14:56:15Z</time>
      </trkpt>
      <trkpt lat="48.08008" lon="7.15759">
        <ele>966</ele>
        <time>2019-05-07T14:57:15Z</time>
      </trkpt>
      <trkpt lat="48.08029" lon="7.15836">
        <ele>968</ele>
        <time>2019-05-07T14:58:15Z</time>
      </trkpt>
      <trkpt lat="48.08039" lon="7.15882">
        <ele>969</ele>
        <time>2019-05-07T14:59:15Z</time>
      </trkpt>
      <trkpt lat="48.08043" lon="7.15954">
        <ele>972</ele>
        <time>2019-05-07T15:00:15Z</time>
      </trkpt>
      <trkpt lat="48.08049" lon="7.15984">
        <ele>973</ele>
        <time>2019-05-07T15:01:15Z</time>
      </trkpt>
      <trkpt lat="48.08037" lon="7.16044">
        <ele>975</ele>
        <time>2019-05-07T15:02:15Z</time>
      </trkpt>
      <trkpt lat="48.08009" lon="7.16117">
        <ele>975</ele>
        <time>2019-05-07T15:03:15Z</time>
      </trkpt>
      <trkpt lat="48.08002" lon="7.16224">
        <ele>970</ele>
        <time>2019-05-07T15:04:15Z</time>
      </trkpt>
      <trkpt lat="48.08003" lon="7.16239">
        <ele>969</ele>
        <time>2019-05-07T15:05:15Z</time>
      </trkpt>
      <trkpt lat="48.08007" lon="7.16251">
        <ele>969</ele>
        <time>2019-05-07T15:06:15Z</time>
      </trkpt>
      <trkpt lat="48.08007" lon="7.16267">
        <ele>968</ele>
        <time>2019-05-07T15:07:15Z</time>
      </trkpt>
      <trkpt lat="48.08" lon="7.16297">
        <ele>967</ele>
        <time>2019-05-07T15:08:15Z</time>
      </trkpt>
      <trkpt lat="48.07986" lon="7.16323">
        <ele>965</ele>
        <time>2019-05-07T15:09:15Z</time>
      </trkpt>
      <trkpt lat="48.07983" lon="7.16339">
        <ele>964</ele>
        <time>2019-05-07T15:10:15Z</time>
      </trkpt>
      <trkpt lat="48.07972" lon="7.16365">
        <ele>962</ele>
        <time>2019-05-07T15:11:15Z</time>
      </trkpt>
      <trkpt lat="48.07959" lon="7.16432">
        <ele>956</ele>
        <time>2019-05-07T15:12:15Z</time>
      </trkpt>
      <trkpt lat="48.07941" lon="7.16472">
        <ele>953</ele>
        <time>2019-05-07T15:13:15Z</time>
      </trkpt>
      <trkpt lat="48.07928" lon="7.16495">
        <ele>951</ele>
        <time>2019-05-07T15:14:15Z</time>
      </trkpt>
      <trkpt lat="48.07932" lon="7.16514">
        <ele>950</ele>
        <time>2019-05-07T15:15:15Z</time>
      </trkpt>
      <trkpt lat="48.07932" lon="7.16565">
        <ele>946</ele>
        <time>2019-05-07T15:16:15Z</time>
      </trkpt>
      <trkpt lat="48.07923" lon="7.16631">
        <ele>942</ele>
        <time>2019-05-07T15:17:15Z</time>
      </trkpt>
      <trkpt lat="48.07922" lon="7.16717">
        <ele>939</ele>
        <time>2019-05-07T15:18:15Z</time>
      </trkpt>
      <trkpt lat="48.07916" lon="7.16766">
        <ele>938</ele>
        <time>2019-05-07T15:19:15Z</time>
      </trkpt>
      <trkpt lat="48.07916" lon="7.16786">
        <ele>937</ele>
        <time>2019-05-07T15:20:15Z</time>
      </trkpt>
      <trkpt lat="48.07921" lon="7.16816">
        <ele>936</ele>
        <time>2019-05-07T15:21:15Z</time>
      </trkpt>
      <trkpt lat="48.07939" lon="7.16877">
        <ele>934</ele>
        <time>2019-05-07T15:22:15Z</time>
      </trkpt>
      <trkpt lat="48.07957" lon="7.16898">
        <ele>934</ele>
        <time>2019-05-07T15:23:15Z</time>
      </trkpt>
      <trkpt lat="48.07972" lon="7.16925">
        <ele>935</ele>
        <time>2019-05-07T15:24:15Z</time>
      </trkpt>
      <trkpt lat="48.07976" lon="7.16937">
        <ele>935</ele>
        <time>2019-05-07T15:25:15Z</time>
      </trkpt>
      <trkpt lat="48.07975" lon="7.1699">
        <ele>934</ele>
        <time>2019-05-07T15:26:15Z</time>
      </trkpt>
      <trkpt lat="48.07981" lon="7.17019">
        <ele>934</ele>
        <time>2019-05-07T15:27:15Z</time>
      </trkpt>
      <trkpt lat="48.07981" lon="7.17049">
        <ele>933</ele>
        <time>2019-05-07T15:28:15Z</time>
      </trkpt>
      <trkpt lat="48.07984" lon="7.17067">
        <ele>933</ele>
        <time>2019-05-07T15:29:15Z</time>
      </trkpt>
      <trkpt lat="48.07999" lon="7.1711">
        <ele>933</ele>
        <time>2019-05-07T15:30:15Z</time>
      </trkpt>
      <trkpt lat="48.08034" lon="7.17195">
        <ele>930</ele>
        <time>2019-05-07T15:31:15Z</time>
      </trkpt>
      <trkpt lat="48.08101" lon="7.17316">
        <ele>930</ele>
        <time>2019-05-07T15:32:15Z</time>
      </trkpt>
      <trkpt lat="48.08127" lon="7.17369">
        <ele>927</ele>
        <time>2019-05-07T15:33:15Z</time>
      </trkpt>
      <trkpt lat="48.08153" lon="7.17464">
        <ele>929</ele>
        <time>2019-05-07T15:34:15Z</time>
      </trkpt>
      <trkpt lat="48.08168" lon="7.17586">
        <ele>931</ele>
        <time>2019-05-07T15:35:15Z</time>
      </trkpt>
      <trkpt lat="48.08194" lon="7.17635">
        <ele>923</ele>
        <time>2019-05-07T15:36:15Z</time>
      </trkpt>
      <trkpt lat="48.08224" lon="7.17739">
        <ele>924</ele>
        <time>2019-05-07T15:37:15Z</time>
      </trkpt>
      <trkpt lat="48.08242" lon="7.17765">
        <ele>923</ele>
        <time>2019-05-07T15:38:15Z</time>
      </trkpt>
      <trkpt lat="48.08323" lon="7.17854">
        <ele>916</ele>
        <time>2019-05-07T15:39:15Z</time>
      </trkpt>
      <trkpt lat="48.0833" lon="7.17865">
        <ele>916</ele>
        <time>2019-05-07T15:40:15Z</time>
      </trkpt>
      <trkpt lat="48.08341" lon="7.17892">
        <ele>916</ele>
        <time>2019-05-07T15:41:15Z</time>
      </trkpt>
      <trkpt lat="48.08365" lon="7.17969">
        <ele>913</ele>
        <time>2019-05-07T15:42:15Z</time>
      </trkpt>
      <trkpt lat="48.08369" lon="7.18002">
        <ele>914</ele>
        <time>2019-05-07T15:43:15Z</time>
      </trkpt>
      <trkpt lat="48.0837" lon="7.18047">
        <ele>913</ele>
        <time>2019-05-07T15:44:15Z</time>
      </trkpt>
      <trkpt lat="48.08362" lon="7.18073">
        <ele>915</ele>
        <time>2019-05-07T15:45:15Z</time>
      </trkpt>
      <trkpt lat="48.08352" lon="7.18135">
        <ele>916</ele>
        <time>2019-05-07T15:46:15Z</time>
      </trkpt>
      <trkpt lat="48.08347" lon="7.18188">
        <ele>913</ele>
        <time>2019-05-07T15:47:15Z</time>
      </trkpt>
      <trkpt lat="48.08349" lon="7.18207">
        <ele>911</ele>
        <time>2019-05-07T15:48:15Z</time>
      </trkpt>
      <trkpt lat="48.08358" lon="7.18232">
        <ele>907</ele>
        <time>2019-05-07T15:49:15Z</time>
      </trkpt>
      <trkpt lat="48.08401" lon="7.18295">
        <ele>903</ele>
        <time>2019-05-07T15:50:15Z</time>
      </trkpt>
      <trkpt lat="48.0841" lon="7.18342">
        <ele>905</ele>
        <time>2019-05-07T15:51:15Z</time>
      </trkpt>
      <trkpt lat="48.08421" lon="7.18371">
        <ele>904</ele>
        <time>2019-05-07T15:52:15Z</time>
      </trkpt>
      <trkpt lat="48.08437" lon="7.18434">
        <ele>900</ele>
        <time>2019-05-07T15:53:15Z</time>
      </trkpt>
      <trkpt lat="48.08456" lon="7.18462">
        <ele>896</ele>
        <time>2019-05-07T15:54:15Z</time>
      </trkpt>
      <trkpt lat="48.08456" lon="7.18478">
        <ele>896</ele>
        <time>2019-05-07T15:55:15Z</time>
      </trkpt>
      <trkpt lat="48.08461" lon="7.18507">
        <ele>895</ele>
        <time>2019-05-07T15:56:15Z</time>
      </trkpt>
      <trkpt lat="48.08485" lon="7.18565">
        <ele>897</ele>
        <time>2019-05-07T15:57:15Z</time>
      </trkpt>
      <trkpt lat="48.08497" lon="7.18569">
        <ele>898</ele>
        <time>2019-05-07T15:58:15Z</time>
      </trkpt>
      <trkpt lat="48.08515" lon="7.18582">
        <ele>899</ele>
        <time>2019-05-07T15:59:15Z</time>
      </trkpt>
      <trkpt lat="48.08559" lon="7.1859">
        <ele>899</ele>
        <time>2019-05-07T16:00:15Z</time>
      </trkpt>
      <trkpt lat="48.08578" lon="7.1859">
        <ele>899</ele>
        <time>2019-05-07T16:01:15Z</time>
      </trkpt>
      <trkpt lat="48.08601" lon="7.18598">
        <ele>898</ele>
        <time>2019-05-07T16:02:15Z</time>
      </trkpt>
      <trkpt lat="48.08645" lon="7.186">
        <ele>893</ele>
        <time>2019-05-07T16:03:15Z</time>
      </trkpt>
      <trkpt lat="48.08688" lon="7.18614">
        <ele>890</ele>
        <time>2019-05-07T16:04:15Z</time>
      </trkpt>
      <trkpt lat="48.08707" lon="7.18627">
        <ele>891</ele>
        <time>2019-05-07T16:05:15Z</time>
      </trkpt>
      <trkpt lat="48.08719" lon="7.1863">
        <ele>890</ele>
        <time>2019-05-07T16:06:15Z</time>
      </trkpt>
      <trkpt lat="48.08743" lon="7.18623">
        <ele>886</ele>
        <time>2019-05-07T16:07:15Z</time>
      </trkpt>
      <trkpt lat="48.08775" lon="7.18631">
        <ele>886</ele>
        <time>2019-05-07T16:08:15Z</time>
      </trkpt>
      <trkpt lat="48.08818" lon="7.18635">
        <ele>886</ele>
        <time>2019-05-07T16:09:15Z</time>
      </trkpt>
      <trkpt lat="48.0886" lon="7.1863">
        <ele>882</ele>
        <time>2019-05-07T16:10:15Z</time>
      </trkpt>
      <trkpt lat="48.08883" lon="7.18624">
        <ele>879</ele>
        <time>2019-05-07T16:11:15Z</time>
      </trkpt>
      <trkpt lat="48.08927" lon="7.18639">
        <ele>877</ele>
        <time>2019-05-07T16:12:15Z</time>
      </trkpt>
      <trkpt lat="48.08999" lon="7.18668">
        <ele>871</ele>
        <time>2019-05-07T16:13:15Z</time>
      </trkpt>
      <trkpt lat="48.09027" lon="7.18694">
        <ele>870</ele>
        <time>2019-05-07T16:14:15Z</time>
      </trkpt>
      <trkpt lat="48.09067" lon="7.18794">
        <ele>873</ele>
        <time>2019-05-07T16:15:15Z</time>
      </trkpt>
      <trkpt lat="48.09079" lon="7.18846">
        <ele>874</ele>
        <time>2019-05-07T16:16:15Z</time>
      </trkpt>
      <trkpt lat="48.09091" lon="7.18876">
        <ele>869</ele>
        <time>2019-05-07T16:17:15Z</time>
      </trkpt>
      <trkpt lat="48.091" lon="7.18926">
        <ele>865</ele>
        <time>2019-05-07T16:18:15Z</time>
      </trkpt>
      <trkpt lat="48.09094" lon="7.1901">
        <ele>862</ele>
        <time>2019-05-07T16:19:15Z</time>
      </trkpt>
      <trkpt lat="48.0908" lon="7.19131">
        <ele>854</ele>
        <time>2019-05-07T16:20:15Z</time>
      </trkpt>
      <trkpt lat="48.09064" lon="7.19221">
        <ele>843</ele>
        <time>2019-05-07T16:21:15Z</time>
      </trkpt>
      <trkpt lat="48.0906" lon="7.19258">
        <ele>837</ele>
        <time>2019-05-07T16:22:15Z</time>
      </trkpt>
      <trkpt lat="48.09061" lon="7.19273">
        <ele>834</ele>
        <time>2019-05-07T16:23:15Z</time>
      </trkpt>
      <trkpt lat="48.0907" lon="7.1928">
        <ele>831</ele>
        <time>2019-05-07T16:24:15Z</time>
      </trkpt>
      <trkpt lat="48.09091" lon="7.19275">
        <ele>829</ele>
        <time>2019-05-07T16:25:15Z</time>
      </trkpt>
      <trkpt lat="48.09094" lon="7.19289">
        <ele>826</ele>
        <time>2019-05-07T16:26:15Z</time>
      </trkpt>
      <trkpt lat="48.09081" lon="7.19315">
        <ele>823</ele>
        <time>2019-05-07T16:27:15Z</time>
      </trkpt>
      <trkpt lat="48.09045" lon="7.19371">
        <ele>819</ele>
        <time>2019-05-07T16:28:15Z</time>
      </trkpt>
      <trkpt lat="48.09032" lon="7.19407">
        <ele>813</ele>
        <time>2019-05-07T16:29:15Z</time>
      </trkpt>
      <trkpt lat="48.09033" lon="7.19474">
        <ele>803</ele>
        <time>2019-05-07T16:30:15Z</time>
      </trkpt>
      <trkpt lat="48.09058" lon="7.19594">
        <ele>793</ele>
        <time>2019-05-07T16:31:15Z</time>
      </trkpt>
      <trkpt lat="48.09089" lon="7.19677">
        <ele>790</ele>
        <time>2019-05-07T16:32:15Z</time>
      </trkpt>
      <trkpt lat="48.09104" lon="7.19782">
        <ele>785</ele>
        <time>2019-05-07T16:33:15Z</time>
      </trkpt>
      <trkpt lat="48.09133" lon="7.19875">
        <ele>787</ele>
        <time>2019-05-07T16:34:15Z</time>
      </trkpt>
      <trkpt lat="48.09151" lon="7.1995">
        <ele>786</ele>
        <time>2019-05-07T16:35:15Z</time>
      </trkpt>
      <trkpt lat="48.09151" lon="7.20059">
        <ele>785</ele>
        <time>2019-05-07T16:36:15Z</time>
      </trkpt>
      <trkpt lat="48.09153" lon="7.20093">
        <ele>785</ele>
        <time>2019-05-07T16:37:15Z</time>
      </trkpt>
      <trkpt lat="48.09163" lon="7.20154">
        <ele>787</ele>
        <time>2019-05-07T16:38:15Z</time>
      </trkpt>
      <trkpt lat="48.09157" lon="7.20185">
        <ele>783</ele>
        <time>2019-05-07T16:39:15Z</time>
      </trkpt>
      <trkpt lat="48.09175" lon="7.2025">
        <ele>781</ele>
        <time>2019-05-07T16:40:15Z</time>
      </trkpt>
      <trkpt lat="48.09211" lon="7.20313">
        <ele>780</ele>
        <time>2019-05-07T16:41:15Z</time>
      </trkpt>
      <trkpt lat="48.09224" lon="7.20343">
        <ele>779</ele>
        <time>2019-05-07T16:42:15Z</time>
      </trkpt>
      <trkpt lat="48.09226" lon="7.20357">
        <ele>780</ele>
        <time>2019-05-07T16:43:15Z</time>
      </trkpt>
      <trkpt lat="48.09221" lon="7.20375">
        <ele>779</ele>
        <time>2019-05-07T16:44:15Z</time>
      </trkpt>
      <trkpt lat="48.09215" lon="7.20386">
        <ele>778</ele>
        <time>2019-05-07T16:45:15Z</time>
      </trkpt>
      <trkpt lat="48.09205" lon="7.20395">
        <ele>777</ele>
        <time>2019-05-07T16:46:15Z</time>
      </trkpt>
      <trkpt lat="48.0918" lon="7.20409">
        <ele>774</ele>
        <time>2019-05-07T16:47:15Z</time>
      </trkpt>
      <trkpt lat="48.09166" lon="7.20434">
        <ele>774</ele>
        <time>2019-05-07T16:48:15Z</time>
      </trkpt>
      <trkpt lat="48.0916" lon="7.20452">
        <ele>774</ele>
        <time>2019-05-07T16:49:15Z</time>
      </trkpt>
      <trkpt lat="48.09149" lon="7.20509">
        <ele>776</ele>
        <time>2019-05-07T16:50:15Z</time>
      </trkpt>
      <trkpt lat="48.09148" lon="7.20529">
        <ele>776</ele>
        <time>2019-05-07T16:51:15Z</time>
      </trkpt>
      <trkpt lat="48.09152" lon="7.20564">
        <ele>778</ele>
        <time>2019-05-07T16:52:15Z</time>
      </trkpt>
      <trkpt lat="48.09137" lon="7.20595">
        <ele>776</ele>
        <time>2019-05-07T16:53:15Z</time>
      </trkpt>
      <trkpt lat="48.0913" lon="7.20604">
        <ele>775</ele>
        <time>2019-05-07T16:54:15Z</time>
      </trkpt>
      <trkpt lat="48.09131" lon="7.20618">
        <ele>775</ele>
        <time>2019-05-07T16:55:15Z</time>
      </trkpt>
      <trkpt lat="48.09139" lon="7.20626">
        <ele>775</ele>
        <time>2019-05-07T16:56:15Z</time>
      </trkpt>
      <trkpt lat="48.09159" lon="7.2063">
        <ele>777</ele>
        <time>2019-05-07T16:57:15Z</time>
      </trkpt>
      <trkpt lat="48.09167" lon="7.20621">
        <ele>778</ele>
        <time>2019-05-07T16:58:15Z</time>
      </trkpt>
      <trkpt lat="48.09176" lon="7.20622">
        <ele>778</ele>
        <time>2019-05-07T16:59:15Z</time>
      </trkpt>
      <trkpt lat="48.09216" lon="7.20636">
        <ele>777</ele>
        <time>2019-05-07T17:00:15Z</time>
      </trkpt>
      <trkpt lat="48.09225" lon="7.20636">
        <ele>777</ele>
        <time>2019-05-07T17:01:15Z</time>
      </trkpt>
      <trkpt lat="48.0923" lon="7.20648">
        <ele>777</ele>
        <time>2019-05-07T17:02:15Z</time>
      </trkpt>
      <trkpt lat="48.09224" lon="7.20665">
        <ele>776</ele>
        <time>2019-05-07T17:03:15Z</time>
      </trkpt>
      <trkpt lat="48.09233" lon="7.20674">
        <ele>776</ele>
        <time>2019-05-07T17:04:15Z</time>
      </trkpt>
      <trkpt lat="48.09214" lon="7.20684">
        <ele>775</ele>
        <time>2019-05-07T17:05:15Z</time>
      </trkpt>
      <trkpt lat="48.09214" lon="7.20712">
        <ele>775</ele>
        <time>2019-05-07T17:06:15Z</time>
      </trkpt>
      <trkpt lat="48.09209" lon="7.20757">
        <ele>775</ele>
        <time>2019-05-07T17:07:15Z</time>
      </trkpt>
      <trkpt lat="48.09226" lon="7.20821">
        <ele>772</ele>
        <time>2019-05-07T17:08:15Z</time>
      </trkpt>
      <trkpt lat="48.09232" lon="7.20859">
        <ele>771</ele>
        <time>2019-05-07T17:09:15Z</time>
      </trkpt>
      <trkpt lat="48.09244" lon="7.20883">
        <ele>771</ele>
        <time>2019-05-07T17:10:15Z</time>
      </trkpt>
      <trkpt lat="48.09247" lon="7.20918">
        <ele>770</ele>
        <time>2019-05-07T17:11:15Z</time>
      </trkpt>
      <trkpt lat="48.09242" lon="7.20947">
        <ele>767</ele>
        <time>2019-05-07T17:12:15Z</time>
      </trkpt>
      <trkpt lat="48.09247" lon="7.20963">
        <ele>767</ele>
        <time>2019-05-07T17:13:15Z</time>
      </trkpt>
      <trkpt lat="48.09256" lon="7.2098">
        <ele>766</ele>
        <time>2019-05-07T17:14:15Z</time>
      </trkpt>
      <trkpt lat="48.09271" lon="7.20995">
        <ele>766</ele>
        <time>2019-05-07T17:15:15Z</time>
      </trkpt>
      <trkpt lat="48.09292" lon="7.21024">
        <ele>763</ele>
        <time>2019-05-07T17:16:15Z</time>
      </trkpt>
      <trkpt lat="48.09303" lon="7.21068">
        <ele>758</ele>
        <time>2019-05-07T17:17:15Z</time>
      </trkpt>
      <trkpt lat="48.09343" lon="7.21146">
        <ele>750</ele>
        <time>2019-05-07T17:18:15Z</time>
      </trkpt>
      <trkpt lat="48.09357" lon="7.21178">
        <ele>746</ele>
        <time>2019-05-07T17:19:15Z</time>
      </trkpt>
      <trkpt lat="48.09368" lon="7.21193">
        <ele>743</ele>
        <time>2019-05-07T17:20:15Z</time>
      </trkpt>
      <trkpt lat="48.09381" lon="7.21203">
        <ele>742</ele>
        <time>2019-05-07T17:21:15Z</time>
      </trkpt>
      <trkpt lat="48.09404" lon="7.21219">
        <ele>740</ele>
        <time>2019-05-07T17:22:15Z</time>
      </trkpt>
      <trkpt lat="48.09416" lon="7.21225">
        <ele>739</ele>
        <time>2019-05-07T17:23:15Z</time>
      </trkpt>
      <trkpt lat="48.09427" lon="7.21227">
        <ele>740</ele>
        <time>2019-05-07T17:24:15Z</time>
      </trkpt>
      <trkpt lat="48.09455" lon="7.2125">
        <ele>740</ele>
        <time>2019-05-07T17:25:15Z</time>
      </trkpt>
      <trkpt lat="48.09457" lon="7.21264">
        <ele>738</ele>
        <time>2019-05-07T17:26:15Z</time>
      </trkpt>
      <trkpt lat="48.09477" lon="7.21307">
        <ele>733</ele>
        <time>2019-05-07T17:27:15Z</time>
      </trkpt>
      <trkpt lat="48.09492" lon="7.21346">
        <ele>728</ele>
        <time>2019-05-07T17:28:15Z</time>
      </trkpt>
      <trkpt lat="48.095" lon="7.21398">
        <ele>717</ele>
        <time>2019-05-07T17:29:15Z</time>
      </trkpt>
      <trkpt lat="48.09511" lon="7.21446">
        <ele>710</ele>
        <time>2019-05-07T17:30:15Z</time>
      </trkpt>
      <trkpt lat="48.0953" lon="7.21481">
        <ele>707</ele>
        <time>2019-05-07T17:31:15Z</time>
      </trkpt>
      <trkpt lat="48.09552" lon="7.2151">
        <ele>706</ele>
        <time>2019-05-07T17:32:15Z</time>
      </trkpt>
      <trkpt lat="48.09571" lon="7.21527">
        <ele>707</ele>
        <time>2019-05-07T17:33:15Z</time>
      </trkpt>
      <trkpt lat="48.0951" lon="7.21519">
        <ele>700</ele>
        <time>2019-05-07T17:34:15Z</time>
      </trkpt>
      <trkpt lat="48.09497" lon="7.21522">
        <ele>698</ele>
        <time>2019-05-07T17:35:15Z</time>
      </trkpt>
      <trkpt lat="48.09492" lon="7.21533">
        <ele>696</ele>
        <time>2019-05-07T17:36:15Z</time>
      </trkpt>
      <trkpt lat="48.09491" lon="7.21571">
        <ele>693</ele>
        <time>2019-05-07T17:37:15Z</time>
      </trkpt>
      <trkpt lat="48.095" lon="7.21634">
        <ele>693</ele>
        <time>2019-05-07T17:38:15Z</time>
      </trkpt>
      <trkpt lat="48.095" lon="7.21684">
        <ele>692</ele>
        <time>2019-05-07T17:39:15Z</time>
      </trkpt>
      <trkpt lat="48.09514" lon="7.21713">
        <ele>691</ele>
        <time>2019-05-07T17:40:15Z</time>
      </trkpt>
      <trkpt lat="48.09518" lon="7.2173">
        <ele>691</ele>
        <time>2019-05-07T17:41:15Z</time>
      </trkpt>
      <trkpt lat="48.09521" lon="7.21784">
        <ele>688</ele>
        <time>2019-05-07T17:42:15Z</time>
      </trkpt>
      <trkpt lat="48.0953" lon="7.21799">
        <ele>687</ele>
        <time>2019-05-07T17:43:15Z</time>
      </trkpt>
      <trkpt lat="48.09541" lon="7.21805">
        <ele>687</ele>
        <time>2019-05-07T17:44:15Z</time>
      </trkpt>
      <trkpt lat="48.09551" lon="7.21815">
        <ele>687</ele>
        <time>2019-05-07T17:45:15Z</time>
      </trkpt>
      <trkpt lat="48.0957" lon="7.2184">
        <ele>688</ele>
        <time>2019-05-07T17:46:15Z</time>
      </trkpt>
      <trkpt lat="48.09592" lon="7.21861">
        <ele>688</ele>
        <time>2019-05-07T17:47:15Z</time>
      </trkpt>
      <trkpt lat="48.09619" lon="7.21892">
        <ele>688</ele>
        <time>2019-05-07T17:48:15Z</time>
      </trkpt>
      <trkpt lat="48.09628" lon="7.21897">
        <ele>689</ele>
        <time>2019-05-07T17:49:15Z</time>
      </trkpt>
      <trkpt lat="48.09637" lon="7.21912">
        <ele>689</ele>
        <time>2019-05-07T17:50:15Z</time>
      </trkpt>
      <trkpt lat="48.09641" lon="7.21929">
        <ele>688</ele>
        <time>2019-05-07T17:51:15Z</time>
      </trkpt>
      <trkpt lat="48.09646" lon="7.2198">
        <ele>683</ele>
        <time>2019-05-07T17:52:15Z</time>
      </trkpt>
      <trkpt lat="48.09656" lon="7.21988">
        <ele>683</ele>
        <time>2019-05-07T17:53:15Z</time>
      </trkpt>
      <trkpt lat="48.09673" lon="7.22016">
        <ele>680</ele>
        <time>2019-05-07T17:54:15Z</time>
      </trkpt>
      <trkpt lat="48.09679" lon="7.22032">
        <ele>677</ele>
        <time>2019-05-07T17:55:15Z</time>
      </trkpt>
      <trkpt lat="48.09692" lon="7.22084">
        <ele>669</ele>
        <time>2019-05-07T17:56:15Z</time>
      </trkpt>
      <trkpt lat="48.09696" lon="7.22117">
        <ele>657</ele>
        <time>2019-05-07T17:57:15Z</time>
      </trkpt>
      <trkpt lat="48.09717" lon="7.22137">
        <ele>656</ele>
        <time>2019-05-07T17:58:15Z</time>
      </trkpt>
      <trkpt lat="48.09733" lon="7.22159">
        <ele>654</ele>
        <time>2019-05-07T17:59:15Z</time>
      </trkpt>
      <trkpt lat="48.09743" lon="7.22166">
        <ele>656</ele>
        <time>2019-05-07T18:00:15Z</time>
      </trkpt>
      <trkpt lat="48.09751" lon="7.2218">
        <ele>656</ele>
        <time>2019-05-07T18:01:15Z</time>
      </trkpt>
      <trkpt lat="48.09768" lon="7.22252">
        <ele>653</ele>
        <time>2019-05-07T18:02:15Z</time>
      </trkpt>
      <trkpt lat="48.09774" lon="7.22264">
        <ele>656</ele>
        <time>2019-05-07T18:03:15Z</time>
      </trkpt>
      <trkpt lat="48.09783" lon="7.22271">
        <ele>659</ele>
        <time>2019-05-07T18:04:15Z</time>
      </trkpt>
      <trkpt lat="48.09779" lon="7.22293">
        <ele>657</ele>
        <time>2019-05-07T18:05:15Z</time>
      </trkpt>
      <trkpt lat="48.09772" lon="7.22302">
        <ele>654</ele>
        <time>2019-05-07T18:06:15Z</time>
      </trkpt>
      <trkpt lat="48.09754" lon="7.22314">
        <ele>646</ele>
        <time>2019-05-07T18:07:15Z</time>
      </trkpt>
      <trkpt lat="48.09747" lon="7.2233">
        <ele>642</ele>
        <time>2019-05-07T18:08:15Z</time>
      </trkpt>
      <trkpt lat="48.09739" lon="7.22362">
        <ele>640</ele>
        <time>2019-05-07T18:09:15Z</time>
      </trkpt>
      <trkpt lat="48.09737" lon="7.22377">
        <ele>641</ele>
        <time>2019-05-07T18:10:15Z</time>
      </trkpt>
      <trkpt lat="48.09736" lon="7.22459">
        <ele>643</ele>
        <time>2019-05-07T18:11:15Z</time>
      </trkpt>
      <trkpt lat="48.09746" lon="7.22522">
        <ele>649</ele>
        <time>2019-05-07T18:12:15Z</time>
      </trkpt>
      <trkpt lat="48.09746" lon="7.22554">
        <ele>649</ele>
        <time>2019-05-07T18:13:15Z</time>
      </trkpt>
      <trkpt lat="48.09732" lon="7.22622">
        <ele>647</ele>
        <time>2019-05-07T18:14:15Z</time>
      </trkpt>
      <trkpt lat="48.09727" lon="7.22639">
        <ele>647</ele>
        <time>2019-05-07T18:15:15Z</time>
      </trkpt>
      <trkpt lat="48.09714" lon="7.22665">
        <ele>645</ele>
        <time>2019-05-07T18:16:15Z</time>
      </trkpt>
      <trkpt lat="48.09709" lon="7.22683">
        <ele>646</ele>
        <time>2019-05-07T18:17:15Z</time>
      </trkpt>
      <trkpt lat="48.09698" lon="7.22707">
        <ele>646</ele>
        <time>2019-05-07T18:18:15Z</time>
      </trkpt>
      <trkpt lat="48.09693" lon="7.22753">
        <ele>652</ele>
        <time>2019-05-07T18:19:15Z</time>
      </trkpt>
      <trkpt lat="48.09687" lon="7.22767">
        <ele>652</ele>
        <time>2019-05-07T18:20:15Z</time>
      </trkpt>
      <trkpt lat="48.09679" lon="7.22775">
        <ele>650</ele>
        <time>2019-05-07T18:21:15Z</time>
      </trkpt>
      <trkpt lat="48.09659" lon="7.22805">
        <ele>648</ele>
        <time>2019-05-07T18:22:15Z</time>
      </trkpt>
      <trkpt lat="48.09639" lon="7.22847">
        <ele>648</ele>
        <time>2019-05-07T18:23:15Z</time>
      </trkpt>
      <trkpt lat="48.09634" lon="7.22863">
        <ele>647</ele>
        <time>2019-05-07T18:24:15Z</time>
      </trkpt>
      <trkpt lat="48.09635" lon="7.22882">
        <ele>648</ele>
        <time>2019-05-07T18:25:15Z</time>
      </trkpt>
      <trkpt lat="48.0964" lon="7.22899">
        <ele>649</ele>
        <time>2019-05-07T18:26:15Z</time>
      </trkpt>
      <trkpt lat="48.09666" lon="7.22925">
        <ele>654</ele>
        <time>2019-05-07T18:27:15Z</time>
      </trkpt>
      <trkpt lat="48.09688" lon="7.22941">
        <ele>654</ele>
        <time>2019-05-07T18:28:15Z</time>
      </trkpt>
      <trkpt lat="48.09707" lon="7.22949">
        <ele>654</ele>
        <time>2019-05-07T18:29:15Z</time>
      </trkpt>
      <trkpt lat="48.09767" lon="7.22963">
        <ele>658</ele>
        <time>2019-05-07T18:30:15Z</time>
      </trkpt>
      <trkpt lat="48.09839" lon="7.23015">
        <ele>652</ele>
        <time>2019-05-07T18:31:15Z</time>
      </trkpt>
      <trkpt lat="48.09858" lon="7.23033">
        <ele>650</ele>
        <time>2019-05-07T18:32:15Z</time>
      </trkpt>
      <trkpt lat="48.0987" lon="7.2304">
        <ele>650</ele>
        <time>2019-05-07T18:33:15Z</time>
      </trkpt>
      <trkpt lat="48.09892" lon="7.23044">
        <ele>653</ele>
        <time>2019-05-07T18:34:15Z</time>
      </trkpt>
      <trkpt lat="48.09904" lon="7.2305">
        <ele>655</ele>
        <time>2019-05-07T18:35:15Z</time>
      </trkpt>
      <trkpt lat="48.09915" lon="7.23062">
        <ele>656</ele>
        <time>2019-05-07T18:36:15Z</time>
      </trkpt>
      <trkpt lat="48.09922" lon="7.23074">
        <ele>655</ele>
        <time>2019-05-07T18:37:15Z</time>
      </trkpt>
      <trkpt lat="48.09932" lon="7.23122">
        <ele>650</ele>
        <time>2019-05-07T18:38:15Z</time>
      </trkpt>
      <trkpt lat="48.09938" lon="7.23137">
        <ele>649</ele>
        <time>2019-05-07T18:39:15Z</time>
      </trkpt>
      <trkpt lat="48.09961" lon="7.23177">
        <ele>650</ele>
        <time>2019-05-07T18:40:15Z</time>
      </trkpt>
      <trkpt lat="48.09963" lon="7.23198">
        <ele>649</ele>
        <time>2019-05-07T18:41:15Z</time>
      </trkpt>
      <trkpt lat="48.09952" lon="7.23268">
        <ele>645</ele>
        <time>2019-05-07T18:42:15Z</time>
      </trkpt>
      <trkpt lat="48.09947" lon="7.23284">
        <ele>644</ele>
        <time>2019-05-07T18:43:15Z</time>
      </trkpt>
      <trkpt lat="48.0994" lon="7.23294">
        <ele>643</ele>
        <time>2019-05-07T18:44:15Z</time>
      </trkpt>
      <trkpt lat="48.09928" lon="7.23322">
        <ele>641</ele>
        <time>2019-05-07T18:45:15Z</time>
      </trkpt>
      <trkpt lat="48.09921" lon="7.23347">
        <ele>640</ele>
        <time>2019-05-07T18:46:15Z</time>
      </trkpt>
      <trkpt lat="48.09917" lon="7.23397">
        <ele>641</ele>
        <time>2019-05-07T18:47:15Z</time>
      </trkpt>
      <trkpt lat="48.09919" lon="7.23429">
        <ele>642</ele>
        <time>2019-05-07T18:48:15Z</time>
      </trkpt>
      <trkpt lat="48.09928" lon="7.23457">
        <ele>643</ele>
        <time>2019-05-07T18:49:15Z</time>
      </trkpt>
      <trkpt lat="48.0994" lon="7.23459">
        <ele>646</ele>
        <time>2019-05-07T18:50:15Z</time>
      </trkpt>
      <trkpt lat="48.09947" lon="7.23445">
        <ele>648</ele>
        <time>2019-05-07T18:51:15Z</time>
      </trkpt>
      <trkpt lat="48.09946" lon="7.2343">
        <ele>648</ele>
        <time>2019-05-07T18:52:15Z</time>
      </trkpt>
      <trkpt lat="48.09936" lon="7.23401">
        <ele>646</ele>
        <time>2019-05-07T18:53:15Z</time>
      </trkpt>
      <trkpt lat="48.09935" lon="7.23385">
        <ele>645</ele>
        <time>2019-05-07T18:54:15Z</time>
      </trkpt>
      <trkpt lat="48.09938" lon="7.2337">
        <ele>645</ele>
        <time>2019-05-07T18:55:15Z</time>
      </trkpt>
      <trkpt lat="48.09942" lon="7.23356">
        <ele>646</ele>
        <time>2019-05-07T18:56:15Z</time>
      </trkpt>
      <trkpt lat="48.0995" lon="7.23345">
        <ele>648</ele>
        <time>2019-05-07T18:57:15Z</time>
      </trkpt>
      <trkpt lat="48.09975" lon="7.23293">
        <ele>653</ele>
        <time>2019-05-07T18:58:15Z</time>
      </trkpt>
      <trkpt lat="48.09984" lon="7.23263">
        <ele>654</ele>
        <time>2019-05-07T18:59:15Z</time>
      </trkpt>
      <trkpt lat="48.09989" lon="7.23215">
        <ele>655</ele>
        <time>2019-05-07T19:00:15Z</time>
      </trkpt>
      <trkpt lat="48.09989" lon="7.23185">
        <ele>655</ele>
        <time>2019-05-07T19:01:15Z</time>
      </trkpt>
      <trkpt lat="48.09984" lon="7.2314">
        <ele>656</ele>
        <time>2019-05-07T19:02:15Z</time>
      </trkpt>
      <trkpt lat="48.09986" lon="7.23125">
        <ele>657</ele>
        <time>2019-05-07T19:03:15Z</time>
      </trkpt>
      <trkpt lat="48.09996" lon="7.23117">
        <ele>658</ele>
        <time>2019-05-07T19:04:15Z</time>
      </trkpt>
      <trkpt lat="48.10048" lon="7.23104">
        <ele>660</ele>
        <time>2019-05-07T19:05:15Z</time>
      </trkpt>
      <trkpt lat="48.10067" lon="7.23087">
        <ele>659</ele>
        <time>2019-05-07T19:06:15Z</time>
      </trkpt>
      <trkpt lat="48.10082" lon="7.23067">
        <ele>658</ele>
        <time>2019-05-07T19:07:15Z</time>
      </trkpt>
      <trkpt lat="48.10079" lon="7.23033">
        <ele>656</ele>
        <time>2019-05-07T19:08:15Z</time>
      </trkpt>
      <trkpt lat="48.10075" lon="7.23015">
        <ele>655</ele>
        <time>2019-05-07T19:09:15Z</time>
      </trkpt>
      <trkpt lat="48.1008" lon="7.23003">
        <ele>654</ele>
        <time>2019-05-07T19:10:15Z</time>
      </trkpt>
      <trkpt lat="48.1009" lon="7.23003">
        <ele>653</ele>
        <time>2019-05-07T19:11:15Z</time>
      </trkpt>
      <trkpt lat="48.101" lon="7.22995">
        <ele>652</ele>
        <time>2019-05-07T19:12:15Z</time>
      </trkpt>
      <trkpt lat="48.10101" lon="7.22987">
        <ele>652</ele>
        <time>2019-05-07T19:13:15Z</time>
      </trkpt>
    </trkseg>
  </trk>
</gpx>